<?xml version="1.0" encoding="UTF-8" standalone="no" ?>
<gpx xmlns="http://www.topografix.com/GPX/1/1" xmlns:xsi="http://www.w3.org/2001/XMLSchema-instance" xsi:schemaLocation="http://www.topografix.com/GPX/1/1 http://www.topografix.com/GPX/1/1/gpx.xsd" version="1.1" creator="VisuGPX - https://www.visugpx.com">
  <metadata>
    <name>sortie route </name>
    <desc><![CDATA[sortie avec wouaiwouai]]></desc>
  </metadata>
  <trk>
    <name><![CDATA[sortie route _1]]></name>
    <trkseg>
      <trkpt lat="49.09057" lon="6.12708">
        <ele>171.2</ele>
        <time>2011-10-22T11:27:14Z</time>
      </trkpt>
      <trkpt lat="49.09057" lon="6.12708">
        <ele>223.4</ele>
        <time>2011-10-22T11:35:50Z</time>
      </trkpt>
      <trkpt lat="49.09049" lon="6.1267">
        <ele>223.6</ele>
        <time>2011-10-22T11:35:54Z</time>
      </trkpt>
      <trkpt lat="49.09037" lon="6.12623">
        <ele>223.4</ele>
        <time>2011-10-22T11:35:58Z</time>
      </trkpt>
      <trkpt lat="49.09022" lon="6.12576">
        <ele>222.4</ele>
        <time>2011-10-22T11:36:02Z</time>
      </trkpt>
      <trkpt lat="49.09008" lon="6.12535">
        <ele>222.3</ele>
        <time>2011-10-22T11:36:06Z</time>
      </trkpt>
      <trkpt lat="49.08998" lon="6.12503">
        <ele>222.7</ele>
        <time>2011-10-22T11:36:09Z</time>
      </trkpt>
      <trkpt lat="49.08983" lon="6.12459">
        <ele>222.1</ele>
        <time>2011-10-22T11:36:13Z</time>
      </trkpt>
      <trkpt lat="49.08955" lon="6.12403">
        <ele>223.9</ele>
        <time>2011-10-22T11:36:18Z</time>
      </trkpt>
      <trkpt lat="49.08939" lon="6.12356">
        <ele>221.5</ele>
        <time>2011-10-22T11:36:22Z</time>
      </trkpt>
      <trkpt lat="49.08923" lon="6.1231">
        <ele>221.2</ele>
        <time>2011-10-22T11:36:26Z</time>
      </trkpt>
      <trkpt lat="49.0891" lon="6.12267">
        <ele>219.2</ele>
        <time>2011-10-22T11:36:30Z</time>
      </trkpt>
      <trkpt lat="49.08899" lon="6.12213">
        <ele>217.4</ele>
        <time>2011-10-22T11:36:34Z</time>
      </trkpt>
      <trkpt lat="49.08892" lon="6.12164">
        <ele>217.4</ele>
        <time>2011-10-22T11:36:38Z</time>
      </trkpt>
      <trkpt lat="49.08875" lon="6.12111">
        <ele>219.4</ele>
        <time>2011-10-22T11:36:42Z</time>
      </trkpt>
      <trkpt lat="49.08869" lon="6.12065">
        <ele>215.2</ele>
        <time>2011-10-22T11:36:45Z</time>
      </trkpt>
      <trkpt lat="49.08857" lon="6.12005">
        <ele>217.4</ele>
        <time>2011-10-22T11:36:50Z</time>
      </trkpt>
      <trkpt lat="49.0885" lon="6.11968">
        <ele>215.8</ele>
        <time>2011-10-22T11:36:53Z</time>
      </trkpt>
      <trkpt lat="49.08835" lon="6.11914">
        <ele>216</ele>
        <time>2011-10-22T11:36:58Z</time>
      </trkpt>
      <trkpt lat="49.08816" lon="6.11866">
        <ele>215.8</ele>
        <time>2011-10-22T11:37:02Z</time>
      </trkpt>
      <trkpt lat="49.08796" lon="6.11823">
        <ele>215.7</ele>
        <time>2011-10-22T11:37:06Z</time>
      </trkpt>
      <trkpt lat="49.08782" lon="6.11795">
        <ele>215.1</ele>
        <time>2011-10-22T11:37:09Z</time>
      </trkpt>
      <trkpt lat="49.08758" lon="6.11746">
        <ele>215</ele>
        <time>2011-10-22T11:37:14Z</time>
      </trkpt>
      <trkpt lat="49.08732" lon="6.11715">
        <ele>213.6</ele>
        <time>2011-10-22T11:37:18Z</time>
      </trkpt>
      <trkpt lat="49.08705" lon="6.11677">
        <ele>212.2</ele>
        <time>2011-10-22T11:37:22Z</time>
      </trkpt>
      <trkpt lat="49.0868" lon="6.11641">
        <ele>210.3</ele>
        <time>2011-10-22T11:37:26Z</time>
      </trkpt>
      <trkpt lat="49.08667" lon="6.11615">
        <ele>209.4</ele>
        <time>2011-10-22T11:37:29Z</time>
      </trkpt>
      <trkpt lat="49.08641" lon="6.11566">
        <ele>207.8</ele>
        <time>2011-10-22T11:37:34Z</time>
      </trkpt>
      <trkpt lat="49.08617" lon="6.11528">
        <ele>208.3</ele>
        <time>2011-10-22T11:37:38Z</time>
      </trkpt>
      <trkpt lat="49.08595" lon="6.11491">
        <ele>208.8</ele>
        <time>2011-10-22T11:37:42Z</time>
      </trkpt>
      <trkpt lat="49.08584" lon="6.11475">
        <ele>208.2</ele>
        <time>2011-10-22T11:37:44Z</time>
      </trkpt>
      <trkpt lat="49.08551" lon="6.11427">
        <ele>209.4</ele>
        <time>2011-10-22T11:37:50Z</time>
      </trkpt>
      <trkpt lat="49.08532" lon="6.11393">
        <ele>211</ele>
        <time>2011-10-22T11:37:53Z</time>
      </trkpt>
      <trkpt lat="49.08513" lon="6.11365">
        <ele>212.1</ele>
        <time>2011-10-22T11:37:57Z</time>
      </trkpt>
      <trkpt lat="49.08484" lon="6.11329">
        <ele>211.6</ele>
        <time>2011-10-22T11:38:02Z</time>
      </trkpt>
      <trkpt lat="49.08462" lon="6.11296">
        <ele>212</ele>
        <time>2011-10-22T11:38:05Z</time>
      </trkpt>
      <trkpt lat="49.08437" lon="6.11261">
        <ele>212.8</ele>
        <time>2011-10-22T11:38:09Z</time>
      </trkpt>
      <trkpt lat="49.08415" lon="6.11227">
        <ele>212</ele>
        <time>2011-10-22T11:38:13Z</time>
      </trkpt>
      <trkpt lat="49.08396" lon="6.11197">
        <ele>211.7</ele>
        <time>2011-10-22T11:38:16Z</time>
      </trkpt>
      <trkpt lat="49.08369" lon="6.11156">
        <ele>210.8</ele>
        <time>2011-10-22T11:38:21Z</time>
      </trkpt>
      <trkpt lat="49.08347" lon="6.11122">
        <ele>210.7</ele>
        <time>2011-10-22T11:38:25Z</time>
      </trkpt>
      <trkpt lat="49.08325" lon="6.11088">
        <ele>208.5</ele>
        <time>2011-10-22T11:38:29Z</time>
      </trkpt>
      <trkpt lat="49.083" lon="6.11056">
        <ele>208.3</ele>
        <time>2011-10-22T11:38:33Z</time>
      </trkpt>
      <trkpt lat="49.08277" lon="6.11022">
        <ele>208.8</ele>
        <time>2011-10-22T11:38:37Z</time>
      </trkpt>
      <trkpt lat="49.08251" lon="6.10988">
        <ele>207.8</ele>
        <time>2011-10-22T11:38:41Z</time>
      </trkpt>
      <trkpt lat="49.08232" lon="6.10956">
        <ele>207.1</ele>
        <time>2011-10-22T11:38:45Z</time>
      </trkpt>
      <trkpt lat="49.08211" lon="6.10924">
        <ele>209.1</ele>
        <time>2011-10-22T11:38:49Z</time>
      </trkpt>
      <trkpt lat="49.08194" lon="6.10893">
        <ele>209.9</ele>
        <time>2011-10-22T11:38:53Z</time>
      </trkpt>
      <trkpt lat="49.08187" lon="6.10875">
        <ele>211.6</ele>
        <time>2011-10-22T11:38:55Z</time>
      </trkpt>
      <trkpt lat="49.08182" lon="6.1081">
        <ele>212.3</ele>
        <time>2011-10-22T11:39:01Z</time>
      </trkpt>
      <trkpt lat="49.08168" lon="6.10783">
        <ele>212.8</ele>
        <time>2011-10-22T11:39:04Z</time>
      </trkpt>
      <trkpt lat="49.08137" lon="6.10765">
        <ele>211.7</ele>
        <time>2011-10-22T11:39:09Z</time>
      </trkpt>
      <trkpt lat="49.08107" lon="6.1073">
        <ele>210.9</ele>
        <time>2011-10-22T11:39:14Z</time>
      </trkpt>
      <trkpt lat="49.08086" lon="6.10689">
        <ele>210.8</ele>
        <time>2011-10-22T11:39:18Z</time>
      </trkpt>
      <trkpt lat="49.08062" lon="6.10648">
        <ele>210.7</ele>
        <time>2011-10-22T11:39:22Z</time>
      </trkpt>
      <trkpt lat="49.08044" lon="6.10612">
        <ele>210.5</ele>
        <time>2011-10-22T11:39:26Z</time>
      </trkpt>
      <trkpt lat="49.08029" lon="6.10583">
        <ele>212.7</ele>
        <time>2011-10-22T11:39:29Z</time>
      </trkpt>
      <trkpt lat="49.08005" lon="6.10536">
        <ele>212.5</ele>
        <time>2011-10-22T11:39:34Z</time>
      </trkpt>
      <trkpt lat="49.07985" lon="6.10497">
        <ele>211.9</ele>
        <time>2011-10-22T11:39:38Z</time>
      </trkpt>
      <trkpt lat="49.07965" lon="6.1046">
        <ele>211.3</ele>
        <time>2011-10-22T11:39:42Z</time>
      </trkpt>
      <trkpt lat="49.07946" lon="6.10419">
        <ele>211.1</ele>
        <time>2011-10-22T11:39:46Z</time>
      </trkpt>
      <trkpt lat="49.07927" lon="6.1038">
        <ele>211.9</ele>
        <time>2011-10-22T11:39:50Z</time>
      </trkpt>
      <trkpt lat="49.07906" lon="6.1034">
        <ele>210.7</ele>
        <time>2011-10-22T11:39:54Z</time>
      </trkpt>
      <trkpt lat="49.0789" lon="6.10312">
        <ele>211.9</ele>
        <time>2011-10-22T11:39:57Z</time>
      </trkpt>
      <trkpt lat="49.07869" lon="6.10275">
        <ele>212.5</ele>
        <time>2011-10-22T11:40:01Z</time>
      </trkpt>
      <trkpt lat="49.0784" lon="6.10225">
        <ele>212.5</ele>
        <time>2011-10-22T11:40:06Z</time>
      </trkpt>
      <trkpt lat="49.07821" lon="6.10189">
        <ele>212.1</ele>
        <time>2011-10-22T11:40:10Z</time>
      </trkpt>
      <trkpt lat="49.07817" lon="6.10142">
        <ele>211.7</ele>
        <time>2011-10-22T11:40:14Z</time>
      </trkpt>
      <trkpt lat="49.0781" lon="6.10092">
        <ele>214.1</ele>
        <time>2011-10-22T11:40:18Z</time>
      </trkpt>
      <trkpt lat="49.07784" lon="6.10064">
        <ele>215.7</ele>
        <time>2011-10-22T11:40:22Z</time>
      </trkpt>
      <trkpt lat="49.07753" lon="6.10061">
        <ele>215.8</ele>
        <time>2011-10-22T11:40:26Z</time>
      </trkpt>
      <trkpt lat="49.07725" lon="6.10048">
        <ele>216.6</ele>
        <time>2011-10-22T11:40:30Z</time>
      </trkpt>
      <trkpt lat="49.07702" lon="6.10009">
        <ele>216.5</ele>
        <time>2011-10-22T11:40:34Z</time>
      </trkpt>
      <trkpt lat="49.07683" lon="6.09971">
        <ele>216.5</ele>
        <time>2011-10-22T11:40:38Z</time>
      </trkpt>
      <trkpt lat="49.07661" lon="6.09932">
        <ele>215.7</ele>
        <time>2011-10-22T11:40:42Z</time>
      </trkpt>
      <trkpt lat="49.07637" lon="6.09897">
        <ele>215.8</ele>
        <time>2011-10-22T11:40:46Z</time>
      </trkpt>
      <trkpt lat="49.07613" lon="6.09857">
        <ele>214.9</ele>
        <time>2011-10-22T11:40:50Z</time>
      </trkpt>
      <trkpt lat="49.0759" lon="6.09821">
        <ele>215.8</ele>
        <time>2011-10-22T11:40:54Z</time>
      </trkpt>
      <trkpt lat="49.07566" lon="6.0978">
        <ele>215.4</ele>
        <time>2011-10-22T11:40:58Z</time>
      </trkpt>
      <trkpt lat="49.07545" lon="6.09743">
        <ele>215.2</ele>
        <time>2011-10-22T11:41:02Z</time>
      </trkpt>
      <trkpt lat="49.07522" lon="6.09702">
        <ele>213.6</ele>
        <time>2011-10-22T11:41:06Z</time>
      </trkpt>
      <trkpt lat="49.07499" lon="6.09664">
        <ele>214.1</ele>
        <time>2011-10-22T11:41:10Z</time>
      </trkpt>
      <trkpt lat="49.07477" lon="6.09629">
        <ele>214.1</ele>
        <time>2011-10-22T11:41:14Z</time>
      </trkpt>
      <trkpt lat="49.07458" lon="6.09591">
        <ele>213.7</ele>
        <time>2011-10-22T11:41:18Z</time>
      </trkpt>
      <trkpt lat="49.07444" lon="6.09566">
        <ele>213.1</ele>
        <time>2011-10-22T11:41:21Z</time>
      </trkpt>
      <trkpt lat="49.07421" lon="6.09527">
        <ele>211.7</ele>
        <time>2011-10-22T11:41:25Z</time>
      </trkpt>
      <trkpt lat="49.0739" lon="6.09475">
        <ele>214.2</ele>
        <time>2011-10-22T11:41:30Z</time>
      </trkpt>
      <trkpt lat="49.07366" lon="6.09437">
        <ele>216</ele>
        <time>2011-10-22T11:41:34Z</time>
      </trkpt>
      <trkpt lat="49.07341" lon="6.09397">
        <ele>216.1</ele>
        <time>2011-10-22T11:41:38Z</time>
      </trkpt>
      <trkpt lat="49.07324" lon="6.09366">
        <ele>215.6</ele>
        <time>2011-10-22T11:41:41Z</time>
      </trkpt>
      <trkpt lat="49.07302" lon="6.09314">
        <ele>215</ele>
        <time>2011-10-22T11:41:46Z</time>
      </trkpt>
      <trkpt lat="49.07283" lon="6.09269">
        <ele>215</ele>
        <time>2011-10-22T11:41:50Z</time>
      </trkpt>
      <trkpt lat="49.07264" lon="6.09227">
        <ele>216.7</ele>
        <time>2011-10-22T11:41:54Z</time>
      </trkpt>
      <trkpt lat="49.07245" lon="6.09184">
        <ele>215.6</ele>
        <time>2011-10-22T11:41:58Z</time>
      </trkpt>
      <trkpt lat="49.07236" lon="6.09162">
        <ele>215.6</ele>
        <time>2011-10-22T11:42:00Z</time>
      </trkpt>
      <trkpt lat="49.07216" lon="6.09111">
        <ele>214.1</ele>
        <time>2011-10-22T11:42:05Z</time>
      </trkpt>
      <trkpt lat="49.07195" lon="6.09054">
        <ele>213</ele>
        <time>2011-10-22T11:42:10Z</time>
      </trkpt>
      <trkpt lat="49.07176" lon="6.09008">
        <ele>212</ele>
        <time>2011-10-22T11:42:14Z</time>
      </trkpt>
      <trkpt lat="49.07169" lon="6.08991">
        <ele>214.2</ele>
        <time>2011-10-22T11:42:16Z</time>
      </trkpt>
      <trkpt lat="49.07163" lon="6.08964">
        <ele>215.1</ele>
        <time>2011-10-22T11:42:19Z</time>
      </trkpt>
      <trkpt lat="49.07139" lon="6.08912">
        <ele>216.8</ele>
        <time>2011-10-22T11:42:25Z</time>
      </trkpt>
      <trkpt lat="49.07127" lon="6.08882">
        <ele>217.1</ele>
        <time>2011-10-22T11:42:28Z</time>
      </trkpt>
      <trkpt lat="49.07106" lon="6.08828">
        <ele>216.1</ele>
        <time>2011-10-22T11:42:33Z</time>
      </trkpt>
      <trkpt lat="49.07085" lon="6.08774">
        <ele>215.2</ele>
        <time>2011-10-22T11:42:38Z</time>
      </trkpt>
      <trkpt lat="49.07076" lon="6.08752">
        <ele>215.5</ele>
        <time>2011-10-22T11:42:40Z</time>
      </trkpt>
      <trkpt lat="49.07049" lon="6.08684">
        <ele>214.5</ele>
        <time>2011-10-22T11:42:46Z</time>
      </trkpt>
      <trkpt lat="49.07034" lon="6.08646">
        <ele>214.2</ele>
        <time>2011-10-22T11:42:49Z</time>
      </trkpt>
      <trkpt lat="49.07016" lon="6.08607">
        <ele>214.1</ele>
        <time>2011-10-22T11:42:53Z</time>
      </trkpt>
      <trkpt lat="49.06991" lon="6.08552">
        <ele>214.6</ele>
        <time>2011-10-22T11:42:58Z</time>
      </trkpt>
      <trkpt lat="49.06971" lon="6.08511">
        <ele>214.6</ele>
        <time>2011-10-22T11:43:02Z</time>
      </trkpt>
      <trkpt lat="49.06951" lon="6.08472">
        <ele>214.9</ele>
        <time>2011-10-22T11:43:06Z</time>
      </trkpt>
      <trkpt lat="49.06933" lon="6.08438">
        <ele>216.3</ele>
        <time>2011-10-22T11:43:10Z</time>
      </trkpt>
      <trkpt lat="49.06925" lon="6.08414">
        <ele>219.2</ele>
        <time>2011-10-22T11:43:13Z</time>
      </trkpt>
      <trkpt lat="49.06917" lon="6.08401">
        <ele>221.2</ele>
        <time>2011-10-22T11:43:15Z</time>
      </trkpt>
      <trkpt lat="49.06907" lon="6.08374">
        <ele>220.8</ele>
        <time>2011-10-22T11:43:19Z</time>
      </trkpt>
      <trkpt lat="49.069" lon="6.08343">
        <ele>220.8</ele>
        <time>2011-10-22T11:43:23Z</time>
      </trkpt>
      <trkpt lat="49.06923" lon="6.08287">
        <ele>220.9</ele>
        <time>2011-10-22T11:43:30Z</time>
      </trkpt>
      <trkpt lat="49.0695" lon="6.08236">
        <ele>221.6</ele>
        <time>2011-10-22T11:43:34Z</time>
      </trkpt>
      <trkpt lat="49.06968" lon="6.08213">
        <ele>221.6</ele>
        <time>2011-10-22T11:43:37Z</time>
      </trkpt>
      <trkpt lat="49.0699" lon="6.08178">
        <ele>221.7</ele>
        <time>2011-10-22T11:43:41Z</time>
      </trkpt>
      <trkpt lat="49.07022" lon="6.0813">
        <ele>221.5</ele>
        <time>2011-10-22T11:43:46Z</time>
      </trkpt>
      <trkpt lat="49.07043" lon="6.08087">
        <ele>221.3</ele>
        <time>2011-10-22T11:43:50Z</time>
      </trkpt>
      <trkpt lat="49.0706" lon="6.08057">
        <ele>221.2</ele>
        <time>2011-10-22T11:43:53Z</time>
      </trkpt>
      <trkpt lat="49.07089" lon="6.08007">
        <ele>222.2</ele>
        <time>2011-10-22T11:43:58Z</time>
      </trkpt>
      <trkpt lat="49.07107" lon="6.0798">
        <ele>221.8</ele>
        <time>2011-10-22T11:44:01Z</time>
      </trkpt>
      <trkpt lat="49.07134" lon="6.07943">
        <ele>221.9</ele>
        <time>2011-10-22T11:44:06Z</time>
      </trkpt>
      <trkpt lat="49.07155" lon="6.07919">
        <ele>222.5</ele>
        <time>2011-10-22T11:44:10Z</time>
      </trkpt>
      <trkpt lat="49.07178" lon="6.07888">
        <ele>219.2</ele>
        <time>2011-10-22T11:44:14Z</time>
      </trkpt>
      <trkpt lat="49.07205" lon="6.07862">
        <ele>212.7</ele>
        <time>2011-10-22T11:44:18Z</time>
      </trkpt>
      <trkpt lat="49.07233" lon="6.07833">
        <ele>209.1</ele>
        <time>2011-10-22T11:44:22Z</time>
      </trkpt>
      <trkpt lat="49.07262" lon="6.07814">
        <ele>212.8</ele>
        <time>2011-10-22T11:44:26Z</time>
      </trkpt>
      <trkpt lat="49.07294" lon="6.07796">
        <ele>213.7</ele>
        <time>2011-10-22T11:44:30Z</time>
      </trkpt>
      <trkpt lat="49.07311" lon="6.07789">
        <ele>213.7</ele>
        <time>2011-10-22T11:44:32Z</time>
      </trkpt>
      <trkpt lat="49.07347" lon="6.07771">
        <ele>213.6</ele>
        <time>2011-10-22T11:44:37Z</time>
      </trkpt>
      <trkpt lat="49.07369" lon="6.07753">
        <ele>215.8</ele>
        <time>2011-10-22T11:44:41Z</time>
      </trkpt>
      <trkpt lat="49.07397" lon="6.0772">
        <ele>215.1</ele>
        <time>2011-10-22T11:44:46Z</time>
      </trkpt>
      <trkpt lat="49.07417" lon="6.07685">
        <ele>215.7</ele>
        <time>2011-10-22T11:44:50Z</time>
      </trkpt>
      <trkpt lat="49.07427" lon="6.07668">
        <ele>215.3</ele>
        <time>2011-10-22T11:44:52Z</time>
      </trkpt>
      <trkpt lat="49.07456" lon="6.07596">
        <ele>215.7</ele>
        <time>2011-10-22T11:44:58Z</time>
      </trkpt>
      <trkpt lat="49.07479" lon="6.07578">
        <ele>214.3</ele>
        <time>2011-10-22T11:45:01Z</time>
      </trkpt>
      <trkpt lat="49.0751" lon="6.07567">
        <ele>215.3</ele>
        <time>2011-10-22T11:45:06Z</time>
      </trkpt>
      <trkpt lat="49.07519" lon="6.07568">
        <ele>214.5</ele>
        <time>2011-10-22T11:45:08Z</time>
      </trkpt>
      <trkpt lat="49.07537" lon="6.07568">
        <ele>215.3</ele>
        <time>2011-10-22T11:45:12Z</time>
      </trkpt>
      <trkpt lat="49.0754" lon="6.07546">
        <ele>215</ele>
        <time>2011-10-22T11:45:17Z</time>
      </trkpt>
      <trkpt lat="49.07539" lon="6.07535">
        <ele>214.2</ele>
        <time>2011-10-22T11:45:19Z</time>
      </trkpt>
      <trkpt lat="49.07501" lon="6.07493">
        <ele>216.6</ele>
        <time>2011-10-22T11:47:34Z</time>
      </trkpt>
      <trkpt lat="49.07476" lon="6.07449">
        <ele>214.6</ele>
        <time>2011-10-22T11:47:37Z</time>
      </trkpt>
      <trkpt lat="49.07457" lon="6.07434">
        <ele>214.2</ele>
        <time>2011-10-22T11:47:40Z</time>
      </trkpt>
      <trkpt lat="49.07438" lon="6.07421">
        <ele>213.8</ele>
        <time>2011-10-22T11:47:44Z</time>
      </trkpt>
      <trkpt lat="49.074" lon="6.07404">
        <ele>209.1</ele>
        <time>2011-10-22T11:47:50Z</time>
      </trkpt>
      <trkpt lat="49.07359" lon="6.07402">
        <ele>209.5</ele>
        <time>2011-10-22T11:47:54Z</time>
      </trkpt>
      <trkpt lat="49.0733" lon="6.07396">
        <ele>209.4</ele>
        <time>2011-10-22T11:47:58Z</time>
      </trkpt>
      <trkpt lat="49.07321" lon="6.07392">
        <ele>208.3</ele>
        <time>2011-10-22T11:48:00Z</time>
      </trkpt>
      <trkpt lat="49.07299" lon="6.07389">
        <ele>207.9</ele>
        <time>2011-10-22T11:48:04Z</time>
      </trkpt>
      <trkpt lat="49.07282" lon="6.07383">
        <ele>207.6</ele>
        <time>2011-10-22T11:48:08Z</time>
      </trkpt>
      <trkpt lat="49.07236" lon="6.07379">
        <ele>207.8</ele>
        <time>2011-10-22T11:48:14Z</time>
      </trkpt>
      <trkpt lat="49.07217" lon="6.07373">
        <ele>207.3</ele>
        <time>2011-10-22T11:48:17Z</time>
      </trkpt>
      <trkpt lat="49.0718" lon="6.07356">
        <ele>207.5</ele>
        <time>2011-10-22T11:48:22Z</time>
      </trkpt>
      <trkpt lat="49.07159" lon="6.07347">
        <ele>207.6</ele>
        <time>2011-10-22T11:48:24Z</time>
      </trkpt>
      <trkpt lat="49.07122" lon="6.0733">
        <ele>208.2</ele>
        <time>2011-10-22T11:48:30Z</time>
      </trkpt>
      <trkpt lat="49.07088" lon="6.07314">
        <ele>209.1</ele>
        <time>2011-10-22T11:48:34Z</time>
      </trkpt>
      <trkpt lat="49.07058" lon="6.07298">
        <ele>210.1</ele>
        <time>2011-10-22T11:48:38Z</time>
      </trkpt>
      <trkpt lat="49.07035" lon="6.0728">
        <ele>211</ele>
        <time>2011-10-22T11:48:42Z</time>
      </trkpt>
      <trkpt lat="49.07011" lon="6.07265">
        <ele>210.6</ele>
        <time>2011-10-22T11:48:46Z</time>
      </trkpt>
      <trkpt lat="49.06994" lon="6.07252">
        <ele>211.2</ele>
        <time>2011-10-22T11:48:49Z</time>
      </trkpt>
      <trkpt lat="49.06963" lon="6.07229">
        <ele>211</ele>
        <time>2011-10-22T11:48:54Z</time>
      </trkpt>
      <trkpt lat="49.06933" lon="6.07209">
        <ele>212.2</ele>
        <time>2011-10-22T11:48:58Z</time>
      </trkpt>
      <trkpt lat="49.06907" lon="6.07189">
        <ele>211.2</ele>
        <time>2011-10-22T11:49:02Z</time>
      </trkpt>
      <trkpt lat="49.06878" lon="6.07174">
        <ele>211.6</ele>
        <time>2011-10-22T11:49:06Z</time>
      </trkpt>
      <trkpt lat="49.06851" lon="6.07154">
        <ele>210.9</ele>
        <time>2011-10-22T11:49:10Z</time>
      </trkpt>
      <trkpt lat="49.06833" lon="6.07144">
        <ele>211.3</ele>
        <time>2011-10-22T11:49:12Z</time>
      </trkpt>
      <trkpt lat="49.06806" lon="6.07116">
        <ele>211.7</ele>
        <time>2011-10-22T11:49:18Z</time>
      </trkpt>
      <trkpt lat="49.0678" lon="6.07096">
        <ele>211.9</ele>
        <time>2011-10-22T11:49:22Z</time>
      </trkpt>
      <trkpt lat="49.0676" lon="6.07084">
        <ele>211.7</ele>
        <time>2011-10-22T11:49:25Z</time>
      </trkpt>
      <trkpt lat="49.06732" lon="6.07062">
        <ele>211.5</ele>
        <time>2011-10-22T11:49:29Z</time>
      </trkpt>
      <trkpt lat="49.06712" lon="6.07044">
        <ele>210.2</ele>
        <time>2011-10-22T11:49:33Z</time>
      </trkpt>
      <trkpt lat="49.06684" lon="6.07018">
        <ele>209.4</ele>
        <time>2011-10-22T11:49:38Z</time>
      </trkpt>
      <trkpt lat="49.06655" lon="6.06995">
        <ele>210.4</ele>
        <time>2011-10-22T11:49:42Z</time>
      </trkpt>
      <trkpt lat="49.06645" lon="6.06983">
        <ele>211.5</ele>
        <time>2011-10-22T11:49:44Z</time>
      </trkpt>
      <trkpt lat="49.06608" lon="6.06951">
        <ele>211.3</ele>
        <time>2011-10-22T11:49:50Z</time>
      </trkpt>
      <trkpt lat="49.06574" lon="6.06925">
        <ele>211.4</ele>
        <time>2011-10-22T11:49:55Z</time>
      </trkpt>
      <trkpt lat="49.06555" lon="6.06906">
        <ele>210.9</ele>
        <time>2011-10-22T11:49:58Z</time>
      </trkpt>
      <trkpt lat="49.06524" lon="6.06884">
        <ele>209.5</ele>
        <time>2011-10-22T11:50:02Z</time>
      </trkpt>
      <trkpt lat="49.06492" lon="6.06858">
        <ele>209.2</ele>
        <time>2011-10-22T11:50:07Z</time>
      </trkpt>
      <trkpt lat="49.06468" lon="6.06839">
        <ele>208</ele>
        <time>2011-10-22T11:50:11Z</time>
      </trkpt>
      <trkpt lat="49.06454" lon="6.06824">
        <ele>207.3</ele>
        <time>2011-10-22T11:50:14Z</time>
      </trkpt>
      <trkpt lat="49.06419" lon="6.06798">
        <ele>205.5</ele>
        <time>2011-10-22T11:50:19Z</time>
      </trkpt>
      <trkpt lat="49.06394" lon="6.06778">
        <ele>205.7</ele>
        <time>2011-10-22T11:50:23Z</time>
      </trkpt>
      <trkpt lat="49.06374" lon="6.06762">
        <ele>206.8</ele>
        <time>2011-10-22T11:50:26Z</time>
      </trkpt>
      <trkpt lat="49.06346" lon="6.06739">
        <ele>207.7</ele>
        <time>2011-10-22T11:50:30Z</time>
      </trkpt>
      <trkpt lat="49.0632" lon="6.0672">
        <ele>208.6</ele>
        <time>2011-10-22T11:50:34Z</time>
      </trkpt>
      <trkpt lat="49.0629" lon="6.06694">
        <ele>210.7</ele>
        <time>2011-10-22T11:50:39Z</time>
      </trkpt>
      <trkpt lat="49.06267" lon="6.06674">
        <ele>212</ele>
        <time>2011-10-22T11:50:43Z</time>
      </trkpt>
      <trkpt lat="49.06238" lon="6.06654">
        <ele>214.5</ele>
        <time>2011-10-22T11:50:47Z</time>
      </trkpt>
      <trkpt lat="49.06217" lon="6.06635">
        <ele>215.2</ele>
        <time>2011-10-22T11:50:51Z</time>
      </trkpt>
      <trkpt lat="49.06188" lon="6.0661">
        <ele>214.2</ele>
        <time>2011-10-22T11:50:55Z</time>
      </trkpt>
      <trkpt lat="49.06163" lon="6.06585">
        <ele>213.7</ele>
        <time>2011-10-22T11:50:59Z</time>
      </trkpt>
      <trkpt lat="49.06142" lon="6.06569">
        <ele>214.7</ele>
        <time>2011-10-22T11:51:02Z</time>
      </trkpt>
      <trkpt lat="49.06127" lon="6.06552">
        <ele>214.1</ele>
        <time>2011-10-22T11:51:05Z</time>
      </trkpt>
      <trkpt lat="49.06097" lon="6.06516">
        <ele>213.8</ele>
        <time>2011-10-22T11:51:11Z</time>
      </trkpt>
      <trkpt lat="49.06083" lon="6.06501">
        <ele>214.3</ele>
        <time>2011-10-22T11:51:13Z</time>
      </trkpt>
      <trkpt lat="49.06058" lon="6.06474">
        <ele>214.2</ele>
        <time>2011-10-22T11:51:18Z</time>
      </trkpt>
      <trkpt lat="49.06031" lon="6.06453">
        <ele>214.9</ele>
        <time>2011-10-22T11:51:22Z</time>
      </trkpt>
      <trkpt lat="49.06014" lon="6.06434">
        <ele>214.5</ele>
        <time>2011-10-22T11:51:25Z</time>
      </trkpt>
      <trkpt lat="49.05982" lon="6.06402">
        <ele>215.2</ele>
        <time>2011-10-22T11:51:31Z</time>
      </trkpt>
      <trkpt lat="49.05958" lon="6.06377">
        <ele>215.3</ele>
        <time>2011-10-22T11:51:35Z</time>
      </trkpt>
      <trkpt lat="49.05938" lon="6.06367">
        <ele>217.9</ele>
        <time>2011-10-22T11:51:37Z</time>
      </trkpt>
      <trkpt lat="49.05916" lon="6.06344">
        <ele>216</ele>
        <time>2011-10-22T11:51:41Z</time>
      </trkpt>
      <trkpt lat="49.05881" lon="6.0631">
        <ele>216.7</ele>
        <time>2011-10-22T11:51:47Z</time>
      </trkpt>
      <trkpt lat="49.05855" lon="6.06288">
        <ele>218.3</ele>
        <time>2011-10-22T11:51:51Z</time>
      </trkpt>
      <trkpt lat="49.0583" lon="6.06264">
        <ele>218.4</ele>
        <time>2011-10-22T11:51:55Z</time>
      </trkpt>
      <trkpt lat="49.05801" lon="6.06246">
        <ele>217.5</ele>
        <time>2011-10-22T11:51:59Z</time>
      </trkpt>
      <trkpt lat="49.05774" lon="6.06229">
        <ele>216.7</ele>
        <time>2011-10-22T11:52:03Z</time>
      </trkpt>
      <trkpt lat="49.05758" lon="6.06218">
        <ele>217.3</ele>
        <time>2011-10-22T11:52:05Z</time>
      </trkpt>
      <trkpt lat="49.05733" lon="6.06178">
        <ele>217.6</ele>
        <time>2011-10-22T11:52:11Z</time>
      </trkpt>
      <trkpt lat="49.05705" lon="6.06184">
        <ele>217.3</ele>
        <time>2011-10-22T11:52:15Z</time>
      </trkpt>
      <trkpt lat="49.05676" lon="6.06182">
        <ele>217</ele>
        <time>2011-10-22T11:52:19Z</time>
      </trkpt>
      <trkpt lat="49.05669" lon="6.0618">
        <ele>217.2</ele>
        <time>2011-10-22T11:52:20Z</time>
      </trkpt>
      <trkpt lat="49.05654" lon="6.06173">
        <ele>216.8</ele>
        <time>2011-10-22T11:52:25Z</time>
      </trkpt>
      <trkpt lat="49.05619" lon="6.06165">
        <ele>216.9</ele>
        <time>2011-10-22T11:52:31Z</time>
      </trkpt>
      <trkpt lat="49.05598" lon="6.06159">
        <ele>216.5</ele>
        <time>2011-10-22T11:52:34Z</time>
      </trkpt>
      <trkpt lat="49.05571" lon="6.06149">
        <ele>217</ele>
        <time>2011-10-22T11:52:38Z</time>
      </trkpt>
      <trkpt lat="49.05524" lon="6.06135">
        <ele>217.5</ele>
        <time>2011-10-22T11:52:43Z</time>
      </trkpt>
      <trkpt lat="49.05492" lon="6.06125">
        <ele>218.6</ele>
        <time>2011-10-22T11:52:47Z</time>
      </trkpt>
      <trkpt lat="49.05458" lon="6.0611">
        <ele>217.7</ele>
        <time>2011-10-22T11:52:51Z</time>
      </trkpt>
      <trkpt lat="49.05428" lon="6.06089">
        <ele>216.4</ele>
        <time>2011-10-22T11:52:55Z</time>
      </trkpt>
      <trkpt lat="49.05415" lon="6.06081">
        <ele>216.4</ele>
        <time>2011-10-22T11:52:57Z</time>
      </trkpt>
      <trkpt lat="49.0538" lon="6.06065">
        <ele>217.3</ele>
        <time>2011-10-22T11:53:03Z</time>
      </trkpt>
      <trkpt lat="49.05346" lon="6.06054">
        <ele>217.8</ele>
        <time>2011-10-22T11:53:07Z</time>
      </trkpt>
      <trkpt lat="49.05312" lon="6.06044">
        <ele>216.4</ele>
        <time>2011-10-22T11:53:11Z</time>
      </trkpt>
      <trkpt lat="49.05283" lon="6.06035">
        <ele>215.9</ele>
        <time>2011-10-22T11:53:15Z</time>
      </trkpt>
      <trkpt lat="49.05253" lon="6.06027">
        <ele>215.3</ele>
        <time>2011-10-22T11:53:19Z</time>
      </trkpt>
      <trkpt lat="49.05233" lon="6.06022">
        <ele>215</ele>
        <time>2011-10-22T11:53:22Z</time>
      </trkpt>
      <trkpt lat="49.05206" lon="6.06012">
        <ele>216.5</ele>
        <time>2011-10-22T11:53:26Z</time>
      </trkpt>
      <trkpt lat="49.05175" lon="6.06005">
        <ele>218.3</ele>
        <time>2011-10-22T11:53:30Z</time>
      </trkpt>
      <trkpt lat="49.0514" lon="6.05994">
        <ele>219.3</ele>
        <time>2011-10-22T11:53:35Z</time>
      </trkpt>
      <trkpt lat="49.05113" lon="6.05984">
        <ele>220</ele>
        <time>2011-10-22T11:53:39Z</time>
      </trkpt>
      <trkpt lat="49.05084" lon="6.05977">
        <ele>220</ele>
        <time>2011-10-22T11:53:43Z</time>
      </trkpt>
      <trkpt lat="49.05058" lon="6.0597">
        <ele>218.9</ele>
        <time>2011-10-22T11:53:47Z</time>
      </trkpt>
      <trkpt lat="49.05027" lon="6.05961">
        <ele>219</ele>
        <time>2011-10-22T11:53:51Z</time>
      </trkpt>
      <trkpt lat="49.04997" lon="6.05953">
        <ele>217.7</ele>
        <time>2011-10-22T11:53:55Z</time>
      </trkpt>
      <trkpt lat="49.04968" lon="6.05943">
        <ele>217.8</ele>
        <time>2011-10-22T11:53:59Z</time>
      </trkpt>
      <trkpt lat="49.04939" lon="6.05937">
        <ele>216.8</ele>
        <time>2011-10-22T11:54:03Z</time>
      </trkpt>
      <trkpt lat="49.04916" lon="6.05931">
        <ele>217.1</ele>
        <time>2011-10-22T11:54:07Z</time>
      </trkpt>
      <trkpt lat="49.04881" lon="6.05921">
        <ele>215.7</ele>
        <time>2011-10-22T11:54:11Z</time>
      </trkpt>
      <trkpt lat="49.04855" lon="6.0591">
        <ele>216.6</ele>
        <time>2011-10-22T11:54:15Z</time>
      </trkpt>
      <trkpt lat="49.04822" lon="6.05902">
        <ele>215.9</ele>
        <time>2011-10-22T11:54:19Z</time>
      </trkpt>
      <trkpt lat="49.048" lon="6.05895">
        <ele>215.8</ele>
        <time>2011-10-22T11:54:23Z</time>
      </trkpt>
      <trkpt lat="49.04776" lon="6.05886">
        <ele>216.3</ele>
        <time>2011-10-22T11:54:27Z</time>
      </trkpt>
      <trkpt lat="49.04753" lon="6.05881">
        <ele>214.1</ele>
        <time>2011-10-22T11:54:31Z</time>
      </trkpt>
      <trkpt lat="49.0473" lon="6.05873">
        <ele>213.7</ele>
        <time>2011-10-22T11:54:34Z</time>
      </trkpt>
      <trkpt lat="49.04689" lon="6.05862">
        <ele>213.9</ele>
        <time>2011-10-22T11:54:39Z</time>
      </trkpt>
      <trkpt lat="49.04662" lon="6.05853">
        <ele>215.1</ele>
        <time>2011-10-22T11:54:43Z</time>
      </trkpt>
      <trkpt lat="49.04636" lon="6.05846">
        <ele>215</ele>
        <time>2011-10-22T11:54:47Z</time>
      </trkpt>
      <trkpt lat="49.04599" lon="6.05832">
        <ele>215.6</ele>
        <time>2011-10-22T11:54:50Z</time>
      </trkpt>
      <trkpt lat="49.04585" lon="6.05827">
        <ele>215.2</ele>
        <time>2011-10-22T11:54:54Z</time>
      </trkpt>
      <trkpt lat="49.04564" lon="6.0582">
        <ele>215.2</ele>
        <time>2011-10-22T11:54:57Z</time>
      </trkpt>
      <trkpt lat="49.04536" lon="6.05814">
        <ele>215.4</ele>
        <time>2011-10-22T11:55:00Z</time>
      </trkpt>
      <trkpt lat="49.04502" lon="6.058">
        <ele>216</ele>
        <time>2011-10-22T11:55:06Z</time>
      </trkpt>
      <trkpt lat="49.04474" lon="6.05788">
        <ele>216.7</ele>
        <time>2011-10-22T11:55:10Z</time>
      </trkpt>
      <trkpt lat="49.04448" lon="6.05773">
        <ele>216</ele>
        <time>2011-10-22T11:55:14Z</time>
      </trkpt>
      <trkpt lat="49.04422" lon="6.05759">
        <ele>214.6</ele>
        <time>2011-10-22T11:55:18Z</time>
      </trkpt>
      <trkpt lat="49.04391" lon="6.05744">
        <ele>214.4</ele>
        <time>2011-10-22T11:55:22Z</time>
      </trkpt>
      <trkpt lat="49.04363" lon="6.05729">
        <ele>215.2</ele>
        <time>2011-10-22T11:55:26Z</time>
      </trkpt>
      <trkpt lat="49.04335" lon="6.05712">
        <ele>215.3</ele>
        <time>2011-10-22T11:55:30Z</time>
      </trkpt>
      <trkpt lat="49.0431" lon="6.05695">
        <ele>214.4</ele>
        <time>2011-10-22T11:55:34Z</time>
      </trkpt>
      <trkpt lat="49.04278" lon="6.05679">
        <ele>213.7</ele>
        <time>2011-10-22T11:55:38Z</time>
      </trkpt>
      <trkpt lat="49.04252" lon="6.05661">
        <ele>214</ele>
        <time>2011-10-22T11:55:42Z</time>
      </trkpt>
      <trkpt lat="49.04226" lon="6.05646">
        <ele>214.4</ele>
        <time>2011-10-22T11:55:46Z</time>
      </trkpt>
      <trkpt lat="49.0421" lon="6.05634">
        <ele>214.2</ele>
        <time>2011-10-22T11:55:48Z</time>
      </trkpt>
      <trkpt lat="49.04184" lon="6.05619">
        <ele>213.9</ele>
        <time>2011-10-22T11:55:53Z</time>
      </trkpt>
      <trkpt lat="49.04161" lon="6.05605">
        <ele>214.5</ele>
        <time>2011-10-22T11:55:56Z</time>
      </trkpt>
      <trkpt lat="49.04134" lon="6.05589">
        <ele>215.6</ele>
        <time>2011-10-22T11:56:00Z</time>
      </trkpt>
      <trkpt lat="49.04097" lon="6.05564">
        <ele>216</ele>
        <time>2011-10-22T11:56:06Z</time>
      </trkpt>
      <trkpt lat="49.0406" lon="6.05541">
        <ele>215.3</ele>
        <time>2011-10-22T11:56:10Z</time>
      </trkpt>
      <trkpt lat="49.04046" lon="6.05534">
        <ele>213.7</ele>
        <time>2011-10-22T11:56:12Z</time>
      </trkpt>
      <trkpt lat="49.04012" lon="6.05515">
        <ele>214.4</ele>
        <time>2011-10-22T11:56:17Z</time>
      </trkpt>
      <trkpt lat="49.03969" lon="6.05492">
        <ele>215.4</ele>
        <time>2011-10-22T11:56:22Z</time>
      </trkpt>
      <trkpt lat="49.03946" lon="6.05475">
        <ele>216.5</ele>
        <time>2011-10-22T11:56:26Z</time>
      </trkpt>
      <trkpt lat="49.03918" lon="6.05455">
        <ele>218.9</ele>
        <time>2011-10-22T11:56:30Z</time>
      </trkpt>
      <trkpt lat="49.03891" lon="6.05439">
        <ele>219</ele>
        <time>2011-10-22T11:56:33Z</time>
      </trkpt>
      <trkpt lat="49.03857" lon="6.05418">
        <ele>217.3</ele>
        <time>2011-10-22T11:56:37Z</time>
      </trkpt>
      <trkpt lat="49.03835" lon="6.05401">
        <ele>220</ele>
        <time>2011-10-22T11:56:41Z</time>
      </trkpt>
      <trkpt lat="49.03801" lon="6.05381">
        <ele>221.2</ele>
        <time>2011-10-22T11:56:46Z</time>
      </trkpt>
      <trkpt lat="49.03771" lon="6.05361">
        <ele>222.1</ele>
        <time>2011-10-22T11:56:49Z</time>
      </trkpt>
      <trkpt lat="49.03738" lon="6.05337">
        <ele>219.6</ele>
        <time>2011-10-22T11:56:54Z</time>
      </trkpt>
      <trkpt lat="49.03707" lon="6.05315">
        <ele>216.6</ele>
        <time>2011-10-22T11:56:58Z</time>
      </trkpt>
      <trkpt lat="49.03679" lon="6.05297">
        <ele>218.2</ele>
        <time>2011-10-22T11:57:02Z</time>
      </trkpt>
      <trkpt lat="49.03655" lon="6.05288">
        <ele>219.4</ele>
        <time>2011-10-22T11:57:05Z</time>
      </trkpt>
      <trkpt lat="49.03623" lon="6.05272">
        <ele>221</ele>
        <time>2011-10-22T11:57:10Z</time>
      </trkpt>
      <trkpt lat="49.03594" lon="6.05255">
        <ele>221.5</ele>
        <time>2011-10-22T11:57:14Z</time>
      </trkpt>
      <trkpt lat="49.03562" lon="6.05243">
        <ele>222</ele>
        <time>2011-10-22T11:57:18Z</time>
      </trkpt>
      <trkpt lat="49.03534" lon="6.05229">
        <ele>221.6</ele>
        <time>2011-10-22T11:57:22Z</time>
      </trkpt>
      <trkpt lat="49.03509" lon="6.05222">
        <ele>219.8</ele>
        <time>2011-10-22T11:57:25Z</time>
      </trkpt>
      <trkpt lat="49.0347" lon="6.05205">
        <ele>218.6</ele>
        <time>2011-10-22T11:57:30Z</time>
      </trkpt>
      <trkpt lat="49.03438" lon="6.0519">
        <ele>217.9</ele>
        <time>2011-10-22T11:57:34Z</time>
      </trkpt>
      <trkpt lat="49.0341" lon="6.05183">
        <ele>220.1</ele>
        <time>2011-10-22T11:57:37Z</time>
      </trkpt>
      <trkpt lat="49.03377" lon="6.05173">
        <ele>219.4</ele>
        <time>2011-10-22T11:57:42Z</time>
      </trkpt>
      <trkpt lat="49.03353" lon="6.05162">
        <ele>220.3</ele>
        <time>2011-10-22T11:57:45Z</time>
      </trkpt>
      <trkpt lat="49.03322" lon="6.05149">
        <ele>222.8</ele>
        <time>2011-10-22T11:57:49Z</time>
      </trkpt>
      <trkpt lat="49.03282" lon="6.05134">
        <ele>220.8</ele>
        <time>2011-10-22T11:57:54Z</time>
      </trkpt>
      <trkpt lat="49.03251" lon="6.05126">
        <ele>220.6</ele>
        <time>2011-10-22T11:57:58Z</time>
      </trkpt>
      <trkpt lat="49.03221" lon="6.05117">
        <ele>220.4</ele>
        <time>2011-10-22T11:58:02Z</time>
      </trkpt>
      <trkpt lat="49.03189" lon="6.05116">
        <ele>219.7</ele>
        <time>2011-10-22T11:58:06Z</time>
      </trkpt>
      <trkpt lat="49.03164" lon="6.05119">
        <ele>219.7</ele>
        <time>2011-10-22T11:58:09Z</time>
      </trkpt>
      <trkpt lat="49.03134" lon="6.05118">
        <ele>218.8</ele>
        <time>2011-10-22T11:58:13Z</time>
      </trkpt>
      <trkpt lat="49.03113" lon="6.0512">
        <ele>218.8</ele>
        <time>2011-10-22T11:58:17Z</time>
      </trkpt>
      <trkpt lat="49.03082" lon="6.05124">
        <ele>219.6</ele>
        <time>2011-10-22T11:58:22Z</time>
      </trkpt>
      <trkpt lat="49.03056" lon="6.05124">
        <ele>219.7</ele>
        <time>2011-10-22T11:58:26Z</time>
      </trkpt>
      <trkpt lat="49.03029" lon="6.05132">
        <ele>219.9</ele>
        <time>2011-10-22T11:58:30Z</time>
      </trkpt>
      <trkpt lat="49.03011" lon="6.05137">
        <ele>219</ele>
        <time>2011-10-22T11:58:33Z</time>
      </trkpt>
      <trkpt lat="49.02996" lon="6.05144">
        <ele>219.3</ele>
        <time>2011-10-22T11:58:36Z</time>
      </trkpt>
      <trkpt lat="49.02994" lon="6.05167">
        <ele>219</ele>
        <time>2011-10-22T11:58:41Z</time>
      </trkpt>
      <trkpt lat="49.02991" lon="6.05203">
        <ele>223.1</ele>
        <time>2011-10-22T11:58:45Z</time>
      </trkpt>
      <trkpt lat="49.0299" lon="6.05241">
        <ele>225.5</ele>
        <time>2011-10-22T11:58:49Z</time>
      </trkpt>
      <trkpt lat="49.02991" lon="6.05299">
        <ele>224.9</ele>
        <time>2011-10-22T11:58:54Z</time>
      </trkpt>
      <trkpt lat="49.02991" lon="6.0533">
        <ele>226.6</ele>
        <time>2011-10-22T11:58:57Z</time>
      </trkpt>
      <trkpt lat="49.02993" lon="6.05394">
        <ele>228.7</ele>
        <time>2011-10-22T11:59:02Z</time>
      </trkpt>
      <trkpt lat="49.02996" lon="6.05446">
        <ele>228.6</ele>
        <time>2011-10-22T11:59:06Z</time>
      </trkpt>
      <trkpt lat="49.02997" lon="6.05493">
        <ele>228.6</ele>
        <time>2011-10-22T11:59:10Z</time>
      </trkpt>
      <trkpt lat="49.02996" lon="6.05522">
        <ele>230.3</ele>
        <time>2011-10-22T11:59:13Z</time>
      </trkpt>
      <trkpt lat="49.0297" lon="6.05557">
        <ele>230.6</ele>
        <time>2011-10-22T11:59:22Z</time>
      </trkpt>
      <trkpt lat="49.02936" lon="6.05558">
        <ele>232.3</ele>
        <time>2011-10-22T11:59:26Z</time>
      </trkpt>
      <trkpt lat="49.0291" lon="6.05561">
        <ele>230.4</ele>
        <time>2011-10-22T11:59:29Z</time>
      </trkpt>
      <trkpt lat="49.02881" lon="6.05566">
        <ele>229.3</ele>
        <time>2011-10-22T11:59:33Z</time>
      </trkpt>
      <trkpt lat="49.02852" lon="6.05572">
        <ele>227.3</ele>
        <time>2011-10-22T11:59:37Z</time>
      </trkpt>
      <trkpt lat="49.02827" lon="6.05574">
        <ele>227</ele>
        <time>2011-10-22T11:59:41Z</time>
      </trkpt>
      <trkpt lat="49.02816" lon="6.05584">
        <ele>226</ele>
        <time>2011-10-22T11:59:45Z</time>
      </trkpt>
      <trkpt lat="49.0281" lon="6.05591">
        <ele>226</ele>
        <time>2011-10-22T11:59:49Z</time>
      </trkpt>
      <trkpt lat="49.02766" lon="6.05596">
        <ele>225.9</ele>
        <time>2011-10-22T11:59:54Z</time>
      </trkpt>
      <trkpt lat="49.02751" lon="6.05595">
        <ele>224.6</ele>
        <time>2011-10-22T11:59:56Z</time>
      </trkpt>
      <trkpt lat="49.02715" lon="6.05601">
        <ele>224.3</ele>
        <time>2011-10-22T12:00:02Z</time>
      </trkpt>
      <trkpt lat="49.02688" lon="6.05599">
        <ele>224.8</ele>
        <time>2011-10-22T12:00:06Z</time>
      </trkpt>
      <trkpt lat="49.02663" lon="6.05596">
        <ele>224.7</ele>
        <time>2011-10-22T12:00:10Z</time>
      </trkpt>
      <trkpt lat="49.02644" lon="6.05594">
        <ele>225</ele>
        <time>2011-10-22T12:00:12Z</time>
      </trkpt>
      <trkpt lat="49.02583" lon="6.05591">
        <ele>224.3</ele>
        <time>2011-10-22T12:00:18Z</time>
      </trkpt>
      <trkpt lat="49.02551" lon="6.05591">
        <ele>223.5</ele>
        <time>2011-10-22T12:00:21Z</time>
      </trkpt>
      <trkpt lat="49.02506" lon="6.05587">
        <ele>223.2</ele>
        <time>2011-10-22T12:00:26Z</time>
      </trkpt>
      <trkpt lat="49.02478" lon="6.05585">
        <ele>225.2</ele>
        <time>2011-10-22T12:00:30Z</time>
      </trkpt>
      <trkpt lat="49.0244" lon="6.05587">
        <ele>225</ele>
        <time>2011-10-22T12:00:34Z</time>
      </trkpt>
      <trkpt lat="49.02406" lon="6.05589">
        <ele>223.8</ele>
        <time>2011-10-22T12:00:38Z</time>
      </trkpt>
      <trkpt lat="49.02382" lon="6.05594">
        <ele>223.4</ele>
        <time>2011-10-22T12:00:41Z</time>
      </trkpt>
      <trkpt lat="49.02353" lon="6.05608">
        <ele>223.2</ele>
        <time>2011-10-22T12:00:46Z</time>
      </trkpt>
      <trkpt lat="49.02323" lon="6.05618">
        <ele>224.4</ele>
        <time>2011-10-22T12:00:50Z</time>
      </trkpt>
      <trkpt lat="49.02309" lon="6.05625">
        <ele>224.3</ele>
        <time>2011-10-22T12:00:52Z</time>
      </trkpt>
      <trkpt lat="49.02275" lon="6.05649">
        <ele>224.7</ele>
        <time>2011-10-22T12:00:58Z</time>
      </trkpt>
      <trkpt lat="49.02241" lon="6.05664">
        <ele>224.8</ele>
        <time>2011-10-22T12:01:02Z</time>
      </trkpt>
      <trkpt lat="49.02195" lon="6.05679">
        <ele>225.3</ele>
        <time>2011-10-22T12:01:06Z</time>
      </trkpt>
      <trkpt lat="49.02161" lon="6.05689">
        <ele>223.9</ele>
        <time>2011-10-22T12:01:10Z</time>
      </trkpt>
      <trkpt lat="49.02148" lon="6.05695">
        <ele>223.8</ele>
        <time>2011-10-22T12:01:13Z</time>
      </trkpt>
      <trkpt lat="49.02123" lon="6.05697">
        <ele>223.2</ele>
        <time>2011-10-22T12:01:18Z</time>
      </trkpt>
      <trkpt lat="49.02076" lon="6.05694">
        <ele>223.6</ele>
        <time>2011-10-22T12:01:22Z</time>
      </trkpt>
      <trkpt lat="49.02026" lon="6.05681">
        <ele>224.6</ele>
        <time>2011-10-22T12:01:27Z</time>
      </trkpt>
      <trkpt lat="49.02002" lon="6.05676">
        <ele>227.5</ele>
        <time>2011-10-22T12:01:29Z</time>
      </trkpt>
      <trkpt lat="49.01972" lon="6.05664">
        <ele>228</ele>
        <time>2011-10-22T12:01:34Z</time>
      </trkpt>
      <trkpt lat="49.01941" lon="6.05646">
        <ele>227.9</ele>
        <time>2011-10-22T12:01:39Z</time>
      </trkpt>
      <trkpt lat="49.01924" lon="6.05633">
        <ele>227.7</ele>
        <time>2011-10-22T12:01:42Z</time>
      </trkpt>
      <trkpt lat="49.01913" lon="6.05618">
        <ele>227.7</ele>
        <time>2011-10-22T12:01:46Z</time>
      </trkpt>
      <trkpt lat="49.01864" lon="6.0559">
        <ele>227.8</ele>
        <time>2011-10-22T12:01:51Z</time>
      </trkpt>
      <trkpt lat="49.0182" lon="6.05565">
        <ele>226.3</ele>
        <time>2011-10-22T12:01:55Z</time>
      </trkpt>
      <trkpt lat="49.01779" lon="6.05541">
        <ele>225.2</ele>
        <time>2011-10-22T12:01:59Z</time>
      </trkpt>
      <trkpt lat="49.01745" lon="6.05517">
        <ele>224.8</ele>
        <time>2011-10-22T12:02:03Z</time>
      </trkpt>
      <trkpt lat="49.01719" lon="6.05494">
        <ele>225.1</ele>
        <time>2011-10-22T12:02:07Z</time>
      </trkpt>
      <trkpt lat="49.01685" lon="6.0547">
        <ele>228.3</ele>
        <time>2011-10-22T12:02:11Z</time>
      </trkpt>
      <trkpt lat="49.01656" lon="6.0545">
        <ele>228.6</ele>
        <time>2011-10-22T12:02:15Z</time>
      </trkpt>
      <trkpt lat="49.01626" lon="6.05433">
        <ele>228.2</ele>
        <time>2011-10-22T12:02:19Z</time>
      </trkpt>
      <trkpt lat="49.01594" lon="6.05419">
        <ele>226.8</ele>
        <time>2011-10-22T12:02:23Z</time>
      </trkpt>
      <trkpt lat="49.01571" lon="6.05412">
        <ele>226</ele>
        <time>2011-10-22T12:02:26Z</time>
      </trkpt>
      <trkpt lat="49.01531" lon="6.05402">
        <ele>225.5</ele>
        <time>2011-10-22T12:02:31Z</time>
      </trkpt>
      <trkpt lat="49.01499" lon="6.05393">
        <ele>225</ele>
        <time>2011-10-22T12:02:35Z</time>
      </trkpt>
      <trkpt lat="49.01476" lon="6.05386">
        <ele>224.6</ele>
        <time>2011-10-22T12:02:38Z</time>
      </trkpt>
      <trkpt lat="49.01444" lon="6.05377">
        <ele>224.9</ele>
        <time>2011-10-22T12:02:42Z</time>
      </trkpt>
      <trkpt lat="49.01406" lon="6.05367">
        <ele>225.4</ele>
        <time>2011-10-22T12:02:47Z</time>
      </trkpt>
      <trkpt lat="49.01391" lon="6.05363">
        <ele>225.4</ele>
        <time>2011-10-22T12:02:49Z</time>
      </trkpt>
      <trkpt lat="49.01358" lon="6.05352">
        <ele>225.6</ele>
        <time>2011-10-22T12:02:54Z</time>
      </trkpt>
      <trkpt lat="49.01318" lon="6.05336">
        <ele>225.3</ele>
        <time>2011-10-22T12:02:59Z</time>
      </trkpt>
      <trkpt lat="49.01296" lon="6.05333">
        <ele>225.3</ele>
        <time>2011-10-22T12:03:01Z</time>
      </trkpt>
      <trkpt lat="49.01261" lon="6.05325">
        <ele>224.8</ele>
        <time>2011-10-22T12:03:07Z</time>
      </trkpt>
      <trkpt lat="49.01227" lon="6.05314">
        <ele>224.4</ele>
        <time>2011-10-22T12:03:11Z</time>
      </trkpt>
      <trkpt lat="49.01203" lon="6.05308">
        <ele>225.9</ele>
        <time>2011-10-22T12:03:14Z</time>
      </trkpt>
      <trkpt lat="49.01167" lon="6.053">
        <ele>225.7</ele>
        <time>2011-10-22T12:03:18Z</time>
      </trkpt>
      <trkpt lat="49.01135" lon="6.05292">
        <ele>225.5</ele>
        <time>2011-10-22T12:03:22Z</time>
      </trkpt>
      <trkpt lat="49.01111" lon="6.05284">
        <ele>224.9</ele>
        <time>2011-10-22T12:03:25Z</time>
      </trkpt>
      <trkpt lat="49.01064" lon="6.0527">
        <ele>225.2</ele>
        <time>2011-10-22T12:03:30Z</time>
      </trkpt>
      <trkpt lat="49.01029" lon="6.0526">
        <ele>225.6</ele>
        <time>2011-10-22T12:03:34Z</time>
      </trkpt>
      <trkpt lat="49.00997" lon="6.05255">
        <ele>226</ele>
        <time>2011-10-22T12:03:38Z</time>
      </trkpt>
      <trkpt lat="49.00969" lon="6.05249">
        <ele>225.8</ele>
        <time>2011-10-22T12:03:41Z</time>
      </trkpt>
      <trkpt lat="49.00941" lon="6.05237">
        <ele>227.1</ele>
        <time>2011-10-22T12:03:44Z</time>
      </trkpt>
      <trkpt lat="49.00917" lon="6.05224">
        <ele>227.3</ele>
        <time>2011-10-22T12:03:49Z</time>
      </trkpt>
      <trkpt lat="49.00886" lon="6.05215">
        <ele>227.8</ele>
        <time>2011-10-22T12:03:53Z</time>
      </trkpt>
      <trkpt lat="49.00858" lon="6.05206">
        <ele>227.3</ele>
        <time>2011-10-22T12:03:57Z</time>
      </trkpt>
      <trkpt lat="49.00824" lon="6.05201">
        <ele>226.2</ele>
        <time>2011-10-22T12:04:02Z</time>
      </trkpt>
      <trkpt lat="49.008" lon="6.05194">
        <ele>224.9</ele>
        <time>2011-10-22T12:04:05Z</time>
      </trkpt>
      <trkpt lat="49.00762" lon="6.05184">
        <ele>224.5</ele>
        <time>2011-10-22T12:04:10Z</time>
      </trkpt>
      <trkpt lat="49.00731" lon="6.05174">
        <ele>224.1</ele>
        <time>2011-10-22T12:04:14Z</time>
      </trkpt>
      <trkpt lat="49.00701" lon="6.05167">
        <ele>225.9</ele>
        <time>2011-10-22T12:04:18Z</time>
      </trkpt>
      <trkpt lat="49.00669" lon="6.05155">
        <ele>225.9</ele>
        <time>2011-10-22T12:04:22Z</time>
      </trkpt>
      <trkpt lat="49.0063" lon="6.05145">
        <ele>226.9</ele>
        <time>2011-10-22T12:04:26Z</time>
      </trkpt>
      <trkpt lat="49.006" lon="6.05139">
        <ele>226.6</ele>
        <time>2011-10-22T12:04:30Z</time>
      </trkpt>
      <trkpt lat="49.00569" lon="6.0513">
        <ele>226</ele>
        <time>2011-10-22T12:04:34Z</time>
      </trkpt>
      <trkpt lat="49.00534" lon="6.05122">
        <ele>226.7</ele>
        <time>2011-10-22T12:04:38Z</time>
      </trkpt>
      <trkpt lat="49.00504" lon="6.05111">
        <ele>229.6</ele>
        <time>2011-10-22T12:04:42Z</time>
      </trkpt>
      <trkpt lat="49.00478" lon="6.05104">
        <ele>229.6</ele>
        <time>2011-10-22T12:04:46Z</time>
      </trkpt>
      <trkpt lat="49.00471" lon="6.05103">
        <ele>229.8</ele>
        <time>2011-10-22T12:04:47Z</time>
      </trkpt>
      <trkpt lat="49.0042" lon="6.05087">
        <ele>229.4</ele>
        <time>2011-10-22T12:04:54Z</time>
      </trkpt>
      <trkpt lat="49.0038" lon="6.05077">
        <ele>231.2</ele>
        <time>2011-10-22T12:04:58Z</time>
      </trkpt>
      <trkpt lat="49.00342" lon="6.05066">
        <ele>231.3</ele>
        <time>2011-10-22T12:05:02Z</time>
      </trkpt>
      <trkpt lat="49.0031" lon="6.05058">
        <ele>232.2</ele>
        <time>2011-10-22T12:05:06Z</time>
      </trkpt>
      <trkpt lat="49.00286" lon="6.05052">
        <ele>231.8</ele>
        <time>2011-10-22T12:05:09Z</time>
      </trkpt>
      <trkpt lat="49.0025" lon="6.0504">
        <ele>232.3</ele>
        <time>2011-10-22T12:05:14Z</time>
      </trkpt>
      <trkpt lat="49.00219" lon="6.05032">
        <ele>232.3</ele>
        <time>2011-10-22T12:05:18Z</time>
      </trkpt>
      <trkpt lat="49.00187" lon="6.05022">
        <ele>233.5</ele>
        <time>2011-10-22T12:05:22Z</time>
      </trkpt>
      <trkpt lat="49.00156" lon="6.05015">
        <ele>233.5</ele>
        <time>2011-10-22T12:05:26Z</time>
      </trkpt>
      <trkpt lat="49.00133" lon="6.05008">
        <ele>233.6</ele>
        <time>2011-10-22T12:05:29Z</time>
      </trkpt>
      <trkpt lat="49.00111" lon="6.05001">
        <ele>233.6</ele>
        <time>2011-10-22T12:05:32Z</time>
      </trkpt>
      <trkpt lat="49.00075" lon="6.0499">
        <ele>234.3</ele>
        <time>2011-10-22T12:05:37Z</time>
      </trkpt>
      <trkpt lat="49.00045" lon="6.04979">
        <ele>235</ele>
        <time>2011-10-22T12:05:41Z</time>
      </trkpt>
      <trkpt lat="49.00015" lon="6.04972">
        <ele>235.1</ele>
        <time>2011-10-22T12:05:45Z</time>
      </trkpt>
      <trkpt lat="48.99972" lon="6.04963">
        <ele>235.6</ele>
        <time>2011-10-22T12:05:50Z</time>
      </trkpt>
      <trkpt lat="48.99941" lon="6.04952">
        <ele>235.6</ele>
        <time>2011-10-22T12:05:54Z</time>
      </trkpt>
      <trkpt lat="48.99911" lon="6.04943">
        <ele>235.3</ele>
        <time>2011-10-22T12:05:58Z</time>
      </trkpt>
      <trkpt lat="48.99885" lon="6.04936">
        <ele>234.3</ele>
        <time>2011-10-22T12:06:01Z</time>
      </trkpt>
      <trkpt lat="48.99834" lon="6.04924">
        <ele>233.1</ele>
        <time>2011-10-22T12:06:06Z</time>
      </trkpt>
      <trkpt lat="48.99797" lon="6.04915">
        <ele>232.4</ele>
        <time>2011-10-22T12:06:10Z</time>
      </trkpt>
      <trkpt lat="48.99764" lon="6.04906">
        <ele>232.3</ele>
        <time>2011-10-22T12:06:14Z</time>
      </trkpt>
      <trkpt lat="48.99729" lon="6.04896">
        <ele>231.4</ele>
        <time>2011-10-22T12:06:18Z</time>
      </trkpt>
      <trkpt lat="48.99702" lon="6.04883">
        <ele>231.2</ele>
        <time>2011-10-22T12:06:21Z</time>
      </trkpt>
      <trkpt lat="48.99669" lon="6.04876">
        <ele>232.4</ele>
        <time>2011-10-22T12:06:25Z</time>
      </trkpt>
      <trkpt lat="48.99635" lon="6.0486">
        <ele>232.8</ele>
        <time>2011-10-22T12:06:29Z</time>
      </trkpt>
      <trkpt lat="48.99592" lon="6.0485">
        <ele>231.6</ele>
        <time>2011-10-22T12:06:34Z</time>
      </trkpt>
      <trkpt lat="48.99556" lon="6.04843">
        <ele>231.6</ele>
        <time>2011-10-22T12:06:38Z</time>
      </trkpt>
      <trkpt lat="48.99525" lon="6.04835">
        <ele>231.6</ele>
        <time>2011-10-22T12:06:42Z</time>
      </trkpt>
      <trkpt lat="48.99483" lon="6.0483">
        <ele>229.6</ele>
        <time>2011-10-22T12:06:46Z</time>
      </trkpt>
      <trkpt lat="48.99444" lon="6.04827">
        <ele>226.9</ele>
        <time>2011-10-22T12:06:50Z</time>
      </trkpt>
      <trkpt lat="48.99415" lon="6.04825">
        <ele>227.2</ele>
        <time>2011-10-22T12:06:53Z</time>
      </trkpt>
      <trkpt lat="48.99372" lon="6.04823">
        <ele>224.6</ele>
        <time>2011-10-22T12:06:58Z</time>
      </trkpt>
      <trkpt lat="48.99341" lon="6.0482">
        <ele>224</ele>
        <time>2011-10-22T12:07:02Z</time>
      </trkpt>
      <trkpt lat="48.99303" lon="6.04814">
        <ele>223.8</ele>
        <time>2011-10-22T12:07:06Z</time>
      </trkpt>
      <trkpt lat="48.99268" lon="6.04809">
        <ele>224.4</ele>
        <time>2011-10-22T12:07:10Z</time>
      </trkpt>
      <trkpt lat="48.99232" lon="6.04804">
        <ele>226.3</ele>
        <time>2011-10-22T12:07:14Z</time>
      </trkpt>
      <trkpt lat="48.99193" lon="6.048">
        <ele>228.8</ele>
        <time>2011-10-22T12:07:18Z</time>
      </trkpt>
      <trkpt lat="48.99159" lon="6.04794">
        <ele>230.9</ele>
        <time>2011-10-22T12:07:22Z</time>
      </trkpt>
      <trkpt lat="48.99131" lon="6.0479">
        <ele>231.2</ele>
        <time>2011-10-22T12:07:25Z</time>
      </trkpt>
      <trkpt lat="48.99088" lon="6.04783">
        <ele>230.1</ele>
        <time>2011-10-22T12:07:30Z</time>
      </trkpt>
      <trkpt lat="48.9906" lon="6.0478">
        <ele>229.4</ele>
        <time>2011-10-22T12:07:33Z</time>
      </trkpt>
      <trkpt lat="48.99014" lon="6.04771">
        <ele>229.3</ele>
        <time>2011-10-22T12:07:38Z</time>
      </trkpt>
      <trkpt lat="48.98985" lon="6.04763">
        <ele>231.9</ele>
        <time>2011-10-22T12:07:42Z</time>
      </trkpt>
      <trkpt lat="48.9895" lon="6.04762">
        <ele>232.4</ele>
        <time>2011-10-22T12:07:46Z</time>
      </trkpt>
      <trkpt lat="48.98916" lon="6.04759">
        <ele>233.2</ele>
        <time>2011-10-22T12:07:50Z</time>
      </trkpt>
      <trkpt lat="48.98884" lon="6.04755">
        <ele>234.3</ele>
        <time>2011-10-22T12:07:54Z</time>
      </trkpt>
      <trkpt lat="48.98863" lon="6.04752">
        <ele>237.9</ele>
        <time>2011-10-22T12:07:57Z</time>
      </trkpt>
      <trkpt lat="48.98823" lon="6.0475">
        <ele>240.5</ele>
        <time>2011-10-22T12:08:02Z</time>
      </trkpt>
      <trkpt lat="48.98787" lon="6.04745">
        <ele>240.8</ele>
        <time>2011-10-22T12:08:06Z</time>
      </trkpt>
      <trkpt lat="48.98752" lon="6.04739">
        <ele>240</ele>
        <time>2011-10-22T12:08:10Z</time>
      </trkpt>
      <trkpt lat="48.98715" lon="6.04735">
        <ele>239.5</ele>
        <time>2011-10-22T12:08:14Z</time>
      </trkpt>
      <trkpt lat="48.98688" lon="6.04731">
        <ele>239.7</ele>
        <time>2011-10-22T12:08:17Z</time>
      </trkpt>
      <trkpt lat="48.98651" lon="6.04727">
        <ele>238.4</ele>
        <time>2011-10-22T12:08:21Z</time>
      </trkpt>
      <trkpt lat="48.98606" lon="6.04721">
        <ele>235.6</ele>
        <time>2011-10-22T12:08:26Z</time>
      </trkpt>
      <trkpt lat="48.98577" lon="6.0472">
        <ele>234.7</ele>
        <time>2011-10-22T12:08:29Z</time>
      </trkpt>
      <trkpt lat="48.9853" lon="6.04711">
        <ele>234.7</ele>
        <time>2011-10-22T12:08:34Z</time>
      </trkpt>
      <trkpt lat="48.9849" lon="6.04706">
        <ele>234.8</ele>
        <time>2011-10-22T12:08:38Z</time>
      </trkpt>
      <trkpt lat="48.98451" lon="6.04699">
        <ele>233.4</ele>
        <time>2011-10-22T12:08:42Z</time>
      </trkpt>
      <trkpt lat="48.98421" lon="6.04696">
        <ele>229.9</ele>
        <time>2011-10-22T12:08:45Z</time>
      </trkpt>
      <trkpt lat="48.98372" lon="6.04689">
        <ele>230.4</ele>
        <time>2011-10-22T12:08:50Z</time>
      </trkpt>
      <trkpt lat="48.98333" lon="6.04689">
        <ele>230.2</ele>
        <time>2011-10-22T12:08:54Z</time>
      </trkpt>
      <trkpt lat="48.98296" lon="6.04694">
        <ele>230.9</ele>
        <time>2011-10-22T12:08:58Z</time>
      </trkpt>
      <trkpt lat="48.9827" lon="6.04704">
        <ele>231.7</ele>
        <time>2011-10-22T12:09:01Z</time>
      </trkpt>
      <trkpt lat="48.98224" lon="6.04719">
        <ele>231.6</ele>
        <time>2011-10-22T12:09:06Z</time>
      </trkpt>
      <trkpt lat="48.98186" lon="6.04727">
        <ele>231</ele>
        <time>2011-10-22T12:09:10Z</time>
      </trkpt>
      <trkpt lat="48.98154" lon="6.04735">
        <ele>231.2</ele>
        <time>2011-10-22T12:09:14Z</time>
      </trkpt>
      <trkpt lat="48.98132" lon="6.0474">
        <ele>232.3</ele>
        <time>2011-10-22T12:09:17Z</time>
      </trkpt>
      <trkpt lat="48.98094" lon="6.04749">
        <ele>233.5</ele>
        <time>2011-10-22T12:09:22Z</time>
      </trkpt>
      <trkpt lat="48.98065" lon="6.04757">
        <ele>235.5</ele>
        <time>2011-10-22T12:09:26Z</time>
      </trkpt>
      <trkpt lat="48.98037" lon="6.04765">
        <ele>234.5</ele>
        <time>2011-10-22T12:09:30Z</time>
      </trkpt>
      <trkpt lat="48.9803" lon="6.04767">
        <ele>234.9</ele>
        <time>2011-10-22T12:09:31Z</time>
      </trkpt>
      <trkpt lat="48.98007" lon="6.04772">
        <ele>234.8</ele>
        <time>2011-10-22T12:09:35Z</time>
      </trkpt>
      <trkpt lat="48.97984" lon="6.0478">
        <ele>234.7</ele>
        <time>2011-10-22T12:09:39Z</time>
      </trkpt>
      <trkpt lat="48.97946" lon="6.04788">
        <ele>234.5</ele>
        <time>2011-10-22T12:09:46Z</time>
      </trkpt>
      <trkpt lat="48.9793" lon="6.04798">
        <ele>233.6</ele>
        <time>2011-10-22T12:09:49Z</time>
      </trkpt>
      <trkpt lat="48.97917" lon="6.04799">
        <ele>233.6</ele>
        <time>2011-10-22T12:09:51Z</time>
      </trkpt>
      <trkpt lat="48.97865" lon="6.04815">
        <ele>234.3</ele>
        <time>2011-10-22T12:09:58Z</time>
      </trkpt>
      <trkpt lat="48.97835" lon="6.04822">
        <ele>234.6</ele>
        <time>2011-10-22T12:10:01Z</time>
      </trkpt>
      <trkpt lat="48.97801" lon="6.04832">
        <ele>232.6</ele>
        <time>2011-10-22T12:10:06Z</time>
      </trkpt>
      <trkpt lat="48.97773" lon="6.04834">
        <ele>236.3</ele>
        <time>2011-10-22T12:10:10Z</time>
      </trkpt>
      <trkpt lat="48.97746" lon="6.04844">
        <ele>233.5</ele>
        <time>2011-10-22T12:10:14Z</time>
      </trkpt>
      <trkpt lat="48.9772" lon="6.04853">
        <ele>233.5</ele>
        <time>2011-10-22T12:10:18Z</time>
      </trkpt>
      <trkpt lat="48.977" lon="6.04861">
        <ele>234</ele>
        <time>2011-10-22T12:10:21Z</time>
      </trkpt>
      <trkpt lat="48.97661" lon="6.04872">
        <ele>236.8</ele>
        <time>2011-10-22T12:10:26Z</time>
      </trkpt>
      <trkpt lat="48.97641" lon="6.04874">
        <ele>236</ele>
        <time>2011-10-22T12:10:29Z</time>
      </trkpt>
      <trkpt lat="48.97609" lon="6.04882">
        <ele>236.2</ele>
        <time>2011-10-22T12:10:33Z</time>
      </trkpt>
      <trkpt lat="48.97577" lon="6.04896">
        <ele>235.2</ele>
        <time>2011-10-22T12:10:38Z</time>
      </trkpt>
      <trkpt lat="48.97543" lon="6.04904">
        <ele>234.8</ele>
        <time>2011-10-22T12:10:42Z</time>
      </trkpt>
      <trkpt lat="48.97511" lon="6.04911">
        <ele>233.5</ele>
        <time>2011-10-22T12:10:46Z</time>
      </trkpt>
      <trkpt lat="48.97482" lon="6.04919">
        <ele>232.4</ele>
        <time>2011-10-22T12:10:50Z</time>
      </trkpt>
      <trkpt lat="48.97451" lon="6.0493">
        <ele>231.2</ele>
        <time>2011-10-22T12:10:54Z</time>
      </trkpt>
      <trkpt lat="48.97434" lon="6.04935">
        <ele>232.9</ele>
        <time>2011-10-22T12:10:56Z</time>
      </trkpt>
      <trkpt lat="48.97386" lon="6.04943">
        <ele>231.3</ele>
        <time>2011-10-22T12:11:02Z</time>
      </trkpt>
      <trkpt lat="48.9736" lon="6.04952">
        <ele>232.1</ele>
        <time>2011-10-22T12:11:05Z</time>
      </trkpt>
      <trkpt lat="48.97324" lon="6.04962">
        <ele>232.3</ele>
        <time>2011-10-22T12:11:10Z</time>
      </trkpt>
      <trkpt lat="48.97291" lon="6.04972">
        <ele>231</ele>
        <time>2011-10-22T12:11:13Z</time>
      </trkpt>
      <trkpt lat="48.97268" lon="6.04985">
        <ele>230.5</ele>
        <time>2011-10-22T12:11:16Z</time>
      </trkpt>
      <trkpt lat="48.97249" lon="6.04987">
        <ele>230.5</ele>
        <time>2011-10-22T12:11:19Z</time>
      </trkpt>
      <trkpt lat="48.97215" lon="6.04994">
        <ele>230.8</ele>
        <time>2011-10-22T12:11:24Z</time>
      </trkpt>
      <trkpt lat="48.97177" lon="6.05">
        <ele>232.1</ele>
        <time>2011-10-22T12:11:29Z</time>
      </trkpt>
      <trkpt lat="48.97146" lon="6.05008">
        <ele>231.8</ele>
        <time>2011-10-22T12:11:33Z</time>
      </trkpt>
      <trkpt lat="48.97122" lon="6.05014">
        <ele>232.3</ele>
        <time>2011-10-22T12:11:36Z</time>
      </trkpt>
      <trkpt lat="48.97085" lon="6.05027">
        <ele>233.5</ele>
        <time>2011-10-22T12:11:41Z</time>
      </trkpt>
      <trkpt lat="48.97053" lon="6.05034">
        <ele>234.9</ele>
        <time>2011-10-22T12:11:45Z</time>
      </trkpt>
      <trkpt lat="48.9702" lon="6.05042">
        <ele>234.3</ele>
        <time>2011-10-22T12:11:49Z</time>
      </trkpt>
      <trkpt lat="48.96991" lon="6.0505">
        <ele>234.6</ele>
        <time>2011-10-22T12:11:53Z</time>
      </trkpt>
      <trkpt lat="48.96984" lon="6.05052">
        <ele>234.7</ele>
        <time>2011-10-22T12:11:55Z</time>
      </trkpt>
      <trkpt lat="48.96936" lon="6.05071">
        <ele>234.6</ele>
        <time>2011-10-22T12:12:01Z</time>
      </trkpt>
      <trkpt lat="48.96904" lon="6.05079">
        <ele>234.1</ele>
        <time>2011-10-22T12:12:05Z</time>
      </trkpt>
      <trkpt lat="48.96874" lon="6.05087">
        <ele>233.4</ele>
        <time>2011-10-22T12:12:09Z</time>
      </trkpt>
      <trkpt lat="48.96842" lon="6.05096">
        <ele>232.4</ele>
        <time>2011-10-22T12:12:13Z</time>
      </trkpt>
      <trkpt lat="48.96809" lon="6.05102">
        <ele>232.1</ele>
        <time>2011-10-22T12:12:17Z</time>
      </trkpt>
      <trkpt lat="48.96777" lon="6.05111">
        <ele>231.5</ele>
        <time>2011-10-22T12:12:21Z</time>
      </trkpt>
      <trkpt lat="48.96745" lon="6.05115">
        <ele>231.9</ele>
        <time>2011-10-22T12:12:25Z</time>
      </trkpt>
      <trkpt lat="48.96711" lon="6.05126">
        <ele>231.4</ele>
        <time>2011-10-22T12:12:29Z</time>
      </trkpt>
      <trkpt lat="48.9669" lon="6.0514">
        <ele>231.3</ele>
        <time>2011-10-22T12:12:32Z</time>
      </trkpt>
      <trkpt lat="48.96651" lon="6.05168">
        <ele>233.7</ele>
        <time>2011-10-22T12:12:37Z</time>
      </trkpt>
      <trkpt lat="48.96623" lon="6.05204">
        <ele>230.6</ele>
        <time>2011-10-22T12:12:41Z</time>
      </trkpt>
      <trkpt lat="48.96586" lon="6.05234">
        <ele>229</ele>
        <time>2011-10-22T12:12:46Z</time>
      </trkpt>
      <trkpt lat="48.96558" lon="6.0526">
        <ele>229.9</ele>
        <time>2011-10-22T12:12:50Z</time>
      </trkpt>
      <trkpt lat="48.96536" lon="6.05276">
        <ele>230.1</ele>
        <time>2011-10-22T12:12:53Z</time>
      </trkpt>
      <trkpt lat="48.96507" lon="6.05298">
        <ele>231.5</ele>
        <time>2011-10-22T12:12:57Z</time>
      </trkpt>
      <trkpt lat="48.9647" lon="6.05329">
        <ele>230.7</ele>
        <time>2011-10-22T12:13:02Z</time>
      </trkpt>
      <trkpt lat="48.96442" lon="6.05356">
        <ele>230.6</ele>
        <time>2011-10-22T12:13:06Z</time>
      </trkpt>
      <trkpt lat="48.96412" lon="6.05381">
        <ele>232.1</ele>
        <time>2011-10-22T12:13:10Z</time>
      </trkpt>
      <trkpt lat="48.96382" lon="6.05409">
        <ele>232.5</ele>
        <time>2011-10-22T12:13:14Z</time>
      </trkpt>
      <trkpt lat="48.96361" lon="6.05433">
        <ele>232.9</ele>
        <time>2011-10-22T12:13:17Z</time>
      </trkpt>
      <trkpt lat="48.9632" lon="6.05464">
        <ele>233.5</ele>
        <time>2011-10-22T12:13:22Z</time>
      </trkpt>
      <trkpt lat="48.9629" lon="6.0548">
        <ele>233.7</ele>
        <time>2011-10-22T12:13:26Z</time>
      </trkpt>
      <trkpt lat="48.96274" lon="6.05491">
        <ele>233.3</ele>
        <time>2011-10-22T12:13:28Z</time>
      </trkpt>
      <trkpt lat="48.96223" lon="6.05526">
        <ele>232.2</ele>
        <time>2011-10-22T12:13:34Z</time>
      </trkpt>
      <trkpt lat="48.96201" lon="6.05541">
        <ele>231.6</ele>
        <time>2011-10-22T12:13:37Z</time>
      </trkpt>
      <trkpt lat="48.96172" lon="6.05561">
        <ele>231.9</ele>
        <time>2011-10-22T12:13:41Z</time>
      </trkpt>
      <trkpt lat="48.96139" lon="6.0559">
        <ele>230.2</ele>
        <time>2011-10-22T12:13:46Z</time>
      </trkpt>
      <trkpt lat="48.96108" lon="6.05609">
        <ele>229</ele>
        <time>2011-10-22T12:13:50Z</time>
      </trkpt>
      <trkpt lat="48.96083" lon="6.05627">
        <ele>229.8</ele>
        <time>2011-10-22T12:13:54Z</time>
      </trkpt>
      <trkpt lat="48.96053" lon="6.05649">
        <ele>231.2</ele>
        <time>2011-10-22T12:13:58Z</time>
      </trkpt>
      <trkpt lat="48.96024" lon="6.05669">
        <ele>230</ele>
        <time>2011-10-22T12:14:02Z</time>
      </trkpt>
      <trkpt lat="48.96001" lon="6.05683">
        <ele>229.8</ele>
        <time>2011-10-22T12:14:05Z</time>
      </trkpt>
      <trkpt lat="48.9597" lon="6.05704">
        <ele>227.9</ele>
        <time>2011-10-22T12:14:09Z</time>
      </trkpt>
      <trkpt lat="48.9593" lon="6.05729">
        <ele>226.8</ele>
        <time>2011-10-22T12:14:14Z</time>
      </trkpt>
      <trkpt lat="48.95907" lon="6.05744">
        <ele>225.9</ele>
        <time>2011-10-22T12:14:17Z</time>
      </trkpt>
      <trkpt lat="48.95868" lon="6.0577">
        <ele>225.7</ele>
        <time>2011-10-22T12:14:22Z</time>
      </trkpt>
      <trkpt lat="48.95838" lon="6.05786">
        <ele>225.1</ele>
        <time>2011-10-22T12:14:26Z</time>
      </trkpt>
      <trkpt lat="48.95811" lon="6.05805">
        <ele>224.2</ele>
        <time>2011-10-22T12:14:30Z</time>
      </trkpt>
      <trkpt lat="48.95778" lon="6.05826">
        <ele>227</ele>
        <time>2011-10-22T12:14:34Z</time>
      </trkpt>
      <trkpt lat="48.95744" lon="6.05843">
        <ele>226.1</ele>
        <time>2011-10-22T12:14:38Z</time>
      </trkpt>
      <trkpt lat="48.95712" lon="6.05852">
        <ele>226.5</ele>
        <time>2011-10-22T12:14:42Z</time>
      </trkpt>
      <trkpt lat="48.95677" lon="6.05848">
        <ele>225.8</ele>
        <time>2011-10-22T12:14:46Z</time>
      </trkpt>
      <trkpt lat="48.95645" lon="6.05842">
        <ele>224.9</ele>
        <time>2011-10-22T12:14:50Z</time>
      </trkpt>
      <trkpt lat="48.95623" lon="6.05838">
        <ele>226.7</ele>
        <time>2011-10-22T12:14:53Z</time>
      </trkpt>
      <trkpt lat="48.95591" lon="6.05839">
        <ele>227.4</ele>
        <time>2011-10-22T12:14:57Z</time>
      </trkpt>
      <trkpt lat="48.95555" lon="6.05862">
        <ele>227.4</ele>
        <time>2011-10-22T12:15:02Z</time>
      </trkpt>
      <trkpt lat="48.95522" lon="6.05879">
        <ele>227.9</ele>
        <time>2011-10-22T12:15:06Z</time>
      </trkpt>
      <trkpt lat="48.95493" lon="6.05905">
        <ele>227.4</ele>
        <time>2011-10-22T12:15:10Z</time>
      </trkpt>
      <trkpt lat="48.9546" lon="6.05922">
        <ele>227.3</ele>
        <time>2011-10-22T12:15:14Z</time>
      </trkpt>
      <trkpt lat="48.95428" lon="6.05941">
        <ele>222.8</ele>
        <time>2011-10-22T12:15:18Z</time>
      </trkpt>
      <trkpt lat="48.95398" lon="6.05959">
        <ele>224</ele>
        <time>2011-10-22T12:15:22Z</time>
      </trkpt>
      <trkpt lat="48.95368" lon="6.05979">
        <ele>225</ele>
        <time>2011-10-22T12:15:26Z</time>
      </trkpt>
      <trkpt lat="48.95345" lon="6.05993">
        <ele>224.5</ele>
        <time>2011-10-22T12:15:29Z</time>
      </trkpt>
      <trkpt lat="48.95322" lon="6.06007">
        <ele>224.4</ele>
        <time>2011-10-22T12:15:32Z</time>
      </trkpt>
      <trkpt lat="48.95278" lon="6.06039">
        <ele>224</ele>
        <time>2011-10-22T12:15:38Z</time>
      </trkpt>
      <trkpt lat="48.95252" lon="6.06063">
        <ele>226.2</ele>
        <time>2011-10-22T12:15:42Z</time>
      </trkpt>
      <trkpt lat="48.95227" lon="6.06089">
        <ele>227.2</ele>
        <time>2011-10-22T12:15:46Z</time>
      </trkpt>
      <trkpt lat="48.95207" lon="6.06108">
        <ele>227.8</ele>
        <time>2011-10-22T12:15:49Z</time>
      </trkpt>
      <trkpt lat="48.95177" lon="6.0614">
        <ele>228.7</ele>
        <time>2011-10-22T12:15:54Z</time>
      </trkpt>
      <trkpt lat="48.95152" lon="6.06165">
        <ele>230.1</ele>
        <time>2011-10-22T12:15:58Z</time>
      </trkpt>
      <trkpt lat="48.95129" lon="6.0619">
        <ele>233.2</ele>
        <time>2011-10-22T12:16:02Z</time>
      </trkpt>
      <trkpt lat="48.95105" lon="6.06211">
        <ele>235.3</ele>
        <time>2011-10-22T12:16:06Z</time>
      </trkpt>
      <trkpt lat="48.95079" lon="6.06237">
        <ele>235.7</ele>
        <time>2011-10-22T12:16:10Z</time>
      </trkpt>
      <trkpt lat="48.95056" lon="6.06259">
        <ele>237.8</ele>
        <time>2011-10-22T12:16:14Z</time>
      </trkpt>
      <trkpt lat="48.95035" lon="6.0628">
        <ele>240.7</ele>
        <time>2011-10-22T12:16:18Z</time>
      </trkpt>
      <trkpt lat="48.95014" lon="6.06306">
        <ele>240.7</ele>
        <time>2011-10-22T12:16:22Z</time>
      </trkpt>
      <trkpt lat="48.94993" lon="6.06326">
        <ele>240.6</ele>
        <time>2011-10-22T12:16:25Z</time>
      </trkpt>
      <trkpt lat="48.94959" lon="6.06358">
        <ele>239.8</ele>
        <time>2011-10-22T12:16:30Z</time>
      </trkpt>
      <trkpt lat="48.94934" lon="6.06373">
        <ele>239.3</ele>
        <time>2011-10-22T12:16:33Z</time>
      </trkpt>
      <trkpt lat="48.94895" lon="6.06394">
        <ele>238.6</ele>
        <time>2011-10-22T12:16:38Z</time>
      </trkpt>
      <trkpt lat="48.94864" lon="6.06402">
        <ele>238.9</ele>
        <time>2011-10-22T12:16:42Z</time>
      </trkpt>
      <trkpt lat="48.94849" lon="6.06406">
        <ele>239.1</ele>
        <time>2011-10-22T12:16:44Z</time>
      </trkpt>
      <trkpt lat="48.94798" lon="6.06421">
        <ele>239.9</ele>
        <time>2011-10-22T12:16:50Z</time>
      </trkpt>
      <trkpt lat="48.94771" lon="6.0643">
        <ele>238.8</ele>
        <time>2011-10-22T12:16:53Z</time>
      </trkpt>
      <trkpt lat="48.94729" lon="6.06441">
        <ele>236.7</ele>
        <time>2011-10-22T12:16:58Z</time>
      </trkpt>
      <trkpt lat="48.94697" lon="6.06448">
        <ele>235.3</ele>
        <time>2011-10-22T12:17:02Z</time>
      </trkpt>
      <trkpt lat="48.94689" lon="6.06449">
        <ele>235.2</ele>
        <time>2011-10-22T12:17:03Z</time>
      </trkpt>
      <trkpt lat="48.94654" lon="6.06471">
        <ele>233</ele>
        <time>2011-10-22T12:17:09Z</time>
      </trkpt>
      <trkpt lat="48.94651" lon="6.06517">
        <ele>234.6</ele>
        <time>2011-10-22T12:17:15Z</time>
      </trkpt>
      <trkpt lat="48.94647" lon="6.06524">
        <ele>233.5</ele>
        <time>2011-10-22T12:18:16Z</time>
      </trkpt>
      <trkpt lat="48.94648" lon="6.06558">
        <ele>235</ele>
        <time>2011-10-22T12:18:22Z</time>
      </trkpt>
      <trkpt lat="48.94645" lon="6.06582">
        <ele>234.3</ele>
        <time>2011-10-22T12:18:26Z</time>
      </trkpt>
      <trkpt lat="48.94642" lon="6.06606">
        <ele>237</ele>
        <time>2011-10-22T12:18:30Z</time>
      </trkpt>
      <trkpt lat="48.94638" lon="6.06635">
        <ele>237.1</ele>
        <time>2011-10-22T12:18:34Z</time>
      </trkpt>
      <trkpt lat="48.94633" lon="6.06667">
        <ele>237.3</ele>
        <time>2011-10-22T12:18:38Z</time>
      </trkpt>
      <trkpt lat="48.94633" lon="6.06682">
        <ele>238.1</ele>
        <time>2011-10-22T12:18:40Z</time>
      </trkpt>
      <trkpt lat="48.9463" lon="6.06712">
        <ele>238.6</ele>
        <time>2011-10-22T12:18:44Z</time>
      </trkpt>
      <trkpt lat="48.94626" lon="6.06754">
        <ele>239.8</ele>
        <time>2011-10-22T12:18:50Z</time>
      </trkpt>
      <trkpt lat="48.94627" lon="6.06779">
        <ele>240.8</ele>
        <time>2011-10-22T12:18:54Z</time>
      </trkpt>
      <trkpt lat="48.9463" lon="6.06793">
        <ele>241.3</ele>
        <time>2011-10-22T12:18:57Z</time>
      </trkpt>
      <trkpt lat="48.94633" lon="6.06813">
        <ele>244</ele>
        <time>2011-10-22T12:19:02Z</time>
      </trkpt>
      <trkpt lat="48.94624" lon="6.06845">
        <ele>245.4</ele>
        <time>2011-10-22T12:19:06Z</time>
      </trkpt>
      <trkpt lat="48.94625" lon="6.06878">
        <ele>245.8</ele>
        <time>2011-10-22T12:19:11Z</time>
      </trkpt>
      <trkpt lat="48.94623" lon="6.069">
        <ele>245.8</ele>
        <time>2011-10-22T12:19:15Z</time>
      </trkpt>
      <trkpt lat="48.94625" lon="6.06936">
        <ele>247.7</ele>
        <time>2011-10-22T12:19:22Z</time>
      </trkpt>
      <trkpt lat="48.94611" lon="6.06957">
        <ele>245.1</ele>
        <time>2011-10-22T12:19:25Z</time>
      </trkpt>
      <trkpt lat="48.94612" lon="6.06984">
        <ele>246.2</ele>
        <time>2011-10-22T12:19:30Z</time>
      </trkpt>
      <trkpt lat="48.94608" lon="6.06992">
        <ele>246</ele>
        <time>2011-10-22T12:19:31Z</time>
      </trkpt>
      <trkpt lat="48.94603" lon="6.07014">
        <ele>246</ele>
        <time>2011-10-22T12:19:35Z</time>
      </trkpt>
      <trkpt lat="48.946" lon="6.07051">
        <ele>248.4</ele>
        <time>2011-10-22T12:19:42Z</time>
      </trkpt>
      <trkpt lat="48.94601" lon="6.07079">
        <ele>253.1</ele>
        <time>2011-10-22T12:19:46Z</time>
      </trkpt>
      <trkpt lat="48.94604" lon="6.07109">
        <ele>254.4</ele>
        <time>2011-10-22T12:19:50Z</time>
      </trkpt>
      <trkpt lat="48.94605" lon="6.07125">
        <ele>254.6</ele>
        <time>2011-10-22T12:19:52Z</time>
      </trkpt>
      <trkpt lat="48.94611" lon="6.07165">
        <ele>253.5</ele>
        <time>2011-10-22T12:19:58Z</time>
      </trkpt>
      <trkpt lat="48.94611" lon="6.07189">
        <ele>254.9</ele>
        <time>2011-10-22T12:20:02Z</time>
      </trkpt>
      <trkpt lat="48.94611" lon="6.07202">
        <ele>254.9</ele>
        <time>2011-10-22T12:20:04Z</time>
      </trkpt>
      <trkpt lat="48.94612" lon="6.07238">
        <ele>256.9</ele>
        <time>2011-10-22T12:20:10Z</time>
      </trkpt>
      <trkpt lat="48.94614" lon="6.07262">
        <ele>257.1</ele>
        <time>2011-10-22T12:20:14Z</time>
      </trkpt>
      <trkpt lat="48.94612" lon="6.07284">
        <ele>259.3</ele>
        <time>2011-10-22T12:20:18Z</time>
      </trkpt>
      <trkpt lat="48.94615" lon="6.07306">
        <ele>260.2</ele>
        <time>2011-10-22T12:20:22Z</time>
      </trkpt>
      <trkpt lat="48.94622" lon="6.07331">
        <ele>260.7</ele>
        <time>2011-10-22T12:20:26Z</time>
      </trkpt>
      <trkpt lat="48.94629" lon="6.07351">
        <ele>262.1</ele>
        <time>2011-10-22T12:20:30Z</time>
      </trkpt>
      <trkpt lat="48.94636" lon="6.07369">
        <ele>265.2</ele>
        <time>2011-10-22T12:20:34Z</time>
      </trkpt>
      <trkpt lat="48.94647" lon="6.07388">
        <ele>266.6</ele>
        <time>2011-10-22T12:20:38Z</time>
      </trkpt>
      <trkpt lat="48.94659" lon="6.07408">
        <ele>267.9</ele>
        <time>2011-10-22T12:20:42Z</time>
      </trkpt>
      <trkpt lat="48.9467" lon="6.07429">
        <ele>269</ele>
        <time>2011-10-22T12:20:46Z</time>
      </trkpt>
      <trkpt lat="48.94682" lon="6.07453">
        <ele>270.6</ele>
        <time>2011-10-22T12:20:50Z</time>
      </trkpt>
      <trkpt lat="48.94694" lon="6.07477">
        <ele>271</ele>
        <time>2011-10-22T12:20:54Z</time>
      </trkpt>
      <trkpt lat="48.94703" lon="6.07507">
        <ele>271.9</ele>
        <time>2011-10-22T12:20:58Z</time>
      </trkpt>
      <trkpt lat="48.94706" lon="6.07522">
        <ele>272</ele>
        <time>2011-10-22T12:21:00Z</time>
      </trkpt>
      <trkpt lat="48.94709" lon="6.07554">
        <ele>273</ele>
        <time>2011-10-22T12:21:04Z</time>
      </trkpt>
      <trkpt lat="48.94712" lon="6.07606">
        <ele>273.7</ele>
        <time>2011-10-22T12:21:10Z</time>
      </trkpt>
      <trkpt lat="48.94713" lon="6.07641">
        <ele>273.2</ele>
        <time>2011-10-22T12:21:14Z</time>
      </trkpt>
      <trkpt lat="48.94719" lon="6.07676">
        <ele>273.4</ele>
        <time>2011-10-22T12:21:18Z</time>
      </trkpt>
      <trkpt lat="48.94722" lon="6.07691">
        <ele>273.4</ele>
        <time>2011-10-22T12:21:20Z</time>
      </trkpt>
      <trkpt lat="48.94744" lon="6.0773">
        <ele>273.2</ele>
        <time>2011-10-22T12:21:25Z</time>
      </trkpt>
      <trkpt lat="48.94756" lon="6.07753">
        <ele>273.1</ele>
        <time>2011-10-22T12:21:29Z</time>
      </trkpt>
      <trkpt lat="48.94775" lon="6.07776">
        <ele>273.3</ele>
        <time>2011-10-22T12:21:33Z</time>
      </trkpt>
      <trkpt lat="48.94802" lon="6.078">
        <ele>273.6</ele>
        <time>2011-10-22T12:21:38Z</time>
      </trkpt>
      <trkpt lat="48.94811" lon="6.07811">
        <ele>273.5</ele>
        <time>2011-10-22T12:21:40Z</time>
      </trkpt>
      <trkpt lat="48.94839" lon="6.07845">
        <ele>274</ele>
        <time>2011-10-22T12:21:46Z</time>
      </trkpt>
      <trkpt lat="48.9485" lon="6.0787">
        <ele>273.6</ele>
        <time>2011-10-22T12:21:50Z</time>
      </trkpt>
      <trkpt lat="48.94858" lon="6.07893">
        <ele>274</ele>
        <time>2011-10-22T12:21:53Z</time>
      </trkpt>
      <trkpt lat="48.94873" lon="6.07939">
        <ele>275.1</ele>
        <time>2011-10-22T12:21:58Z</time>
      </trkpt>
      <trkpt lat="48.9488" lon="6.07991">
        <ele>278.2</ele>
        <time>2011-10-22T12:22:06Z</time>
      </trkpt>
      <trkpt lat="48.94886" lon="6.08015">
        <ele>280</ele>
        <time>2011-10-22T12:22:09Z</time>
      </trkpt>
      <trkpt lat="48.94899" lon="6.0806">
        <ele>280.7</ele>
        <time>2011-10-22T12:22:14Z</time>
      </trkpt>
      <trkpt lat="48.9491" lon="6.08093">
        <ele>280.7</ele>
        <time>2011-10-22T12:22:18Z</time>
      </trkpt>
      <trkpt lat="48.94921" lon="6.08119">
        <ele>280.5</ele>
        <time>2011-10-22T12:22:21Z</time>
      </trkpt>
      <trkpt lat="48.94937" lon="6.08152">
        <ele>281.3</ele>
        <time>2011-10-22T12:22:26Z</time>
      </trkpt>
      <trkpt lat="48.94955" lon="6.08188">
        <ele>281.9</ele>
        <time>2011-10-22T12:22:30Z</time>
      </trkpt>
      <trkpt lat="48.94969" lon="6.08229">
        <ele>286.4</ele>
        <time>2011-10-22T12:22:34Z</time>
      </trkpt>
      <trkpt lat="48.94977" lon="6.08279">
        <ele>288.8</ele>
        <time>2011-10-22T12:22:38Z</time>
      </trkpt>
      <trkpt lat="48.94979" lon="6.0832">
        <ele>289.5</ele>
        <time>2011-10-22T12:22:42Z</time>
      </trkpt>
      <trkpt lat="48.94987" lon="6.08364">
        <ele>290.8</ele>
        <time>2011-10-22T12:22:46Z</time>
      </trkpt>
      <trkpt lat="48.94987" lon="6.08401">
        <ele>292.6</ele>
        <time>2011-10-22T12:22:50Z</time>
      </trkpt>
      <trkpt lat="48.9499" lon="6.0844">
        <ele>292.8</ele>
        <time>2011-10-22T12:22:54Z</time>
      </trkpt>
      <trkpt lat="48.94985" lon="6.08481">
        <ele>293.4</ele>
        <time>2011-10-22T12:22:58Z</time>
      </trkpt>
      <trkpt lat="48.94972" lon="6.08504">
        <ele>295.8</ele>
        <time>2011-10-22T12:23:01Z</time>
      </trkpt>
      <trkpt lat="48.94965" lon="6.08535">
        <ele>297.5</ele>
        <time>2011-10-22T12:23:04Z</time>
      </trkpt>
      <trkpt lat="48.94972" lon="6.08595">
        <ele>298.8</ele>
        <time>2011-10-22T12:23:10Z</time>
      </trkpt>
      <trkpt lat="48.94985" lon="6.08627">
        <ele>300.7</ele>
        <time>2011-10-22T12:23:14Z</time>
      </trkpt>
      <trkpt lat="48.94996" lon="6.08649">
        <ele>301.7</ele>
        <time>2011-10-22T12:23:17Z</time>
      </trkpt>
      <trkpt lat="48.95017" lon="6.08685">
        <ele>302.6</ele>
        <time>2011-10-22T12:23:22Z</time>
      </trkpt>
      <trkpt lat="48.95035" lon="6.08714">
        <ele>303.1</ele>
        <time>2011-10-22T12:23:26Z</time>
      </trkpt>
      <trkpt lat="48.95057" lon="6.08751">
        <ele>304.2</ele>
        <time>2011-10-22T12:23:31Z</time>
      </trkpt>
      <trkpt lat="48.95085" lon="6.08801">
        <ele>306.1</ele>
        <time>2011-10-22T12:23:38Z</time>
      </trkpt>
      <trkpt lat="48.95097" lon="6.08822">
        <ele>306.6</ele>
        <time>2011-10-22T12:23:41Z</time>
      </trkpt>
      <trkpt lat="48.95116" lon="6.08858">
        <ele>307.4</ele>
        <time>2011-10-22T12:23:46Z</time>
      </trkpt>
      <trkpt lat="48.95132" lon="6.08882">
        <ele>308.6</ele>
        <time>2011-10-22T12:23:50Z</time>
      </trkpt>
      <trkpt lat="48.95152" lon="6.08893">
        <ele>310.6</ele>
        <time>2011-10-22T12:23:54Z</time>
      </trkpt>
      <trkpt lat="48.95172" lon="6.0889">
        <ele>311.9</ele>
        <time>2011-10-22T12:23:58Z</time>
      </trkpt>
      <trkpt lat="48.95191" lon="6.08881">
        <ele>311.7</ele>
        <time>2011-10-22T12:24:02Z</time>
      </trkpt>
      <trkpt lat="48.95208" lon="6.08871">
        <ele>311.4</ele>
        <time>2011-10-22T12:24:06Z</time>
      </trkpt>
      <trkpt lat="48.95229" lon="6.08866">
        <ele>310.7</ele>
        <time>2011-10-22T12:24:10Z</time>
      </trkpt>
      <trkpt lat="48.95254" lon="6.08867">
        <ele>310.4</ele>
        <time>2011-10-22T12:24:15Z</time>
      </trkpt>
      <trkpt lat="48.95283" lon="6.0887">
        <ele>309.6</ele>
        <time>2011-10-22T12:24:19Z</time>
      </trkpt>
      <trkpt lat="48.95316" lon="6.08875">
        <ele>308.1</ele>
        <time>2011-10-22T12:24:23Z</time>
      </trkpt>
      <trkpt lat="48.95335" lon="6.08875">
        <ele>307.1</ele>
        <time>2011-10-22T12:24:25Z</time>
      </trkpt>
      <trkpt lat="48.95397" lon="6.08874">
        <ele>305.2</ele>
        <time>2011-10-22T12:24:31Z</time>
      </trkpt>
      <trkpt lat="48.9543" lon="6.0891">
        <ele>306.9</ele>
        <time>2011-10-22T12:24:35Z</time>
      </trkpt>
      <trkpt lat="48.9546" lon="6.08952">
        <ele>306.8</ele>
        <time>2011-10-22T12:24:39Z</time>
      </trkpt>
      <trkpt lat="48.95492" lon="6.08982">
        <ele>306.3</ele>
        <time>2011-10-22T12:24:43Z</time>
      </trkpt>
      <trkpt lat="48.95514" lon="6.09002">
        <ele>305.4</ele>
        <time>2011-10-22T12:24:46Z</time>
      </trkpt>
      <trkpt lat="48.95539" lon="6.09023">
        <ele>306.8</ele>
        <time>2011-10-22T12:24:50Z</time>
      </trkpt>
      <trkpt lat="48.9552" lon="6.09068">
        <ele>304.4</ele>
        <time>2011-10-22T12:24:55Z</time>
      </trkpt>
      <trkpt lat="48.95503" lon="6.09113">
        <ele>303.9</ele>
        <time>2011-10-22T12:24:59Z</time>
      </trkpt>
      <trkpt lat="48.95477" lon="6.09165">
        <ele>303</ele>
        <time>2011-10-22T12:25:03Z</time>
      </trkpt>
      <trkpt lat="48.95465" lon="6.09233">
        <ele>300.4</ele>
        <time>2011-10-22T12:25:07Z</time>
      </trkpt>
      <trkpt lat="48.95458" lon="6.09273">
        <ele>297.7</ele>
        <time>2011-10-22T12:25:10Z</time>
      </trkpt>
      <trkpt lat="48.95447" lon="6.09345">
        <ele>294.9</ele>
        <time>2011-10-22T12:25:15Z</time>
      </trkpt>
      <trkpt lat="48.95406" lon="6.09361">
        <ele>291.8</ele>
        <time>2011-10-22T12:25:19Z</time>
      </trkpt>
      <trkpt lat="48.95384" lon="6.09402">
        <ele>288.5</ele>
        <time>2011-10-22T12:25:23Z</time>
      </trkpt>
      <trkpt lat="48.95362" lon="6.09432">
        <ele>289.4</ele>
        <time>2011-10-22T12:25:26Z</time>
      </trkpt>
      <trkpt lat="48.95332" lon="6.0949">
        <ele>283.6</ele>
        <time>2011-10-22T12:25:31Z</time>
      </trkpt>
      <trkpt lat="48.9532" lon="6.09528">
        <ele>281.7</ele>
        <time>2011-10-22T12:25:34Z</time>
      </trkpt>
      <trkpt lat="48.95315" lon="6.09561">
        <ele>279.8</ele>
        <time>2011-10-22T12:25:37Z</time>
      </trkpt>
      <trkpt lat="48.95307" lon="6.09624">
        <ele>279.1</ele>
        <time>2011-10-22T12:25:43Z</time>
      </trkpt>
      <trkpt lat="48.95306" lon="6.09666">
        <ele>280.5</ele>
        <time>2011-10-22T12:25:47Z</time>
      </trkpt>
      <trkpt lat="48.95315" lon="6.09717">
        <ele>279.2</ele>
        <time>2011-10-22T12:25:51Z</time>
      </trkpt>
      <trkpt lat="48.95325" lon="6.09778">
        <ele>272.1</ele>
        <time>2011-10-22T12:25:55Z</time>
      </trkpt>
      <trkpt lat="48.95338" lon="6.09835">
        <ele>267.2</ele>
        <time>2011-10-22T12:25:59Z</time>
      </trkpt>
      <trkpt lat="48.95347" lon="6.09894">
        <ele>266.5</ele>
        <time>2011-10-22T12:26:03Z</time>
      </trkpt>
      <trkpt lat="48.95353" lon="6.09957">
        <ele>265.8</ele>
        <time>2011-10-22T12:26:07Z</time>
      </trkpt>
      <trkpt lat="48.95355" lon="6.10024">
        <ele>260.3</ele>
        <time>2011-10-22T12:26:11Z</time>
      </trkpt>
      <trkpt lat="48.95357" lon="6.10093">
        <ele>256.6</ele>
        <time>2011-10-22T12:26:15Z</time>
      </trkpt>
      <trkpt lat="48.95366" lon="6.10171">
        <ele>253.1</ele>
        <time>2011-10-22T12:26:19Z</time>
      </trkpt>
      <trkpt lat="48.95369" lon="6.10258">
        <ele>245.8</ele>
        <time>2011-10-22T12:26:23Z</time>
      </trkpt>
      <trkpt lat="48.95364" lon="6.10343">
        <ele>244.6</ele>
        <time>2011-10-22T12:26:27Z</time>
      </trkpt>
      <trkpt lat="48.95351" lon="6.10416">
        <ele>244.2</ele>
        <time>2011-10-22T12:26:31Z</time>
      </trkpt>
      <trkpt lat="48.95338" lon="6.1049">
        <ele>243.4</ele>
        <time>2011-10-22T12:26:35Z</time>
      </trkpt>
      <trkpt lat="48.95323" lon="6.10561">
        <ele>242.3</ele>
        <time>2011-10-22T12:26:39Z</time>
      </trkpt>
      <trkpt lat="48.95314" lon="6.10631">
        <ele>241.9</ele>
        <time>2011-10-22T12:26:43Z</time>
      </trkpt>
      <trkpt lat="48.95309" lon="6.10698">
        <ele>241.4</ele>
        <time>2011-10-22T12:26:47Z</time>
      </trkpt>
      <trkpt lat="48.95301" lon="6.10762">
        <ele>241.3</ele>
        <time>2011-10-22T12:26:51Z</time>
      </trkpt>
      <trkpt lat="48.95294" lon="6.10823">
        <ele>242.1</ele>
        <time>2011-10-22T12:26:55Z</time>
      </trkpt>
      <trkpt lat="48.9529" lon="6.10891">
        <ele>242.1</ele>
        <time>2011-10-22T12:26:59Z</time>
      </trkpt>
      <trkpt lat="48.95286" lon="6.10949">
        <ele>242.5</ele>
        <time>2011-10-22T12:27:03Z</time>
      </trkpt>
      <trkpt lat="48.95284" lon="6.11005">
        <ele>241.9</ele>
        <time>2011-10-22T12:27:07Z</time>
      </trkpt>
      <trkpt lat="48.95283" lon="6.11059">
        <ele>243.2</ele>
        <time>2011-10-22T12:27:11Z</time>
      </trkpt>
      <trkpt lat="48.95281" lon="6.11112">
        <ele>243.1</ele>
        <time>2011-10-22T12:27:15Z</time>
      </trkpt>
      <trkpt lat="48.9528" lon="6.11166">
        <ele>242.3</ele>
        <time>2011-10-22T12:27:19Z</time>
      </trkpt>
      <trkpt lat="48.95278" lon="6.11222">
        <ele>241.4</ele>
        <time>2011-10-22T12:27:23Z</time>
      </trkpt>
      <trkpt lat="48.95278" lon="6.11264">
        <ele>240.7</ele>
        <time>2011-10-22T12:27:26Z</time>
      </trkpt>
      <trkpt lat="48.95269" lon="6.11333">
        <ele>240.9</ele>
        <time>2011-10-22T12:27:31Z</time>
      </trkpt>
      <trkpt lat="48.95265" lon="6.1139">
        <ele>237.6</ele>
        <time>2011-10-22T12:27:35Z</time>
      </trkpt>
      <trkpt lat="48.95258" lon="6.1144">
        <ele>236.4</ele>
        <time>2011-10-22T12:27:39Z</time>
      </trkpt>
      <trkpt lat="48.95248" lon="6.11488">
        <ele>235.9</ele>
        <time>2011-10-22T12:27:43Z</time>
      </trkpt>
      <trkpt lat="48.95238" lon="6.11535">
        <ele>234.2</ele>
        <time>2011-10-22T12:27:46Z</time>
      </trkpt>
      <trkpt lat="48.95229" lon="6.11576">
        <ele>235.1</ele>
        <time>2011-10-22T12:27:51Z</time>
      </trkpt>
      <trkpt lat="48.9522" lon="6.11616">
        <ele>234.5</ele>
        <time>2011-10-22T12:27:55Z</time>
      </trkpt>
      <trkpt lat="48.95212" lon="6.11654">
        <ele>233.9</ele>
        <time>2011-10-22T12:27:58Z</time>
      </trkpt>
      <trkpt lat="48.95211" lon="6.11696">
        <ele>234.4</ele>
        <time>2011-10-22T12:28:03Z</time>
      </trkpt>
      <trkpt lat="48.95212" lon="6.11738">
        <ele>234.5</ele>
        <time>2011-10-22T12:28:06Z</time>
      </trkpt>
      <trkpt lat="48.95212" lon="6.1178">
        <ele>234.3</ele>
        <time>2011-10-22T12:28:10Z</time>
      </trkpt>
      <trkpt lat="48.95213" lon="6.11828">
        <ele>235.8</ele>
        <time>2011-10-22T12:28:14Z</time>
      </trkpt>
      <trkpt lat="48.95214" lon="6.11878">
        <ele>234.8</ele>
        <time>2011-10-22T12:28:18Z</time>
      </trkpt>
      <trkpt lat="48.95214" lon="6.11925">
        <ele>234.5</ele>
        <time>2011-10-22T12:28:22Z</time>
      </trkpt>
      <trkpt lat="48.95216" lon="6.1197">
        <ele>235.3</ele>
        <time>2011-10-22T12:28:26Z</time>
      </trkpt>
      <trkpt lat="48.95216" lon="6.12015">
        <ele>235</ele>
        <time>2011-10-22T12:28:30Z</time>
      </trkpt>
      <trkpt lat="48.95217" lon="6.12049">
        <ele>234.6</ele>
        <time>2011-10-22T12:28:33Z</time>
      </trkpt>
      <trkpt lat="48.95217" lon="6.12104">
        <ele>234.3</ele>
        <time>2011-10-22T12:28:38Z</time>
      </trkpt>
      <trkpt lat="48.95217" lon="6.1215">
        <ele>234.3</ele>
        <time>2011-10-22T12:28:42Z</time>
      </trkpt>
      <trkpt lat="48.95215" lon="6.12197">
        <ele>234</ele>
        <time>2011-10-22T12:28:46Z</time>
      </trkpt>
      <trkpt lat="48.95214" lon="6.12231">
        <ele>233.3</ele>
        <time>2011-10-22T12:28:49Z</time>
      </trkpt>
      <trkpt lat="48.95209" lon="6.12277">
        <ele>231.7</ele>
        <time>2011-10-22T12:28:53Z</time>
      </trkpt>
      <trkpt lat="48.95199" lon="6.12334">
        <ele>231.1</ele>
        <time>2011-10-22T12:28:58Z</time>
      </trkpt>
      <trkpt lat="48.95189" lon="6.12377">
        <ele>229.3</ele>
        <time>2011-10-22T12:29:02Z</time>
      </trkpt>
      <trkpt lat="48.95206" lon="6.1243">
        <ele>229.6</ele>
        <time>2011-10-22T12:29:06Z</time>
      </trkpt>
      <trkpt lat="48.95227" lon="6.12441">
        <ele>228.1</ele>
        <time>2011-10-22T12:29:09Z</time>
      </trkpt>
      <trkpt lat="48.95267" lon="6.12456">
        <ele>229.8</ele>
        <time>2011-10-22T12:29:14Z</time>
      </trkpt>
      <trkpt lat="48.95295" lon="6.1248">
        <ele>228.5</ele>
        <time>2011-10-22T12:29:18Z</time>
      </trkpt>
      <trkpt lat="48.95301" lon="6.12528">
        <ele>226.1</ele>
        <time>2011-10-22T12:29:22Z</time>
      </trkpt>
      <trkpt lat="48.95295" lon="6.12574">
        <ele>226.7</ele>
        <time>2011-10-22T12:29:26Z</time>
      </trkpt>
      <trkpt lat="48.95293" lon="6.12622">
        <ele>227.2</ele>
        <time>2011-10-22T12:29:30Z</time>
      </trkpt>
      <trkpt lat="48.95299" lon="6.12671">
        <ele>226.5</ele>
        <time>2011-10-22T12:29:34Z</time>
      </trkpt>
      <trkpt lat="48.95311" lon="6.12718">
        <ele>225.8</ele>
        <time>2011-10-22T12:29:38Z</time>
      </trkpt>
      <trkpt lat="48.95327" lon="6.12756">
        <ele>226.2</ele>
        <time>2011-10-22T12:29:42Z</time>
      </trkpt>
      <trkpt lat="48.95346" lon="6.12792">
        <ele>226.6</ele>
        <time>2011-10-22T12:29:46Z</time>
      </trkpt>
      <trkpt lat="48.95365" lon="6.12829">
        <ele>226.8</ele>
        <time>2011-10-22T12:29:50Z</time>
      </trkpt>
      <trkpt lat="48.95382" lon="6.12866">
        <ele>227.6</ele>
        <time>2011-10-22T12:29:54Z</time>
      </trkpt>
      <trkpt lat="48.95395" lon="6.12893">
        <ele>227.6</ele>
        <time>2011-10-22T12:29:57Z</time>
      </trkpt>
      <trkpt lat="48.95419" lon="6.12939">
        <ele>227.2</ele>
        <time>2011-10-22T12:30:02Z</time>
      </trkpt>
      <trkpt lat="48.95437" lon="6.12975">
        <ele>227.6</ele>
        <time>2011-10-22T12:30:06Z</time>
      </trkpt>
      <trkpt lat="48.95452" lon="6.13013">
        <ele>227.5</ele>
        <time>2011-10-22T12:30:10Z</time>
      </trkpt>
      <trkpt lat="48.9546" lon="6.13045">
        <ele>228</ele>
        <time>2011-10-22T12:30:13Z</time>
      </trkpt>
      <trkpt lat="48.95474" lon="6.13098">
        <ele>228.6</ele>
        <time>2011-10-22T12:30:18Z</time>
      </trkpt>
      <trkpt lat="48.95482" lon="6.13128">
        <ele>228.7</ele>
        <time>2011-10-22T12:30:21Z</time>
      </trkpt>
      <trkpt lat="48.95502" lon="6.13182">
        <ele>228.8</ele>
        <time>2011-10-22T12:30:26Z</time>
      </trkpt>
      <trkpt lat="48.95514" lon="6.13219">
        <ele>229.3</ele>
        <time>2011-10-22T12:30:30Z</time>
      </trkpt>
      <trkpt lat="48.95528" lon="6.13256">
        <ele>231.9</ele>
        <time>2011-10-22T12:30:34Z</time>
      </trkpt>
      <trkpt lat="48.95538" lon="6.13285">
        <ele>233.2</ele>
        <time>2011-10-22T12:30:37Z</time>
      </trkpt>
      <trkpt lat="48.9555" lon="6.13339">
        <ele>234</ele>
        <time>2011-10-22T12:30:42Z</time>
      </trkpt>
      <trkpt lat="48.95551" lon="6.13383">
        <ele>231</ele>
        <time>2011-10-22T12:30:46Z</time>
      </trkpt>
      <trkpt lat="48.95552" lon="6.13431">
        <ele>228.8</ele>
        <time>2011-10-22T12:30:50Z</time>
      </trkpt>
      <trkpt lat="48.95556" lon="6.13483">
        <ele>226.2</ele>
        <time>2011-10-22T12:30:54Z</time>
      </trkpt>
      <trkpt lat="48.95558" lon="6.13542">
        <ele>224.4</ele>
        <time>2011-10-22T12:30:58Z</time>
      </trkpt>
      <trkpt lat="48.95554" lon="6.13583">
        <ele>223.9</ele>
        <time>2011-10-22T12:31:01Z</time>
      </trkpt>
      <trkpt lat="48.95526" lon="6.13625">
        <ele>225.9</ele>
        <time>2011-10-22T12:31:06Z</time>
      </trkpt>
      <trkpt lat="48.95504" lon="6.13657">
        <ele>225.7</ele>
        <time>2011-10-22T12:31:10Z</time>
      </trkpt>
      <trkpt lat="48.95486" lon="6.13698">
        <ele>225.5</ele>
        <time>2011-10-22T12:31:14Z</time>
      </trkpt>
      <trkpt lat="48.95469" lon="6.13735">
        <ele>224.3</ele>
        <time>2011-10-22T12:31:18Z</time>
      </trkpt>
      <trkpt lat="48.95453" lon="6.13775">
        <ele>224.8</ele>
        <time>2011-10-22T12:31:22Z</time>
      </trkpt>
      <trkpt lat="48.95439" lon="6.13819">
        <ele>224.8</ele>
        <time>2011-10-22T12:31:26Z</time>
      </trkpt>
      <trkpt lat="48.95426" lon="6.13863">
        <ele>224.7</ele>
        <time>2011-10-22T12:31:30Z</time>
      </trkpt>
      <trkpt lat="48.95415" lon="6.13895">
        <ele>224.1</ele>
        <time>2011-10-22T12:31:33Z</time>
      </trkpt>
      <trkpt lat="48.95398" lon="6.13952">
        <ele>225.1</ele>
        <time>2011-10-22T12:31:38Z</time>
      </trkpt>
      <trkpt lat="48.95389" lon="6.13983">
        <ele>226.1</ele>
        <time>2011-10-22T12:31:41Z</time>
      </trkpt>
      <trkpt lat="48.95375" lon="6.14029">
        <ele>227.2</ele>
        <time>2011-10-22T12:31:46Z</time>
      </trkpt>
      <trkpt lat="48.95362" lon="6.14069">
        <ele>226.9</ele>
        <time>2011-10-22T12:31:50Z</time>
      </trkpt>
      <trkpt lat="48.95346" lon="6.14106">
        <ele>228.7</ele>
        <time>2011-10-22T12:31:54Z</time>
      </trkpt>
      <trkpt lat="48.95326" lon="6.14134">
        <ele>228.4</ele>
        <time>2011-10-22T12:31:58Z</time>
      </trkpt>
      <trkpt lat="48.95307" lon="6.14166">
        <ele>229.4</ele>
        <time>2011-10-22T12:32:02Z</time>
      </trkpt>
      <trkpt lat="48.95292" lon="6.14189">
        <ele>229.6</ele>
        <time>2011-10-22T12:32:05Z</time>
      </trkpt>
      <trkpt lat="48.95274" lon="6.1421">
        <ele>230.3</ele>
        <time>2011-10-22T12:32:10Z</time>
      </trkpt>
      <trkpt lat="48.95265" lon="6.14212">
        <ele>230.4</ele>
        <time>2011-10-22T12:32:12Z</time>
      </trkpt>
      <trkpt lat="48.95237" lon="6.14176">
        <ele>230.9</ele>
        <time>2011-10-22T12:32:18Z</time>
      </trkpt>
      <trkpt lat="48.95217" lon="6.14141">
        <ele>230.6</ele>
        <time>2011-10-22T12:32:22Z</time>
      </trkpt>
      <trkpt lat="48.95196" lon="6.14101">
        <ele>229.8</ele>
        <time>2011-10-22T12:32:26Z</time>
      </trkpt>
      <trkpt lat="48.95174" lon="6.1406">
        <ele>230.3</ele>
        <time>2011-10-22T12:32:30Z</time>
      </trkpt>
      <trkpt lat="48.95153" lon="6.14022">
        <ele>229.4</ele>
        <time>2011-10-22T12:32:34Z</time>
      </trkpt>
      <trkpt lat="48.95135" lon="6.13988">
        <ele>230.6</ele>
        <time>2011-10-22T12:32:38Z</time>
      </trkpt>
      <trkpt lat="48.95115" lon="6.13955">
        <ele>230</ele>
        <time>2011-10-22T12:32:42Z</time>
      </trkpt>
      <trkpt lat="48.95088" lon="6.13936">
        <ele>228.9</ele>
        <time>2011-10-22T12:32:46Z</time>
      </trkpt>
      <trkpt lat="48.95064" lon="6.13938">
        <ele>227.3</ele>
        <time>2011-10-22T12:32:49Z</time>
      </trkpt>
      <trkpt lat="48.95026" lon="6.1392">
        <ele>227.3</ele>
        <time>2011-10-22T12:32:54Z</time>
      </trkpt>
      <trkpt lat="48.94998" lon="6.13897">
        <ele>227.6</ele>
        <time>2011-10-22T12:32:58Z</time>
      </trkpt>
      <trkpt lat="48.94978" lon="6.13889">
        <ele>227.8</ele>
        <time>2011-10-22T12:33:01Z</time>
      </trkpt>
      <trkpt lat="48.94945" lon="6.13889">
        <ele>229.1</ele>
        <time>2011-10-22T12:33:06Z</time>
      </trkpt>
      <trkpt lat="48.9492" lon="6.13887">
        <ele>230.7</ele>
        <time>2011-10-22T12:33:10Z</time>
      </trkpt>
      <trkpt lat="48.94908" lon="6.13885">
        <ele>231.2</ele>
        <time>2011-10-22T12:33:12Z</time>
      </trkpt>
      <trkpt lat="48.94874" lon="6.13886">
        <ele>234.2</ele>
        <time>2011-10-22T12:33:18Z</time>
      </trkpt>
      <trkpt lat="48.94851" lon="6.13889">
        <ele>237.7</ele>
        <time>2011-10-22T12:33:22Z</time>
      </trkpt>
      <trkpt lat="48.94834" lon="6.13895">
        <ele>237.7</ele>
        <time>2011-10-22T12:33:25Z</time>
      </trkpt>
      <trkpt lat="48.94815" lon="6.13903">
        <ele>238.3</ele>
        <time>2011-10-22T12:33:29Z</time>
      </trkpt>
      <trkpt lat="48.94797" lon="6.1391">
        <ele>238.3</ele>
        <time>2011-10-22T12:33:32Z</time>
      </trkpt>
      <trkpt lat="48.9476" lon="6.13922">
        <ele>238.2</ele>
        <time>2011-10-22T12:33:38Z</time>
      </trkpt>
      <trkpt lat="48.94743" lon="6.13928">
        <ele>240.8</ele>
        <time>2011-10-22T12:33:41Z</time>
      </trkpt>
      <trkpt lat="48.94714" lon="6.13949">
        <ele>241.8</ele>
        <time>2011-10-22T12:33:46Z</time>
      </trkpt>
      <trkpt lat="48.94695" lon="6.13963">
        <ele>242.4</ele>
        <time>2011-10-22T12:33:49Z</time>
      </trkpt>
      <trkpt lat="48.94669" lon="6.13981">
        <ele>242.5</ele>
        <time>2011-10-22T12:33:53Z</time>
      </trkpt>
      <trkpt lat="48.94635" lon="6.13999">
        <ele>242</ele>
        <time>2011-10-22T12:33:58Z</time>
      </trkpt>
      <trkpt lat="48.94608" lon="6.14013">
        <ele>241.2</ele>
        <time>2011-10-22T12:34:02Z</time>
      </trkpt>
      <trkpt lat="48.94586" lon="6.14023">
        <ele>241.2</ele>
        <time>2011-10-22T12:34:05Z</time>
      </trkpt>
      <trkpt lat="48.94566" lon="6.14034">
        <ele>241.2</ele>
        <time>2011-10-22T12:34:08Z</time>
      </trkpt>
      <trkpt lat="48.94534" lon="6.14043">
        <ele>239.5</ele>
        <time>2011-10-22T12:34:13Z</time>
      </trkpt>
      <trkpt lat="48.94511" lon="6.1406">
        <ele>243</ele>
        <time>2011-10-22T12:34:17Z</time>
      </trkpt>
      <trkpt lat="48.945" lon="6.14066">
        <ele>243.4</ele>
        <time>2011-10-22T12:34:19Z</time>
      </trkpt>
      <trkpt lat="48.94485" lon="6.14078">
        <ele>245.9</ele>
        <time>2011-10-22T12:34:25Z</time>
      </trkpt>
      <trkpt lat="48.94479" lon="6.141">
        <ele>245.9</ele>
        <time>2011-10-22T12:34:29Z</time>
      </trkpt>
      <trkpt lat="48.94484" lon="6.14148">
        <ele>242.6</ele>
        <time>2011-10-22T12:34:34Z</time>
      </trkpt>
      <trkpt lat="48.94495" lon="6.1419">
        <ele>242.6</ele>
        <time>2011-10-22T12:34:38Z</time>
      </trkpt>
      <trkpt lat="48.94506" lon="6.14246">
        <ele>244.8</ele>
        <time>2011-10-22T12:34:43Z</time>
      </trkpt>
      <trkpt lat="48.94515" lon="6.1429">
        <ele>244.9</ele>
        <time>2011-10-22T12:34:47Z</time>
      </trkpt>
      <trkpt lat="48.94524" lon="6.14331">
        <ele>243.1</ele>
        <time>2011-10-22T12:34:51Z</time>
      </trkpt>
      <trkpt lat="48.94521" lon="6.14369">
        <ele>242.4</ele>
        <time>2011-10-22T12:34:55Z</time>
      </trkpt>
      <trkpt lat="48.94497" lon="6.1439">
        <ele>242.7</ele>
        <time>2011-10-22T12:34:59Z</time>
      </trkpt>
      <trkpt lat="48.9447" lon="6.14406">
        <ele>243</ele>
        <time>2011-10-22T12:35:03Z</time>
      </trkpt>
      <trkpt lat="48.94445" lon="6.14421">
        <ele>243.5</ele>
        <time>2011-10-22T12:35:07Z</time>
      </trkpt>
      <trkpt lat="48.94419" lon="6.14437">
        <ele>244.5</ele>
        <time>2011-10-22T12:35:11Z</time>
      </trkpt>
      <trkpt lat="48.94403" lon="6.14455">
        <ele>244.7</ele>
        <time>2011-10-22T12:35:14Z</time>
      </trkpt>
      <trkpt lat="48.94385" lon="6.14498">
        <ele>245.6</ele>
        <time>2011-10-22T12:35:19Z</time>
      </trkpt>
      <trkpt lat="48.94379" lon="6.14526">
        <ele>245.4</ele>
        <time>2011-10-22T12:35:22Z</time>
      </trkpt>
      <trkpt lat="48.94371" lon="6.14576">
        <ele>245.3</ele>
        <time>2011-10-22T12:35:27Z</time>
      </trkpt>
      <trkpt lat="48.94369" lon="6.14611">
        <ele>245.5</ele>
        <time>2011-10-22T12:35:31Z</time>
      </trkpt>
      <trkpt lat="48.94364" lon="6.14649">
        <ele>247</ele>
        <time>2011-10-22T12:35:35Z</time>
      </trkpt>
      <trkpt lat="48.94355" lon="6.14681">
        <ele>248.9</ele>
        <time>2011-10-22T12:35:39Z</time>
      </trkpt>
      <trkpt lat="48.94343" lon="6.14712">
        <ele>252</ele>
        <time>2011-10-22T12:35:43Z</time>
      </trkpt>
      <trkpt lat="48.94331" lon="6.14734">
        <ele>254</ele>
        <time>2011-10-22T12:35:46Z</time>
      </trkpt>
      <trkpt lat="48.94308" lon="6.14768">
        <ele>255</ele>
        <time>2011-10-22T12:35:51Z</time>
      </trkpt>
      <trkpt lat="48.94289" lon="6.14796">
        <ele>256.3</ele>
        <time>2011-10-22T12:35:55Z</time>
      </trkpt>
      <trkpt lat="48.9427" lon="6.14825">
        <ele>256.6</ele>
        <time>2011-10-22T12:35:59Z</time>
      </trkpt>
      <trkpt lat="48.94251" lon="6.14856">
        <ele>256.6</ele>
        <time>2011-10-22T12:36:03Z</time>
      </trkpt>
      <trkpt lat="48.94231" lon="6.14889">
        <ele>256.3</ele>
        <time>2011-10-22T12:36:07Z</time>
      </trkpt>
      <trkpt lat="48.94212" lon="6.14923">
        <ele>255.9</ele>
        <time>2011-10-22T12:36:11Z</time>
      </trkpt>
      <trkpt lat="48.94191" lon="6.14961">
        <ele>254.9</ele>
        <time>2011-10-22T12:36:15Z</time>
      </trkpt>
      <trkpt lat="48.9417" lon="6.14997">
        <ele>252.6</ele>
        <time>2011-10-22T12:36:19Z</time>
      </trkpt>
      <trkpt lat="48.94146" lon="6.15039">
        <ele>249.2</ele>
        <time>2011-10-22T12:36:23Z</time>
      </trkpt>
      <trkpt lat="48.94119" lon="6.15082">
        <ele>244.7</ele>
        <time>2011-10-22T12:36:27Z</time>
      </trkpt>
      <trkpt lat="48.94085" lon="6.15125">
        <ele>242.4</ele>
        <time>2011-10-22T12:36:31Z</time>
      </trkpt>
      <trkpt lat="48.94057" lon="6.15161">
        <ele>240.8</ele>
        <time>2011-10-22T12:36:34Z</time>
      </trkpt>
      <trkpt lat="48.94015" lon="6.15225">
        <ele>239.1</ele>
        <time>2011-10-22T12:36:39Z</time>
      </trkpt>
      <trkpt lat="48.94" lon="6.15289">
        <ele>237.3</ele>
        <time>2011-10-22T12:36:43Z</time>
      </trkpt>
      <trkpt lat="48.93997" lon="6.15339">
        <ele>238.2</ele>
        <time>2011-10-22T12:36:47Z</time>
      </trkpt>
      <trkpt lat="48.93999" lon="6.15373">
        <ele>239.4</ele>
        <time>2011-10-22T12:36:51Z</time>
      </trkpt>
      <trkpt lat="48.94" lon="6.15399">
        <ele>238.3</ele>
        <time>2011-10-22T12:36:54Z</time>
      </trkpt>
      <trkpt lat="48.94002" lon="6.15432">
        <ele>239.3</ele>
        <time>2011-10-22T12:36:58Z</time>
      </trkpt>
      <trkpt lat="48.94001" lon="6.15461">
        <ele>242.6</ele>
        <time>2011-10-22T12:37:02Z</time>
      </trkpt>
      <trkpt lat="48.94" lon="6.15475">
        <ele>243.9</ele>
        <time>2011-10-22T12:37:04Z</time>
      </trkpt>
      <trkpt lat="48.93995" lon="6.15516">
        <ele>247.2</ele>
        <time>2011-10-22T12:37:10Z</time>
      </trkpt>
      <trkpt lat="48.93993" lon="6.15544">
        <ele>249</ele>
        <time>2011-10-22T12:37:14Z</time>
      </trkpt>
      <trkpt lat="48.93991" lon="6.15575">
        <ele>249.8</ele>
        <time>2011-10-22T12:37:18Z</time>
      </trkpt>
      <trkpt lat="48.93991" lon="6.15604">
        <ele>252.5</ele>
        <time>2011-10-22T12:37:22Z</time>
      </trkpt>
      <trkpt lat="48.93989" lon="6.15636">
        <ele>254.2</ele>
        <time>2011-10-22T12:37:26Z</time>
      </trkpt>
      <trkpt lat="48.93986" lon="6.15669">
        <ele>254.5</ele>
        <time>2011-10-22T12:37:30Z</time>
      </trkpt>
      <trkpt lat="48.93985" lon="6.15686">
        <ele>254.9</ele>
        <time>2011-10-22T12:37:32Z</time>
      </trkpt>
      <trkpt lat="48.93976" lon="6.15715">
        <ele>254.5</ele>
        <time>2011-10-22T12:37:36Z</time>
      </trkpt>
      <trkpt lat="48.93957" lon="6.15753">
        <ele>257.2</ele>
        <time>2011-10-22T12:37:42Z</time>
      </trkpt>
      <trkpt lat="48.9394" lon="6.15774">
        <ele>258.9</ele>
        <time>2011-10-22T12:37:46Z</time>
      </trkpt>
      <trkpt lat="48.93922" lon="6.15794">
        <ele>258.2</ele>
        <time>2011-10-22T12:37:50Z</time>
      </trkpt>
      <trkpt lat="48.93904" lon="6.15812">
        <ele>258.7</ele>
        <time>2011-10-22T12:37:54Z</time>
      </trkpt>
      <trkpt lat="48.93896" lon="6.15821">
        <ele>259.1</ele>
        <time>2011-10-22T12:37:56Z</time>
      </trkpt>
      <trkpt lat="48.93869" lon="6.15851">
        <ele>260.3</ele>
        <time>2011-10-22T12:38:02Z</time>
      </trkpt>
      <trkpt lat="48.93853" lon="6.15869">
        <ele>261.8</ele>
        <time>2011-10-22T12:38:06Z</time>
      </trkpt>
      <trkpt lat="48.93846" lon="6.15879">
        <ele>262.6</ele>
        <time>2011-10-22T12:38:08Z</time>
      </trkpt>
      <trkpt lat="48.9383" lon="6.15946">
        <ele>265.9</ele>
        <time>2011-10-22T12:38:18Z</time>
      </trkpt>
      <trkpt lat="48.93833" lon="6.15979">
        <ele>266.2</ele>
        <time>2011-10-22T12:38:22Z</time>
      </trkpt>
      <trkpt lat="48.93833" lon="6.16012">
        <ele>265.9</ele>
        <time>2011-10-22T12:38:26Z</time>
      </trkpt>
      <trkpt lat="48.93829" lon="6.16026">
        <ele>266.3</ele>
        <time>2011-10-22T12:38:28Z</time>
      </trkpt>
      <trkpt lat="48.9382" lon="6.16055">
        <ele>266.1</ele>
        <time>2011-10-22T12:38:32Z</time>
      </trkpt>
      <trkpt lat="48.93805" lon="6.16099">
        <ele>268.1</ele>
        <time>2011-10-22T12:38:38Z</time>
      </trkpt>
      <trkpt lat="48.93796" lon="6.16129">
        <ele>266.3</ele>
        <time>2011-10-22T12:38:42Z</time>
      </trkpt>
      <trkpt lat="48.93787" lon="6.1616">
        <ele>266.3</ele>
        <time>2011-10-22T12:38:46Z</time>
      </trkpt>
      <trkpt lat="48.93783" lon="6.16175">
        <ele>266.9</ele>
        <time>2011-10-22T12:38:48Z</time>
      </trkpt>
      <trkpt lat="48.9377" lon="6.1622">
        <ele>267.2</ele>
        <time>2011-10-22T12:38:54Z</time>
      </trkpt>
      <trkpt lat="48.93767" lon="6.16234">
        <ele>267.5</ele>
        <time>2011-10-22T12:38:56Z</time>
      </trkpt>
      <trkpt lat="48.93754" lon="6.16278">
        <ele>266.9</ele>
        <time>2011-10-22T12:39:02Z</time>
      </trkpt>
      <trkpt lat="48.93746" lon="6.16303">
        <ele>268.6</ele>
        <time>2011-10-22T12:39:06Z</time>
      </trkpt>
      <trkpt lat="48.93739" lon="6.16331">
        <ele>268.9</ele>
        <time>2011-10-22T12:39:10Z</time>
      </trkpt>
      <trkpt lat="48.9373" lon="6.16359">
        <ele>269</ele>
        <time>2011-10-22T12:39:14Z</time>
      </trkpt>
      <trkpt lat="48.93719" lon="6.1639">
        <ele>269.4</ele>
        <time>2011-10-22T12:39:18Z</time>
      </trkpt>
      <trkpt lat="48.93706" lon="6.1642">
        <ele>270.7</ele>
        <time>2011-10-22T12:39:22Z</time>
      </trkpt>
      <trkpt lat="48.93694" lon="6.16452">
        <ele>270.3</ele>
        <time>2011-10-22T12:39:26Z</time>
      </trkpt>
      <trkpt lat="48.9368" lon="6.16483">
        <ele>267.9</ele>
        <time>2011-10-22T12:39:30Z</time>
      </trkpt>
      <trkpt lat="48.93663" lon="6.16513">
        <ele>265.4</ele>
        <time>2011-10-22T12:39:34Z</time>
      </trkpt>
      <trkpt lat="48.93644" lon="6.16542">
        <ele>265.1</ele>
        <time>2011-10-22T12:39:38Z</time>
      </trkpt>
      <trkpt lat="48.93626" lon="6.16562">
        <ele>263.2</ele>
        <time>2011-10-22T12:39:41Z</time>
      </trkpt>
      <trkpt lat="48.93595" lon="6.16597">
        <ele>261.5</ele>
        <time>2011-10-22T12:39:46Z</time>
      </trkpt>
      <trkpt lat="48.9357" lon="6.16624">
        <ele>261</ele>
        <time>2011-10-22T12:39:50Z</time>
      </trkpt>
      <trkpt lat="48.93542" lon="6.16655">
        <ele>259.4</ele>
        <time>2011-10-22T12:39:54Z</time>
      </trkpt>
      <trkpt lat="48.93522" lon="6.16679">
        <ele>258.9</ele>
        <time>2011-10-22T12:39:57Z</time>
      </trkpt>
      <trkpt lat="48.93498" lon="6.16712">
        <ele>258.4</ele>
        <time>2011-10-22T12:40:01Z</time>
      </trkpt>
      <trkpt lat="48.93479" lon="6.16752">
        <ele>257.4</ele>
        <time>2011-10-22T12:40:05Z</time>
      </trkpt>
      <trkpt lat="48.93462" lon="6.16805">
        <ele>258.4</ele>
        <time>2011-10-22T12:40:10Z</time>
      </trkpt>
      <trkpt lat="48.9345" lon="6.16846">
        <ele>257.4</ele>
        <time>2011-10-22T12:40:14Z</time>
      </trkpt>
      <trkpt lat="48.93439" lon="6.16886">
        <ele>257.5</ele>
        <time>2011-10-22T12:40:18Z</time>
      </trkpt>
      <trkpt lat="48.9343" lon="6.16925">
        <ele>257.9</ele>
        <time>2011-10-22T12:40:22Z</time>
      </trkpt>
      <trkpt lat="48.93423" lon="6.16964">
        <ele>258.4</ele>
        <time>2011-10-22T12:40:26Z</time>
      </trkpt>
      <trkpt lat="48.93416" lon="6.16995">
        <ele>257.6</ele>
        <time>2011-10-22T12:40:29Z</time>
      </trkpt>
      <trkpt lat="48.93398" lon="6.17037">
        <ele>258.5</ele>
        <time>2011-10-22T12:40:34Z</time>
      </trkpt>
      <trkpt lat="48.93376" lon="6.17057">
        <ele>259.7</ele>
        <time>2011-10-22T12:40:38Z</time>
      </trkpt>
      <trkpt lat="48.9336" lon="6.17068">
        <ele>261.8</ele>
        <time>2011-10-22T12:40:41Z</time>
      </trkpt>
      <trkpt lat="48.93333" lon="6.17086">
        <ele>263.3</ele>
        <time>2011-10-22T12:40:46Z</time>
      </trkpt>
      <trkpt lat="48.93312" lon="6.17101">
        <ele>264.6</ele>
        <time>2011-10-22T12:40:50Z</time>
      </trkpt>
      <trkpt lat="48.9329" lon="6.17115">
        <ele>265</ele>
        <time>2011-10-22T12:40:54Z</time>
      </trkpt>
      <trkpt lat="48.93269" lon="6.1713">
        <ele>266.5</ele>
        <time>2011-10-22T12:40:58Z</time>
      </trkpt>
      <trkpt lat="48.9325" lon="6.17147">
        <ele>267.9</ele>
        <time>2011-10-22T12:41:02Z</time>
      </trkpt>
      <trkpt lat="48.93228" lon="6.17162">
        <ele>268.8</ele>
        <time>2011-10-22T12:41:06Z</time>
      </trkpt>
      <trkpt lat="48.93207" lon="6.17177">
        <ele>269.7</ele>
        <time>2011-10-22T12:41:10Z</time>
      </trkpt>
      <trkpt lat="48.93186" lon="6.17191">
        <ele>271.2</ele>
        <time>2011-10-22T12:41:14Z</time>
      </trkpt>
      <trkpt lat="48.93166" lon="6.17205">
        <ele>272.6</ele>
        <time>2011-10-22T12:41:18Z</time>
      </trkpt>
      <trkpt lat="48.93149" lon="6.17215">
        <ele>273.8</ele>
        <time>2011-10-22T12:41:21Z</time>
      </trkpt>
      <trkpt lat="48.93129" lon="6.17229">
        <ele>274.8</ele>
        <time>2011-10-22T12:41:25Z</time>
      </trkpt>
      <trkpt lat="48.93108" lon="6.17244">
        <ele>275.5</ele>
        <time>2011-10-22T12:41:29Z</time>
      </trkpt>
      <trkpt lat="48.9308" lon="6.17261">
        <ele>276.5</ele>
        <time>2011-10-22T12:41:34Z</time>
      </trkpt>
      <trkpt lat="48.93063" lon="6.17273">
        <ele>277</ele>
        <time>2011-10-22T12:41:37Z</time>
      </trkpt>
      <trkpt lat="48.93034" lon="6.17288">
        <ele>276.8</ele>
        <time>2011-10-22T12:41:42Z</time>
      </trkpt>
      <trkpt lat="48.93012" lon="6.173">
        <ele>278.1</ele>
        <time>2011-10-22T12:41:46Z</time>
      </trkpt>
      <trkpt lat="48.9299" lon="6.17313">
        <ele>280</ele>
        <time>2011-10-22T12:41:50Z</time>
      </trkpt>
      <trkpt lat="48.92966" lon="6.17324">
        <ele>279.3</ele>
        <time>2011-10-22T12:41:54Z</time>
      </trkpt>
      <trkpt lat="48.92943" lon="6.17337">
        <ele>279.9</ele>
        <time>2011-10-22T12:41:58Z</time>
      </trkpt>
      <trkpt lat="48.92925" lon="6.17347">
        <ele>280.5</ele>
        <time>2011-10-22T12:42:01Z</time>
      </trkpt>
      <trkpt lat="48.92898" lon="6.17364">
        <ele>280</ele>
        <time>2011-10-22T12:42:06Z</time>
      </trkpt>
      <trkpt lat="48.92874" lon="6.17377">
        <ele>279.7</ele>
        <time>2011-10-22T12:42:10Z</time>
      </trkpt>
      <trkpt lat="48.92851" lon="6.17388">
        <ele>280.2</ele>
        <time>2011-10-22T12:42:14Z</time>
      </trkpt>
      <trkpt lat="48.92828" lon="6.17402">
        <ele>281.3</ele>
        <time>2011-10-22T12:42:18Z</time>
      </trkpt>
      <trkpt lat="48.92804" lon="6.17416">
        <ele>280.7</ele>
        <time>2011-10-22T12:42:22Z</time>
      </trkpt>
      <trkpt lat="48.92781" lon="6.17433">
        <ele>280.6</ele>
        <time>2011-10-22T12:42:26Z</time>
      </trkpt>
      <trkpt lat="48.92755" lon="6.17449">
        <ele>278.3</ele>
        <time>2011-10-22T12:42:30Z</time>
      </trkpt>
      <trkpt lat="48.92726" lon="6.17467">
        <ele>277.7</ele>
        <time>2011-10-22T12:42:34Z</time>
      </trkpt>
      <trkpt lat="48.92697" lon="6.17486">
        <ele>277.3</ele>
        <time>2011-10-22T12:42:38Z</time>
      </trkpt>
      <trkpt lat="48.92668" lon="6.17504">
        <ele>276.2</ele>
        <time>2011-10-22T12:42:42Z</time>
      </trkpt>
      <trkpt lat="48.92638" lon="6.17523">
        <ele>275.1</ele>
        <time>2011-10-22T12:42:46Z</time>
      </trkpt>
      <trkpt lat="48.92607" lon="6.17543">
        <ele>273</ele>
        <time>2011-10-22T12:42:50Z</time>
      </trkpt>
      <trkpt lat="48.92575" lon="6.17563">
        <ele>271.7</ele>
        <time>2011-10-22T12:42:54Z</time>
      </trkpt>
      <trkpt lat="48.9254" lon="6.17585">
        <ele>269.1</ele>
        <time>2011-10-22T12:42:58Z</time>
      </trkpt>
      <trkpt lat="48.92507" lon="6.17604">
        <ele>266.9</ele>
        <time>2011-10-22T12:43:02Z</time>
      </trkpt>
      <trkpt lat="48.92473" lon="6.17623">
        <ele>266</ele>
        <time>2011-10-22T12:43:06Z</time>
      </trkpt>
      <trkpt lat="48.9244" lon="6.17639">
        <ele>263.9</ele>
        <time>2011-10-22T12:43:10Z</time>
      </trkpt>
      <trkpt lat="48.92407" lon="6.17659">
        <ele>261.8</ele>
        <time>2011-10-22T12:43:14Z</time>
      </trkpt>
      <trkpt lat="48.92374" lon="6.17677">
        <ele>261.2</ele>
        <time>2011-10-22T12:43:18Z</time>
      </trkpt>
      <trkpt lat="48.92342" lon="6.17696">
        <ele>259.5</ele>
        <time>2011-10-22T12:43:22Z</time>
      </trkpt>
      <trkpt lat="48.92308" lon="6.17714">
        <ele>258.9</ele>
        <time>2011-10-22T12:43:26Z</time>
      </trkpt>
      <trkpt lat="48.92275" lon="6.17734">
        <ele>257.6</ele>
        <time>2011-10-22T12:43:30Z</time>
      </trkpt>
      <trkpt lat="48.92245" lon="6.17751">
        <ele>255.4</ele>
        <time>2011-10-22T12:43:34Z</time>
      </trkpt>
      <trkpt lat="48.9221" lon="6.17767">
        <ele>253.2</ele>
        <time>2011-10-22T12:43:38Z</time>
      </trkpt>
      <trkpt lat="48.92173" lon="6.17769">
        <ele>251.3</ele>
        <time>2011-10-22T12:43:42Z</time>
      </trkpt>
      <trkpt lat="48.92132" lon="6.17766">
        <ele>247.6</ele>
        <time>2011-10-22T12:43:46Z</time>
      </trkpt>
      <trkpt lat="48.92092" lon="6.17778">
        <ele>243.5</ele>
        <time>2011-10-22T12:43:50Z</time>
      </trkpt>
      <trkpt lat="48.92048" lon="6.17795">
        <ele>240.4</ele>
        <time>2011-10-22T12:43:54Z</time>
      </trkpt>
      <trkpt lat="48.92005" lon="6.17821">
        <ele>236.8</ele>
        <time>2011-10-22T12:43:58Z</time>
      </trkpt>
      <trkpt lat="48.91967" lon="6.17842">
        <ele>236.2</ele>
        <time>2011-10-22T12:44:02Z</time>
      </trkpt>
      <trkpt lat="48.91933" lon="6.17857">
        <ele>235.6</ele>
        <time>2011-10-22T12:44:06Z</time>
      </trkpt>
      <trkpt lat="48.91901" lon="6.17874">
        <ele>236.8</ele>
        <time>2011-10-22T12:44:10Z</time>
      </trkpt>
      <trkpt lat="48.91869" lon="6.17888">
        <ele>236.3</ele>
        <time>2011-10-22T12:44:14Z</time>
      </trkpt>
      <trkpt lat="48.91845" lon="6.17898">
        <ele>234.9</ele>
        <time>2011-10-22T12:44:16Z</time>
      </trkpt>
      <trkpt lat="48.91824" lon="6.17905">
        <ele>235.7</ele>
        <time>2011-10-22T12:44:19Z</time>
      </trkpt>
      <trkpt lat="48.918" lon="6.17912">
        <ele>236.9</ele>
        <time>2011-10-22T12:44:24Z</time>
      </trkpt>
      <trkpt lat="48.91775" lon="6.17871">
        <ele>235.4</ele>
        <time>2011-10-22T12:44:29Z</time>
      </trkpt>
      <trkpt lat="48.91755" lon="6.17826">
        <ele>234</ele>
        <time>2011-10-22T12:44:33Z</time>
      </trkpt>
      <trkpt lat="48.91739" lon="6.17789">
        <ele>235.3</ele>
        <time>2011-10-22T12:44:37Z</time>
      </trkpt>
      <trkpt lat="48.91724" lon="6.17752">
        <ele>231.4</ele>
        <time>2011-10-22T12:44:41Z</time>
      </trkpt>
      <trkpt lat="48.9172" lon="6.17743">
        <ele>231.4</ele>
        <time>2011-10-22T12:44:42Z</time>
      </trkpt>
      <trkpt lat="48.91693" lon="6.17679">
        <ele>230.5</ele>
        <time>2011-10-22T12:44:49Z</time>
      </trkpt>
      <trkpt lat="48.91675" lon="6.17642">
        <ele>231.5</ele>
        <time>2011-10-22T12:44:53Z</time>
      </trkpt>
      <trkpt lat="48.91653" lon="6.17599">
        <ele>232.6</ele>
        <time>2011-10-22T12:44:57Z</time>
      </trkpt>
      <trkpt lat="48.9163" lon="6.17561">
        <ele>231.8</ele>
        <time>2011-10-22T12:45:01Z</time>
      </trkpt>
      <trkpt lat="48.91616" lon="6.1753">
        <ele>229.8</ele>
        <time>2011-10-22T12:45:04Z</time>
      </trkpt>
      <trkpt lat="48.91594" lon="6.17503">
        <ele>226.6</ele>
        <time>2011-10-22T12:45:08Z</time>
      </trkpt>
      <trkpt lat="48.91571" lon="6.17462">
        <ele>225.3</ele>
        <time>2011-10-22T12:45:13Z</time>
      </trkpt>
      <trkpt lat="48.91563" lon="6.17423">
        <ele>224.9</ele>
        <time>2011-10-22T12:45:17Z</time>
      </trkpt>
      <trkpt lat="48.91554" lon="6.17388">
        <ele>225.8</ele>
        <time>2011-10-22T12:45:20Z</time>
      </trkpt>
      <trkpt lat="48.91536" lon="6.17336">
        <ele>225.6</ele>
        <time>2011-10-22T12:45:25Z</time>
      </trkpt>
      <trkpt lat="48.91519" lon="6.17297">
        <ele>226.2</ele>
        <time>2011-10-22T12:45:29Z</time>
      </trkpt>
      <trkpt lat="48.91508" lon="6.17266">
        <ele>226.3</ele>
        <time>2011-10-22T12:45:32Z</time>
      </trkpt>
      <trkpt lat="48.91486" lon="6.17225">
        <ele>227.6</ele>
        <time>2011-10-22T12:45:36Z</time>
      </trkpt>
      <trkpt lat="48.91472" lon="6.17184">
        <ele>227.9</ele>
        <time>2011-10-22T12:45:41Z</time>
      </trkpt>
      <trkpt lat="48.91457" lon="6.17156">
        <ele>225.9</ele>
        <time>2011-10-22T12:45:44Z</time>
      </trkpt>
      <trkpt lat="48.91432" lon="6.171">
        <ele>226.8</ele>
        <time>2011-10-22T12:45:50Z</time>
      </trkpt>
      <trkpt lat="48.91423" lon="6.17078">
        <ele>225.2</ele>
        <time>2011-10-22T12:45:52Z</time>
      </trkpt>
      <trkpt lat="48.91393" lon="6.17044">
        <ele>224.2</ele>
        <time>2011-10-22T12:45:58Z</time>
      </trkpt>
      <trkpt lat="48.91368" lon="6.17067">
        <ele>222.3</ele>
        <time>2011-10-22T12:46:02Z</time>
      </trkpt>
      <trkpt lat="48.91343" lon="6.17092">
        <ele>221.7</ele>
        <time>2011-10-22T12:46:06Z</time>
      </trkpt>
      <trkpt lat="48.91315" lon="6.17105">
        <ele>221.1</ele>
        <time>2011-10-22T12:46:10Z</time>
      </trkpt>
      <trkpt lat="48.91288" lon="6.1711">
        <ele>222.3</ele>
        <time>2011-10-22T12:46:14Z</time>
      </trkpt>
      <trkpt lat="48.91259" lon="6.17105">
        <ele>223.6</ele>
        <time>2011-10-22T12:46:18Z</time>
      </trkpt>
      <trkpt lat="48.91229" lon="6.17095">
        <ele>224.3</ele>
        <time>2011-10-22T12:46:22Z</time>
      </trkpt>
      <trkpt lat="48.91205" lon="6.17078">
        <ele>227</ele>
        <time>2011-10-22T12:46:26Z</time>
      </trkpt>
      <trkpt lat="48.91179" lon="6.17057">
        <ele>227.1</ele>
        <time>2011-10-22T12:46:30Z</time>
      </trkpt>
      <trkpt lat="48.91159" lon="6.17044">
        <ele>229.7</ele>
        <time>2011-10-22T12:46:33Z</time>
      </trkpt>
      <trkpt lat="48.91129" lon="6.17033">
        <ele>231</ele>
        <time>2011-10-22T12:46:38Z</time>
      </trkpt>
      <trkpt lat="48.9111" lon="6.17026">
        <ele>230.5</ele>
        <time>2011-10-22T12:46:41Z</time>
      </trkpt>
      <trkpt lat="48.91079" lon="6.17018">
        <ele>232.2</ele>
        <time>2011-10-22T12:46:46Z</time>
      </trkpt>
      <trkpt lat="48.91056" lon="6.17009">
        <ele>232</ele>
        <time>2011-10-22T12:46:50Z</time>
      </trkpt>
      <trkpt lat="48.91039" lon="6.17004">
        <ele>232.4</ele>
        <time>2011-10-22T12:46:53Z</time>
      </trkpt>
      <trkpt lat="48.91015" lon="6.16997">
        <ele>233.6</ele>
        <time>2011-10-22T12:46:57Z</time>
      </trkpt>
      <trkpt lat="48.90985" lon="6.16988">
        <ele>234.2</ele>
        <time>2011-10-22T12:47:02Z</time>
      </trkpt>
      <trkpt lat="48.90962" lon="6.16981">
        <ele>236.4</ele>
        <time>2011-10-22T12:47:06Z</time>
      </trkpt>
      <trkpt lat="48.90944" lon="6.16976">
        <ele>237.7</ele>
        <time>2011-10-22T12:47:09Z</time>
      </trkpt>
      <trkpt lat="48.90922" lon="6.1697">
        <ele>238.7</ele>
        <time>2011-10-22T12:47:13Z</time>
      </trkpt>
      <trkpt lat="48.909" lon="6.16964">
        <ele>239.6</ele>
        <time>2011-10-22T12:47:17Z</time>
      </trkpt>
      <trkpt lat="48.90878" lon="6.16957">
        <ele>240.6</ele>
        <time>2011-10-22T12:47:21Z</time>
      </trkpt>
      <trkpt lat="48.90856" lon="6.16949">
        <ele>241.2</ele>
        <time>2011-10-22T12:47:25Z</time>
      </trkpt>
      <trkpt lat="48.90836" lon="6.16938">
        <ele>242.2</ele>
        <time>2011-10-22T12:47:29Z</time>
      </trkpt>
      <trkpt lat="48.90809" lon="6.16917">
        <ele>239.8</ele>
        <time>2011-10-22T12:47:34Z</time>
      </trkpt>
      <trkpt lat="48.90788" lon="6.1689">
        <ele>237.7</ele>
        <time>2011-10-22T12:47:38Z</time>
      </trkpt>
      <trkpt lat="48.90772" lon="6.16869">
        <ele>237.4</ele>
        <time>2011-10-22T12:47:41Z</time>
      </trkpt>
      <trkpt lat="48.90734" lon="6.16856">
        <ele>235.6</ele>
        <time>2011-10-22T12:47:46Z</time>
      </trkpt>
      <trkpt lat="48.90699" lon="6.16864">
        <ele>232.3</ele>
        <time>2011-10-22T12:47:50Z</time>
      </trkpt>
      <trkpt lat="48.90662" lon="6.16872">
        <ele>231.7</ele>
        <time>2011-10-22T12:47:54Z</time>
      </trkpt>
      <trkpt lat="48.90626" lon="6.16878">
        <ele>229.9</ele>
        <time>2011-10-22T12:47:58Z</time>
      </trkpt>
      <trkpt lat="48.90594" lon="6.16883">
        <ele>230.4</ele>
        <time>2011-10-22T12:48:02Z</time>
      </trkpt>
      <trkpt lat="48.90561" lon="6.16885">
        <ele>230.1</ele>
        <time>2011-10-22T12:48:06Z</time>
      </trkpt>
      <trkpt lat="48.90538" lon="6.16886">
        <ele>229.5</ele>
        <time>2011-10-22T12:48:09Z</time>
      </trkpt>
      <trkpt lat="48.90502" lon="6.16878">
        <ele>229.7</ele>
        <time>2011-10-22T12:48:14Z</time>
      </trkpt>
      <trkpt lat="48.90472" lon="6.16873">
        <ele>230.8</ele>
        <time>2011-10-22T12:48:18Z</time>
      </trkpt>
      <trkpt lat="48.90442" lon="6.16863">
        <ele>230.2</ele>
        <time>2011-10-22T12:48:22Z</time>
      </trkpt>
      <trkpt lat="48.90419" lon="6.16837">
        <ele>229.9</ele>
        <time>2011-10-22T12:48:26Z</time>
      </trkpt>
      <trkpt lat="48.90408" lon="6.16794">
        <ele>229.1</ele>
        <time>2011-10-22T12:48:30Z</time>
      </trkpt>
      <trkpt lat="48.90404" lon="6.16748">
        <ele>229.2</ele>
        <time>2011-10-22T12:48:34Z</time>
      </trkpt>
      <trkpt lat="48.90398" lon="6.16704">
        <ele>229.4</ele>
        <time>2011-10-22T12:48:38Z</time>
      </trkpt>
      <trkpt lat="48.90399" lon="6.16656">
        <ele>229.2</ele>
        <time>2011-10-22T12:48:42Z</time>
      </trkpt>
      <trkpt lat="48.90398" lon="6.16611">
        <ele>229.8</ele>
        <time>2011-10-22T12:48:46Z</time>
      </trkpt>
      <trkpt lat="48.90397" lon="6.1659">
        <ele>229.1</ele>
        <time>2011-10-22T12:48:48Z</time>
      </trkpt>
      <trkpt lat="48.90398" lon="6.16527">
        <ele>229.3</ele>
        <time>2011-10-22T12:48:54Z</time>
      </trkpt>
      <trkpt lat="48.90395" lon="6.16483">
        <ele>232</ele>
        <time>2011-10-22T12:48:58Z</time>
      </trkpt>
      <trkpt lat="48.90401" lon="6.16441">
        <ele>232.2</ele>
        <time>2011-10-22T12:49:02Z</time>
      </trkpt>
      <trkpt lat="48.90414" lon="6.16418">
        <ele>232.1</ele>
        <time>2011-10-22T12:49:05Z</time>
      </trkpt>
      <trkpt lat="48.90424" lon="6.1642">
        <ele>231.4</ele>
        <time>2011-10-22T12:49:07Z</time>
      </trkpt>
      <trkpt lat="48.90447" lon="6.16377">
        <ele>232.2</ele>
        <time>2011-10-22T12:49:14Z</time>
      </trkpt>
      <trkpt lat="48.9045" lon="6.16368">
        <ele>230</ele>
        <time>2011-10-22T12:49:15Z</time>
      </trkpt>
      <trkpt lat="48.90448" lon="6.16313">
        <ele>230.9</ele>
        <time>2011-10-22T12:49:22Z</time>
      </trkpt>
      <trkpt lat="48.90446" lon="6.16283">
        <ele>231.5</ele>
        <time>2011-10-22T12:49:26Z</time>
      </trkpt>
      <trkpt lat="48.90442" lon="6.16258">
        <ele>233.2</ele>
        <time>2011-10-22T12:49:29Z</time>
      </trkpt>
      <trkpt lat="48.90439" lon="6.1622">
        <ele>233.6</ele>
        <time>2011-10-22T12:49:34Z</time>
      </trkpt>
      <trkpt lat="48.90444" lon="6.16208">
        <ele>237</ele>
        <time>2011-10-22T12:49:37Z</time>
      </trkpt>
      <trkpt lat="48.90452" lon="6.16203">
        <ele>236.7</ele>
        <time>2011-10-22T12:49:39Z</time>
      </trkpt>
      <trkpt lat="48.90484" lon="6.16185">
        <ele>237.5</ele>
        <time>2011-10-22T12:49:46Z</time>
      </trkpt>
      <trkpt lat="48.90504" lon="6.16167">
        <ele>235.8</ele>
        <time>2011-10-22T12:49:50Z</time>
      </trkpt>
      <trkpt lat="48.90512" lon="6.16154">
        <ele>236.4</ele>
        <time>2011-10-22T12:49:52Z</time>
      </trkpt>
      <trkpt lat="48.90532" lon="6.16113">
        <ele>233.6</ele>
        <time>2011-10-22T12:49:58Z</time>
      </trkpt>
      <trkpt lat="48.90544" lon="6.16088">
        <ele>233.4</ele>
        <time>2011-10-22T12:50:01Z</time>
      </trkpt>
      <trkpt lat="48.90578" lon="6.16084">
        <ele>231.6</ele>
        <time>2011-10-22T12:50:06Z</time>
      </trkpt>
      <trkpt lat="48.90607" lon="6.16088">
        <ele>233</ele>
        <time>2011-10-22T12:50:10Z</time>
      </trkpt>
      <trkpt lat="48.90629" lon="6.1609">
        <ele>233.5</ele>
        <time>2011-10-22T12:50:13Z</time>
      </trkpt>
      <trkpt lat="48.90663" lon="6.16087">
        <ele>235.5</ele>
        <time>2011-10-22T12:50:18Z</time>
      </trkpt>
      <trkpt lat="48.90688" lon="6.16072">
        <ele>236.6</ele>
        <time>2011-10-22T12:50:22Z</time>
      </trkpt>
      <trkpt lat="48.9071" lon="6.16051">
        <ele>236.9</ele>
        <time>2011-10-22T12:50:26Z</time>
      </trkpt>
      <trkpt lat="48.9075" lon="6.16003">
        <ele>235.9</ele>
        <time>2011-10-22T12:50:34Z</time>
      </trkpt>
      <trkpt lat="48.90779" lon="6.15997">
        <ele>237.5</ele>
        <time>2011-10-22T12:50:38Z</time>
      </trkpt>
      <trkpt lat="48.90796" lon="6.16004">
        <ele>240.4</ele>
        <time>2011-10-22T12:50:41Z</time>
      </trkpt>
      <trkpt lat="48.90825" lon="6.16015">
        <ele>243.1</ele>
        <time>2011-10-22T12:50:46Z</time>
      </trkpt>
      <trkpt lat="48.90849" lon="6.16021">
        <ele>245.4</ele>
        <time>2011-10-22T12:50:50Z</time>
      </trkpt>
      <trkpt lat="48.90867" lon="6.16025">
        <ele>246.7</ele>
        <time>2011-10-22T12:50:53Z</time>
      </trkpt>
      <trkpt lat="48.90893" lon="6.16032">
        <ele>245.4</ele>
        <time>2011-10-22T12:50:57Z</time>
      </trkpt>
      <trkpt lat="48.90924" lon="6.1604">
        <ele>245.1</ele>
        <time>2011-10-22T12:51:02Z</time>
      </trkpt>
      <trkpt lat="48.90936" lon="6.16044">
        <ele>245.6</ele>
        <time>2011-10-22T12:51:04Z</time>
      </trkpt>
      <trkpt lat="48.90971" lon="6.16056">
        <ele>244</ele>
        <time>2011-10-22T12:51:10Z</time>
      </trkpt>
      <trkpt lat="48.90996" lon="6.16062">
        <ele>243.8</ele>
        <time>2011-10-22T12:51:14Z</time>
      </trkpt>
      <trkpt lat="48.91008" lon="6.16063">
        <ele>243.3</ele>
        <time>2011-10-22T12:51:16Z</time>
      </trkpt>
      <trkpt lat="48.91047" lon="6.16062">
        <ele>244.9</ele>
        <time>2011-10-22T12:51:22Z</time>
      </trkpt>
      <trkpt lat="48.91073" lon="6.16062">
        <ele>244.1</ele>
        <time>2011-10-22T12:51:26Z</time>
      </trkpt>
      <trkpt lat="48.91096" lon="6.16061">
        <ele>243</ele>
        <time>2011-10-22T12:51:30Z</time>
      </trkpt>
      <trkpt lat="48.9112" lon="6.16057">
        <ele>244.3</ele>
        <time>2011-10-22T12:51:34Z</time>
      </trkpt>
      <trkpt lat="48.91144" lon="6.16054">
        <ele>243.5</ele>
        <time>2011-10-22T12:51:38Z</time>
      </trkpt>
      <trkpt lat="48.91169" lon="6.16051">
        <ele>243.2</ele>
        <time>2011-10-22T12:51:42Z</time>
      </trkpt>
      <trkpt lat="48.91188" lon="6.1605">
        <ele>241.9</ele>
        <time>2011-10-22T12:51:45Z</time>
      </trkpt>
      <trkpt lat="48.9121" lon="6.16049">
        <ele>244.3</ele>
        <time>2011-10-22T12:51:49Z</time>
      </trkpt>
      <trkpt lat="48.91228" lon="6.16047">
        <ele>245.9</ele>
        <time>2011-10-22T12:51:52Z</time>
      </trkpt>
      <trkpt lat="48.91264" lon="6.16043">
        <ele>246.9</ele>
        <time>2011-10-22T12:51:58Z</time>
      </trkpt>
      <trkpt lat="48.91287" lon="6.16037">
        <ele>247.1</ele>
        <time>2011-10-22T12:52:02Z</time>
      </trkpt>
      <trkpt lat="48.91307" lon="6.16019">
        <ele>247.5</ele>
        <time>2011-10-22T12:52:06Z</time>
      </trkpt>
      <trkpt lat="48.91346" lon="6.15974">
        <ele>247.6</ele>
        <time>2011-10-22T12:52:14Z</time>
      </trkpt>
      <trkpt lat="48.91371" lon="6.15948">
        <ele>246.8</ele>
        <time>2011-10-22T12:52:18Z</time>
      </trkpt>
      <trkpt lat="48.91389" lon="6.15926">
        <ele>246.2</ele>
        <time>2011-10-22T12:52:22Z</time>
      </trkpt>
      <trkpt lat="48.91406" lon="6.15904">
        <ele>247.9</ele>
        <time>2011-10-22T12:52:26Z</time>
      </trkpt>
      <trkpt lat="48.91419" lon="6.15884">
        <ele>250</ele>
        <time>2011-10-22T12:52:30Z</time>
      </trkpt>
      <trkpt lat="48.91429" lon="6.15879">
        <ele>250.3</ele>
        <time>2011-10-22T12:52:37Z</time>
      </trkpt>
      <trkpt lat="48.91423" lon="6.15886">
        <ele>250</ele>
        <time>2011-10-22T12:52:41Z</time>
      </trkpt>
      <trkpt lat="48.9142" lon="6.15895">
        <ele>248.8</ele>
        <time>2011-10-22T12:52:48Z</time>
      </trkpt>
      <trkpt lat="48.91426" lon="6.15897">
        <ele>252.8</ele>
        <time>2011-10-22T12:53:45Z</time>
      </trkpt>
      <trkpt lat="48.91425" lon="6.15885">
        <ele>252</ele>
        <time>2011-10-22T12:54:30Z</time>
      </trkpt>
      <trkpt lat="48.91429" lon="6.15877">
        <ele>253.5</ele>
        <time>2011-10-22T12:54:37Z</time>
      </trkpt>
      <trkpt lat="48.91425" lon="6.15884">
        <ele>254.1</ele>
        <time>2011-10-22T12:54:48Z</time>
      </trkpt>
      <trkpt lat="48.91442" lon="6.1587">
        <ele>255.1</ele>
        <time>2011-10-22T12:54:56Z</time>
      </trkpt>
      <trkpt lat="48.91461" lon="6.15844">
        <ele>257.6</ele>
        <time>2011-10-22T12:55:02Z</time>
      </trkpt>
      <trkpt lat="48.91473" lon="6.15834">
        <ele>257.8</ele>
        <time>2011-10-22T12:55:06Z</time>
      </trkpt>
      <trkpt lat="48.91481" lon="6.15826">
        <ele>257.7</ele>
        <time>2011-10-22T12:55:08Z</time>
      </trkpt>
      <trkpt lat="48.91496" lon="6.15803">
        <ele>255.3</ele>
        <time>2011-10-22T12:55:12Z</time>
      </trkpt>
      <trkpt lat="48.91512" lon="6.15789">
        <ele>256.8</ele>
        <time>2011-10-22T12:55:17Z</time>
      </trkpt>
      <trkpt lat="48.91532" lon="6.15765">
        <ele>255.5</ele>
        <time>2011-10-22T12:55:22Z</time>
      </trkpt>
      <trkpt lat="48.91539" lon="6.15761">
        <ele>255.8</ele>
        <time>2011-10-22T12:55:24Z</time>
      </trkpt>
      <trkpt lat="48.91563" lon="6.15743">
        <ele>255.9</ele>
        <time>2011-10-22T12:55:29Z</time>
      </trkpt>
      <trkpt lat="48.91589" lon="6.15717">
        <ele>256.5</ele>
        <time>2011-10-22T12:55:34Z</time>
      </trkpt>
      <trkpt lat="48.91606" lon="6.15701">
        <ele>256.2</ele>
        <time>2011-10-22T12:55:37Z</time>
      </trkpt>
      <trkpt lat="48.91633" lon="6.15678">
        <ele>255.9</ele>
        <time>2011-10-22T12:55:42Z</time>
      </trkpt>
      <trkpt lat="48.9165" lon="6.15651">
        <ele>256.9</ele>
        <time>2011-10-22T12:55:46Z</time>
      </trkpt>
      <trkpt lat="48.91656" lon="6.15615">
        <ele>256.8</ele>
        <time>2011-10-22T12:55:50Z</time>
      </trkpt>
      <trkpt lat="48.91652" lon="6.15601">
        <ele>257</ele>
        <time>2011-10-22T12:55:52Z</time>
      </trkpt>
      <trkpt lat="48.91642" lon="6.1558">
        <ele>257.6</ele>
        <time>2011-10-22T12:55:55Z</time>
      </trkpt>
      <trkpt lat="48.91625" lon="6.15556">
        <ele>257.5</ele>
        <time>2011-10-22T12:55:59Z</time>
      </trkpt>
      <trkpt lat="48.91596" lon="6.15517">
        <ele>259.8</ele>
        <time>2011-10-22T12:56:06Z</time>
      </trkpt>
      <trkpt lat="48.9158" lon="6.15487">
        <ele>259.4</ele>
        <time>2011-10-22T12:56:10Z</time>
      </trkpt>
      <trkpt lat="48.91562" lon="6.15459">
        <ele>260.9</ele>
        <time>2011-10-22T12:56:14Z</time>
      </trkpt>
      <trkpt lat="48.91547" lon="6.15437">
        <ele>259.2</ele>
        <time>2011-10-22T12:56:17Z</time>
      </trkpt>
      <trkpt lat="48.9153" lon="6.15411">
        <ele>260.8</ele>
        <time>2011-10-22T12:56:21Z</time>
      </trkpt>
      <trkpt lat="48.91507" lon="6.15379">
        <ele>260.7</ele>
        <time>2011-10-22T12:56:26Z</time>
      </trkpt>
      <trkpt lat="48.91488" lon="6.15352">
        <ele>259</ele>
        <time>2011-10-22T12:56:30Z</time>
      </trkpt>
      <trkpt lat="48.91473" lon="6.15331">
        <ele>259.3</ele>
        <time>2011-10-22T12:56:33Z</time>
      </trkpt>
      <trkpt lat="48.91458" lon="6.15302">
        <ele>260</ele>
        <time>2011-10-22T12:56:37Z</time>
      </trkpt>
      <trkpt lat="48.91442" lon="6.15263">
        <ele>261.2</ele>
        <time>2011-10-22T12:56:42Z</time>
      </trkpt>
      <trkpt lat="48.9143" lon="6.15238">
        <ele>260</ele>
        <time>2011-10-22T12:56:45Z</time>
      </trkpt>
      <trkpt lat="48.91419" lon="6.15203">
        <ele>260.1</ele>
        <time>2011-10-22T12:56:49Z</time>
      </trkpt>
      <trkpt lat="48.91407" lon="6.15156">
        <ele>259.4</ele>
        <time>2011-10-22T12:56:54Z</time>
      </trkpt>
      <trkpt lat="48.91398" lon="6.15108">
        <ele>259.7</ele>
        <time>2011-10-22T12:56:59Z</time>
      </trkpt>
      <trkpt lat="48.91392" lon="6.15078">
        <ele>259</ele>
        <time>2011-10-22T12:57:02Z</time>
      </trkpt>
      <trkpt lat="48.91386" lon="6.15037">
        <ele>260</ele>
        <time>2011-10-22T12:57:06Z</time>
      </trkpt>
      <trkpt lat="48.91381" lon="6.14986">
        <ele>259.1</ele>
        <time>2011-10-22T12:57:11Z</time>
      </trkpt>
      <trkpt lat="48.91381" lon="6.14944">
        <ele>258.9</ele>
        <time>2011-10-22T12:57:15Z</time>
      </trkpt>
      <trkpt lat="48.91383" lon="6.14901">
        <ele>258.8</ele>
        <time>2011-10-22T12:57:19Z</time>
      </trkpt>
      <trkpt lat="48.91383" lon="6.14858">
        <ele>259</ele>
        <time>2011-10-22T12:57:23Z</time>
      </trkpt>
      <trkpt lat="48.91382" lon="6.14815">
        <ele>258.6</ele>
        <time>2011-10-22T12:57:27Z</time>
      </trkpt>
      <trkpt lat="48.9138" lon="6.14787">
        <ele>259.1</ele>
        <time>2011-10-22T12:57:30Z</time>
      </trkpt>
      <trkpt lat="48.91373" lon="6.14732">
        <ele>259.6</ele>
        <time>2011-10-22T12:57:35Z</time>
      </trkpt>
      <trkpt lat="48.91366" lon="6.14689">
        <ele>261.5</ele>
        <time>2011-10-22T12:57:39Z</time>
      </trkpt>
      <trkpt lat="48.91363" lon="6.14659">
        <ele>262.5</ele>
        <time>2011-10-22T12:57:42Z</time>
      </trkpt>
      <trkpt lat="48.91356" lon="6.14608">
        <ele>263.1</ele>
        <time>2011-10-22T12:57:47Z</time>
      </trkpt>
      <trkpt lat="48.9135" lon="6.14567">
        <ele>263.6</ele>
        <time>2011-10-22T12:57:51Z</time>
      </trkpt>
      <trkpt lat="48.91344" lon="6.14526">
        <ele>264.4</ele>
        <time>2011-10-22T12:57:55Z</time>
      </trkpt>
      <trkpt lat="48.91338" lon="6.14486">
        <ele>262.4</ele>
        <time>2011-10-22T12:57:59Z</time>
      </trkpt>
      <trkpt lat="48.91329" lon="6.14446">
        <ele>263.8</ele>
        <time>2011-10-22T12:58:03Z</time>
      </trkpt>
      <trkpt lat="48.91317" lon="6.14409">
        <ele>265.5</ele>
        <time>2011-10-22T12:58:07Z</time>
      </trkpt>
      <trkpt lat="48.91303" lon="6.1437">
        <ele>266</ele>
        <time>2011-10-22T12:58:11Z</time>
      </trkpt>
      <trkpt lat="48.91291" lon="6.1433">
        <ele>267.4</ele>
        <time>2011-10-22T12:58:15Z</time>
      </trkpt>
      <trkpt lat="48.91278" lon="6.14292">
        <ele>267.6</ele>
        <time>2011-10-22T12:58:19Z</time>
      </trkpt>
      <trkpt lat="48.91265" lon="6.14255">
        <ele>268.4</ele>
        <time>2011-10-22T12:58:23Z</time>
      </trkpt>
      <trkpt lat="48.91249" lon="6.14218">
        <ele>269.4</ele>
        <time>2011-10-22T12:58:27Z</time>
      </trkpt>
      <trkpt lat="48.91234" lon="6.1418">
        <ele>270</ele>
        <time>2011-10-22T12:58:31Z</time>
      </trkpt>
      <trkpt lat="48.91219" lon="6.14143">
        <ele>271.1</ele>
        <time>2011-10-22T12:58:35Z</time>
      </trkpt>
      <trkpt lat="48.91204" lon="6.14105">
        <ele>272.1</ele>
        <time>2011-10-22T12:58:39Z</time>
      </trkpt>
      <trkpt lat="48.91192" lon="6.14068">
        <ele>272</ele>
        <time>2011-10-22T12:58:43Z</time>
      </trkpt>
      <trkpt lat="48.91182" lon="6.14033">
        <ele>272.3</ele>
        <time>2011-10-22T12:58:47Z</time>
      </trkpt>
      <trkpt lat="48.91175" lon="6.14006">
        <ele>272.4</ele>
        <time>2011-10-22T12:58:50Z</time>
      </trkpt>
      <trkpt lat="48.91163" lon="6.13962">
        <ele>272.4</ele>
        <time>2011-10-22T12:58:55Z</time>
      </trkpt>
      <trkpt lat="48.91154" lon="6.13928">
        <ele>272.1</ele>
        <time>2011-10-22T12:58:59Z</time>
      </trkpt>
      <trkpt lat="48.91146" lon="6.13894">
        <ele>272.1</ele>
        <time>2011-10-22T12:59:03Z</time>
      </trkpt>
      <trkpt lat="48.91139" lon="6.13858">
        <ele>271.8</ele>
        <time>2011-10-22T12:59:07Z</time>
      </trkpt>
      <trkpt lat="48.91132" lon="6.13822">
        <ele>272.2</ele>
        <time>2011-10-22T12:59:11Z</time>
      </trkpt>
      <trkpt lat="48.91127" lon="6.13788">
        <ele>272.7</ele>
        <time>2011-10-22T12:59:15Z</time>
      </trkpt>
      <trkpt lat="48.91123" lon="6.13751">
        <ele>272.2</ele>
        <time>2011-10-22T12:59:19Z</time>
      </trkpt>
      <trkpt lat="48.91119" lon="6.13711">
        <ele>273.2</ele>
        <time>2011-10-22T12:59:23Z</time>
      </trkpt>
      <trkpt lat="48.91116" lon="6.1367">
        <ele>273.5</ele>
        <time>2011-10-22T12:59:27Z</time>
      </trkpt>
      <trkpt lat="48.91116" lon="6.1365">
        <ele>273.1</ele>
        <time>2011-10-22T12:59:29Z</time>
      </trkpt>
      <trkpt lat="48.91116" lon="6.13601">
        <ele>275</ele>
        <time>2011-10-22T12:59:34Z</time>
      </trkpt>
      <trkpt lat="48.91114" lon="6.13551">
        <ele>276.4</ele>
        <time>2011-10-22T12:59:39Z</time>
      </trkpt>
      <trkpt lat="48.91114" lon="6.13521">
        <ele>276.3</ele>
        <time>2011-10-22T12:59:42Z</time>
      </trkpt>
      <trkpt lat="48.91114" lon="6.13493">
        <ele>276.8</ele>
        <time>2011-10-22T12:59:45Z</time>
      </trkpt>
      <trkpt lat="48.91113" lon="6.13434">
        <ele>277.1</ele>
        <time>2011-10-22T12:59:51Z</time>
      </trkpt>
      <trkpt lat="48.91108" lon="6.13396">
        <ele>277.4</ele>
        <time>2011-10-22T12:59:55Z</time>
      </trkpt>
      <trkpt lat="48.91104" lon="6.13363">
        <ele>277.3</ele>
        <time>2011-10-22T12:59:58Z</time>
      </trkpt>
      <trkpt lat="48.91098" lon="6.13313">
        <ele>279.8</ele>
        <time>2011-10-22T13:00:03Z</time>
      </trkpt>
      <trkpt lat="48.91093" lon="6.1327">
        <ele>279.8</ele>
        <time>2011-10-22T13:00:07Z</time>
      </trkpt>
      <trkpt lat="48.91085" lon="6.13224">
        <ele>279.1</ele>
        <time>2011-10-22T13:00:11Z</time>
      </trkpt>
      <trkpt lat="48.91079" lon="6.13177">
        <ele>277</ele>
        <time>2011-10-22T13:00:15Z</time>
      </trkpt>
      <trkpt lat="48.91067" lon="6.13129">
        <ele>276.4</ele>
        <time>2011-10-22T13:00:19Z</time>
      </trkpt>
      <trkpt lat="48.91053" lon="6.13088">
        <ele>276.8</ele>
        <time>2011-10-22T13:00:23Z</time>
      </trkpt>
      <trkpt lat="48.91037" lon="6.13046">
        <ele>276.6</ele>
        <time>2011-10-22T13:00:27Z</time>
      </trkpt>
      <trkpt lat="48.91016" lon="6.13005">
        <ele>276</ele>
        <time>2011-10-22T13:00:31Z</time>
      </trkpt>
      <trkpt lat="48.91002" lon="6.12976">
        <ele>276.9</ele>
        <time>2011-10-22T13:00:34Z</time>
      </trkpt>
      <trkpt lat="48.90983" lon="6.12939">
        <ele>276.9</ele>
        <time>2011-10-22T13:00:38Z</time>
      </trkpt>
      <trkpt lat="48.90953" lon="6.12891">
        <ele>277</ele>
        <time>2011-10-22T13:00:43Z</time>
      </trkpt>
      <trkpt lat="48.90937" lon="6.12858">
        <ele>276.7</ele>
        <time>2011-10-22T13:00:47Z</time>
      </trkpt>
      <trkpt lat="48.90913" lon="6.12823">
        <ele>276.1</ele>
        <time>2011-10-22T13:00:51Z</time>
      </trkpt>
      <trkpt lat="48.9089" lon="6.12793">
        <ele>275.7</ele>
        <time>2011-10-22T13:00:55Z</time>
      </trkpt>
      <trkpt lat="48.90864" lon="6.12765">
        <ele>277.1</ele>
        <time>2011-10-22T13:00:59Z</time>
      </trkpt>
      <trkpt lat="48.90845" lon="6.12748">
        <ele>277.6</ele>
        <time>2011-10-22T13:01:02Z</time>
      </trkpt>
      <trkpt lat="48.90816" lon="6.12712">
        <ele>277.6</ele>
        <time>2011-10-22T13:01:07Z</time>
      </trkpt>
      <trkpt lat="48.90792" lon="6.1268">
        <ele>277.7</ele>
        <time>2011-10-22T13:01:10Z</time>
      </trkpt>
      <trkpt lat="48.90771" lon="6.12647">
        <ele>276.5</ele>
        <time>2011-10-22T13:01:14Z</time>
      </trkpt>
      <trkpt lat="48.90752" lon="6.12619">
        <ele>278</ele>
        <time>2011-10-22T13:01:17Z</time>
      </trkpt>
      <trkpt lat="48.90719" lon="6.12573">
        <ele>278.6</ele>
        <time>2011-10-22T13:01:22Z</time>
      </trkpt>
      <trkpt lat="48.90692" lon="6.12532">
        <ele>277.4</ele>
        <time>2011-10-22T13:01:26Z</time>
      </trkpt>
      <trkpt lat="48.90673" lon="6.125">
        <ele>276.7</ele>
        <time>2011-10-22T13:01:30Z</time>
      </trkpt>
      <trkpt lat="48.90635" lon="6.12446">
        <ele>273.2</ele>
        <time>2011-10-22T13:01:34Z</time>
      </trkpt>
      <trkpt lat="48.90607" lon="6.12403">
        <ele>272.8</ele>
        <time>2011-10-22T13:01:38Z</time>
      </trkpt>
      <trkpt lat="48.90585" lon="6.12373">
        <ele>271.9</ele>
        <time>2011-10-22T13:01:41Z</time>
      </trkpt>
      <trkpt lat="48.90553" lon="6.12327">
        <ele>272.7</ele>
        <time>2011-10-22T13:01:46Z</time>
      </trkpt>
      <trkpt lat="48.90537" lon="6.12303">
        <ele>272.7</ele>
        <time>2011-10-22T13:01:48Z</time>
      </trkpt>
      <trkpt lat="48.90508" lon="6.1226">
        <ele>270.4</ele>
        <time>2011-10-22T13:01:54Z</time>
      </trkpt>
      <trkpt lat="48.90476" lon="6.12211">
        <ele>270.2</ele>
        <time>2011-10-22T13:01:58Z</time>
      </trkpt>
      <trkpt lat="48.90449" lon="6.12167">
        <ele>271.6</ele>
        <time>2011-10-22T13:02:02Z</time>
      </trkpt>
      <trkpt lat="48.90421" lon="6.12128">
        <ele>270</ele>
        <time>2011-10-22T13:02:06Z</time>
      </trkpt>
      <trkpt lat="48.90398" lon="6.12091">
        <ele>268.8</ele>
        <time>2011-10-22T13:02:10Z</time>
      </trkpt>
      <trkpt lat="48.90377" lon="6.12061">
        <ele>267.3</ele>
        <time>2011-10-22T13:02:13Z</time>
      </trkpt>
      <trkpt lat="48.9035" lon="6.12023">
        <ele>268.3</ele>
        <time>2011-10-22T13:02:17Z</time>
      </trkpt>
      <trkpt lat="48.90317" lon="6.11974">
        <ele>269.4</ele>
        <time>2011-10-22T13:02:22Z</time>
      </trkpt>
      <trkpt lat="48.90292" lon="6.11929">
        <ele>267.8</ele>
        <time>2011-10-22T13:02:26Z</time>
      </trkpt>
      <trkpt lat="48.90268" lon="6.1189">
        <ele>268.4</ele>
        <time>2011-10-22T13:02:30Z</time>
      </trkpt>
      <trkpt lat="48.9024" lon="6.1185">
        <ele>269.8</ele>
        <time>2011-10-22T13:02:34Z</time>
      </trkpt>
      <trkpt lat="48.90207" lon="6.11811">
        <ele>269.5</ele>
        <time>2011-10-22T13:02:38Z</time>
      </trkpt>
      <trkpt lat="48.90185" lon="6.1177">
        <ele>269</ele>
        <time>2011-10-22T13:02:42Z</time>
      </trkpt>
      <trkpt lat="48.90165" lon="6.11744">
        <ele>269.2</ele>
        <time>2011-10-22T13:02:45Z</time>
      </trkpt>
      <trkpt lat="48.90131" lon="6.11699">
        <ele>271.6</ele>
        <time>2011-10-22T13:02:49Z</time>
      </trkpt>
      <trkpt lat="48.90097" lon="6.11653">
        <ele>270.3</ele>
        <time>2011-10-22T13:02:54Z</time>
      </trkpt>
      <trkpt lat="48.9008" lon="6.11618">
        <ele>269.7</ele>
        <time>2011-10-22T13:02:57Z</time>
      </trkpt>
      <trkpt lat="48.90048" lon="6.11564">
        <ele>267.4</ele>
        <time>2011-10-22T13:03:02Z</time>
      </trkpt>
      <trkpt lat="48.90022" lon="6.11522">
        <ele>263.2</ele>
        <time>2011-10-22T13:03:06Z</time>
      </trkpt>
      <trkpt lat="48.89996" lon="6.11484">
        <ele>266.1</ele>
        <time>2011-10-22T13:03:10Z</time>
      </trkpt>
      <trkpt lat="48.89964" lon="6.11441">
        <ele>265.2</ele>
        <time>2011-10-22T13:03:14Z</time>
      </trkpt>
      <trkpt lat="48.89931" lon="6.11393">
        <ele>262.6</ele>
        <time>2011-10-22T13:03:18Z</time>
      </trkpt>
      <trkpt lat="48.89906" lon="6.11356">
        <ele>262</ele>
        <time>2011-10-22T13:03:21Z</time>
      </trkpt>
      <trkpt lat="48.89874" lon="6.11303">
        <ele>261.4</ele>
        <time>2011-10-22T13:03:25Z</time>
      </trkpt>
      <trkpt lat="48.89831" lon="6.11235">
        <ele>258.1</ele>
        <time>2011-10-22T13:03:30Z</time>
      </trkpt>
      <trkpt lat="48.89818" lon="6.11202">
        <ele>254.7</ele>
        <time>2011-10-22T13:03:32Z</time>
      </trkpt>
      <trkpt lat="48.89805" lon="6.11122">
        <ele>253.7</ele>
        <time>2011-10-22T13:03:37Z</time>
      </trkpt>
      <trkpt lat="48.89793" lon="6.11039">
        <ele>251.7</ele>
        <time>2011-10-22T13:03:42Z</time>
      </trkpt>
      <trkpt lat="48.89783" lon="6.11005">
        <ele>250.5</ele>
        <time>2011-10-22T13:03:44Z</time>
      </trkpt>
      <trkpt lat="48.89744" lon="6.10912">
        <ele>250.8</ele>
        <time>2011-10-22T13:03:50Z</time>
      </trkpt>
      <trkpt lat="48.89717" lon="6.10861">
        <ele>248.8</ele>
        <time>2011-10-22T13:03:54Z</time>
      </trkpt>
      <trkpt lat="48.89697" lon="6.1082">
        <ele>245.2</ele>
        <time>2011-10-22T13:03:57Z</time>
      </trkpt>
      <trkpt lat="48.89653" lon="6.10758">
        <ele>243.7</ele>
        <time>2011-10-22T13:04:02Z</time>
      </trkpt>
      <trkpt lat="48.89617" lon="6.10716">
        <ele>243.8</ele>
        <time>2011-10-22T13:04:06Z</time>
      </trkpt>
      <trkpt lat="48.89582" lon="6.10684">
        <ele>244.6</ele>
        <time>2011-10-22T13:04:10Z</time>
      </trkpt>
      <trkpt lat="48.89545" lon="6.10679">
        <ele>246.5</ele>
        <time>2011-10-22T13:04:14Z</time>
      </trkpt>
      <trkpt lat="48.89515" lon="6.10694">
        <ele>247.8</ele>
        <time>2011-10-22T13:04:18Z</time>
      </trkpt>
      <trkpt lat="48.89484" lon="6.10707">
        <ele>249.4</ele>
        <time>2011-10-22T13:04:22Z</time>
      </trkpt>
      <trkpt lat="48.89466" lon="6.10694">
        <ele>249</ele>
        <time>2011-10-22T13:04:25Z</time>
      </trkpt>
      <trkpt lat="48.89462" lon="6.10635">
        <ele>251.3</ele>
        <time>2011-10-22T13:04:30Z</time>
      </trkpt>
      <trkpt lat="48.89459" lon="6.10607">
        <ele>251.6</ele>
        <time>2011-10-22T13:04:32Z</time>
      </trkpt>
      <trkpt lat="48.89451" lon="6.10538">
        <ele>250.9</ele>
        <time>2011-10-22T13:04:38Z</time>
      </trkpt>
      <trkpt lat="48.89446" lon="6.10515">
        <ele>249.6</ele>
        <time>2011-10-22T13:04:40Z</time>
      </trkpt>
      <trkpt lat="48.89434" lon="6.10427">
        <ele>248</ele>
        <time>2011-10-22T13:04:46Z</time>
      </trkpt>
      <trkpt lat="48.89427" lon="6.1041">
        <ele>248</ele>
        <time>2011-10-22T13:04:48Z</time>
      </trkpt>
      <trkpt lat="48.8942" lon="6.10348">
        <ele>249</ele>
        <time>2011-10-22T13:04:53Z</time>
      </trkpt>
      <trkpt lat="48.89407" lon="6.10295">
        <ele>250.2</ele>
        <time>2011-10-22T13:04:58Z</time>
      </trkpt>
      <trkpt lat="48.89397" lon="6.10246">
        <ele>250.5</ele>
        <time>2011-10-22T13:05:02Z</time>
      </trkpt>
      <trkpt lat="48.89388" lon="6.1021">
        <ele>249.6</ele>
        <time>2011-10-22T13:05:05Z</time>
      </trkpt>
      <trkpt lat="48.89374" lon="6.10147">
        <ele>251.6</ele>
        <time>2011-10-22T13:05:10Z</time>
      </trkpt>
      <trkpt lat="48.89368" lon="6.10113">
        <ele>250.5</ele>
        <time>2011-10-22T13:05:13Z</time>
      </trkpt>
      <trkpt lat="48.89355" lon="6.10047">
        <ele>249.4</ele>
        <time>2011-10-22T13:05:18Z</time>
      </trkpt>
      <trkpt lat="48.89346" lon="6.09989">
        <ele>245.9</ele>
        <time>2011-10-22T13:05:22Z</time>
      </trkpt>
      <trkpt lat="48.8934" lon="6.09924">
        <ele>243</ele>
        <time>2011-10-22T13:05:26Z</time>
      </trkpt>
      <trkpt lat="48.8933" lon="6.09855">
        <ele>244.1</ele>
        <time>2011-10-22T13:05:30Z</time>
      </trkpt>
      <trkpt lat="48.89324" lon="6.09809">
        <ele>243.7</ele>
        <time>2011-10-22T13:05:33Z</time>
      </trkpt>
      <trkpt lat="48.89314" lon="6.09753">
        <ele>243.2</ele>
        <time>2011-10-22T13:05:37Z</time>
      </trkpt>
      <trkpt lat="48.8929" lon="6.09702">
        <ele>243.6</ele>
        <time>2011-10-22T13:05:42Z</time>
      </trkpt>
      <trkpt lat="48.89248" lon="6.0968">
        <ele>245</ele>
        <time>2011-10-22T13:05:46Z</time>
      </trkpt>
      <trkpt lat="48.89209" lon="6.09661">
        <ele>245</ele>
        <time>2011-10-22T13:05:50Z</time>
      </trkpt>
      <trkpt lat="48.89168" lon="6.09641">
        <ele>244.9</ele>
        <time>2011-10-22T13:05:54Z</time>
      </trkpt>
      <trkpt lat="48.89142" lon="6.09627">
        <ele>246.1</ele>
        <time>2011-10-22T13:05:57Z</time>
      </trkpt>
      <trkpt lat="48.89103" lon="6.09603">
        <ele>247.4</ele>
        <time>2011-10-22T13:06:02Z</time>
      </trkpt>
      <trkpt lat="48.89081" lon="6.09587">
        <ele>250</ele>
        <time>2011-10-22T13:06:06Z</time>
      </trkpt>
      <trkpt lat="48.89074" lon="6.09583">
        <ele>250.9</ele>
        <time>2011-10-22T13:06:08Z</time>
      </trkpt>
      <trkpt lat="48.89072" lon="6.0956">
        <ele>251.3</ele>
        <time>2011-10-22T13:06:14Z</time>
      </trkpt>
      <trkpt lat="48.89073" lon="6.09535">
        <ele>250.8</ele>
        <time>2011-10-22T13:06:18Z</time>
      </trkpt>
      <trkpt lat="48.89074" lon="6.09521">
        <ele>250.7</ele>
        <time>2011-10-22T13:06:20Z</time>
      </trkpt>
      <trkpt lat="48.89075" lon="6.09499">
        <ele>250.6</ele>
        <time>2011-10-22T13:06:23Z</time>
      </trkpt>
      <trkpt lat="48.8908" lon="6.09444">
        <ele>251.1</ele>
        <time>2011-10-22T13:06:30Z</time>
      </trkpt>
      <trkpt lat="48.89083" lon="6.09407">
        <ele>250.9</ele>
        <time>2011-10-22T13:06:34Z</time>
      </trkpt>
      <trkpt lat="48.89085" lon="6.09387">
        <ele>250</ele>
        <time>2011-10-22T13:06:36Z</time>
      </trkpt>
      <trkpt lat="48.89089" lon="6.09335">
        <ele>250.7</ele>
        <time>2011-10-22T13:06:41Z</time>
      </trkpt>
      <trkpt lat="48.89092" lon="6.09317">
        <ele>251.5</ele>
        <time>2011-10-22T13:06:43Z</time>
      </trkpt>
      <trkpt lat="48.89096" lon="6.09241">
        <ele>252.9</ele>
        <time>2011-10-22T13:06:50Z</time>
      </trkpt>
      <trkpt lat="48.89101" lon="6.09208">
        <ele>253.9</ele>
        <time>2011-10-22T13:06:53Z</time>
      </trkpt>
      <trkpt lat="48.89107" lon="6.09157">
        <ele>250.2</ele>
        <time>2011-10-22T13:06:58Z</time>
      </trkpt>
      <trkpt lat="48.89106" lon="6.09123">
        <ele>250.4</ele>
        <time>2011-10-22T13:07:01Z</time>
      </trkpt>
      <trkpt lat="48.89116" lon="6.09059">
        <ele>250.7</ele>
        <time>2011-10-22T13:07:06Z</time>
      </trkpt>
      <trkpt lat="48.89124" lon="6.09012">
        <ele>251.2</ele>
        <time>2011-10-22T13:07:10Z</time>
      </trkpt>
      <trkpt lat="48.89125" lon="6.08974">
        <ele>251.9</ele>
        <time>2011-10-22T13:07:13Z</time>
      </trkpt>
      <trkpt lat="48.8913" lon="6.0892">
        <ele>251.5</ele>
        <time>2011-10-22T13:07:17Z</time>
      </trkpt>
      <trkpt lat="48.89138" lon="6.0887">
        <ele>252</ele>
        <time>2011-10-22T13:07:22Z</time>
      </trkpt>
      <trkpt lat="48.89145" lon="6.08835">
        <ele>253</ele>
        <time>2011-10-22T13:07:25Z</time>
      </trkpt>
      <trkpt lat="48.89156" lon="6.0878">
        <ele>252.5</ele>
        <time>2011-10-22T13:07:29Z</time>
      </trkpt>
      <trkpt lat="48.89168" lon="6.08729">
        <ele>249.6</ele>
        <time>2011-10-22T13:07:33Z</time>
      </trkpt>
      <trkpt lat="48.89203" lon="6.08686">
        <ele>251.4</ele>
        <time>2011-10-22T13:07:38Z</time>
      </trkpt>
      <trkpt lat="48.89241" lon="6.08661">
        <ele>246.3</ele>
        <time>2011-10-22T13:07:42Z</time>
      </trkpt>
      <trkpt lat="48.89281" lon="6.08633">
        <ele>242.8</ele>
        <time>2011-10-22T13:07:46Z</time>
      </trkpt>
      <trkpt lat="48.89317" lon="6.08603">
        <ele>243.7</ele>
        <time>2011-10-22T13:07:50Z</time>
      </trkpt>
      <trkpt lat="48.89352" lon="6.08572">
        <ele>244.7</ele>
        <time>2011-10-22T13:07:54Z</time>
      </trkpt>
      <trkpt lat="48.8938" lon="6.08532">
        <ele>243.4</ele>
        <time>2011-10-22T13:07:58Z</time>
      </trkpt>
      <trkpt lat="48.89407" lon="6.08471">
        <ele>243.8</ele>
        <time>2011-10-22T13:08:03Z</time>
      </trkpt>
      <trkpt lat="48.89415" lon="6.08436">
        <ele>246.7</ele>
        <time>2011-10-22T13:08:06Z</time>
      </trkpt>
      <trkpt lat="48.89424" lon="6.08369">
        <ele>248</ele>
        <time>2011-10-22T13:08:11Z</time>
      </trkpt>
      <trkpt lat="48.89431" lon="6.0831">
        <ele>246.3</ele>
        <time>2011-10-22T13:08:15Z</time>
      </trkpt>
      <trkpt lat="48.89432" lon="6.08255">
        <ele>243.8</ele>
        <time>2011-10-22T13:08:19Z</time>
      </trkpt>
      <trkpt lat="48.89431" lon="6.08197">
        <ele>241.6</ele>
        <time>2011-10-22T13:08:23Z</time>
      </trkpt>
      <trkpt lat="48.89428" lon="6.08156">
        <ele>241.4</ele>
        <time>2011-10-22T13:08:26Z</time>
      </trkpt>
      <trkpt lat="48.8943" lon="6.08096">
        <ele>242.6</ele>
        <time>2011-10-22T13:08:31Z</time>
      </trkpt>
      <trkpt lat="48.89435" lon="6.08038">
        <ele>241</ele>
        <time>2011-10-22T13:08:35Z</time>
      </trkpt>
      <trkpt lat="48.8944" lon="6.07983">
        <ele>238.9</ele>
        <time>2011-10-22T13:08:39Z</time>
      </trkpt>
      <trkpt lat="48.89447" lon="6.07944">
        <ele>240.9</ele>
        <time>2011-10-22T13:08:42Z</time>
      </trkpt>
      <trkpt lat="48.89455" lon="6.07882">
        <ele>239.2</ele>
        <time>2011-10-22T13:08:47Z</time>
      </trkpt>
      <trkpt lat="48.89464" lon="6.07838">
        <ele>237.7</ele>
        <time>2011-10-22T13:08:51Z</time>
      </trkpt>
      <trkpt lat="48.89471" lon="6.07808">
        <ele>236.5</ele>
        <time>2011-10-22T13:08:54Z</time>
      </trkpt>
      <trkpt lat="48.89486" lon="6.07752">
        <ele>237.5</ele>
        <time>2011-10-22T13:08:59Z</time>
      </trkpt>
      <trkpt lat="48.89493" lon="6.07715">
        <ele>238.7</ele>
        <time>2011-10-22T13:09:02Z</time>
      </trkpt>
      <trkpt lat="48.89507" lon="6.0766">
        <ele>237.8</ele>
        <time>2011-10-22T13:09:07Z</time>
      </trkpt>
      <trkpt lat="48.89516" lon="6.0763">
        <ele>237.9</ele>
        <time>2011-10-22T13:09:10Z</time>
      </trkpt>
      <trkpt lat="48.89531" lon="6.07573">
        <ele>237.3</ele>
        <time>2011-10-22T13:09:15Z</time>
      </trkpt>
      <trkpt lat="48.89547" lon="6.07526">
        <ele>235.5</ele>
        <time>2011-10-22T13:09:19Z</time>
      </trkpt>
      <trkpt lat="48.89561" lon="6.07477">
        <ele>236</ele>
        <time>2011-10-22T13:09:23Z</time>
      </trkpt>
      <trkpt lat="48.89578" lon="6.07427">
        <ele>235.3</ele>
        <time>2011-10-22T13:09:27Z</time>
      </trkpt>
      <trkpt lat="48.89596" lon="6.07382">
        <ele>234.8</ele>
        <time>2011-10-22T13:09:30Z</time>
      </trkpt>
      <trkpt lat="48.89616" lon="6.07331">
        <ele>235</ele>
        <time>2011-10-22T13:09:34Z</time>
      </trkpt>
      <trkpt lat="48.89642" lon="6.07268">
        <ele>233.6</ele>
        <time>2011-10-22T13:09:39Z</time>
      </trkpt>
      <trkpt lat="48.8966" lon="6.0722">
        <ele>233.9</ele>
        <time>2011-10-22T13:09:43Z</time>
      </trkpt>
      <trkpt lat="48.89676" lon="6.07177">
        <ele>235.6</ele>
        <time>2011-10-22T13:09:47Z</time>
      </trkpt>
      <trkpt lat="48.89695" lon="6.07136">
        <ele>236.8</ele>
        <time>2011-10-22T13:09:51Z</time>
      </trkpt>
      <trkpt lat="48.89712" lon="6.071">
        <ele>237.6</ele>
        <time>2011-10-22T13:09:55Z</time>
      </trkpt>
      <trkpt lat="48.89733" lon="6.07066">
        <ele>236.1</ele>
        <time>2011-10-22T13:09:59Z</time>
      </trkpt>
      <trkpt lat="48.89754" lon="6.07026">
        <ele>234.8</ele>
        <time>2011-10-22T13:10:03Z</time>
      </trkpt>
      <trkpt lat="48.89775" lon="6.06989">
        <ele>235.3</ele>
        <time>2011-10-22T13:10:07Z</time>
      </trkpt>
      <trkpt lat="48.89795" lon="6.06949">
        <ele>235.4</ele>
        <time>2011-10-22T13:10:11Z</time>
      </trkpt>
      <trkpt lat="48.89816" lon="6.06912">
        <ele>236.3</ele>
        <time>2011-10-22T13:10:15Z</time>
      </trkpt>
      <trkpt lat="48.89841" lon="6.06876">
        <ele>237.2</ele>
        <time>2011-10-22T13:10:19Z</time>
      </trkpt>
      <trkpt lat="48.89867" lon="6.06839">
        <ele>237.7</ele>
        <time>2011-10-22T13:10:23Z</time>
      </trkpt>
      <trkpt lat="48.89893" lon="6.06802">
        <ele>236.9</ele>
        <time>2011-10-22T13:10:27Z</time>
      </trkpt>
      <trkpt lat="48.89916" lon="6.06764">
        <ele>238</ele>
        <time>2011-10-22T13:10:31Z</time>
      </trkpt>
      <trkpt lat="48.89941" lon="6.06727">
        <ele>238.1</ele>
        <time>2011-10-22T13:10:35Z</time>
      </trkpt>
      <trkpt lat="48.89967" lon="6.06686">
        <ele>236.8</ele>
        <time>2011-10-22T13:10:39Z</time>
      </trkpt>
      <trkpt lat="48.89994" lon="6.0665">
        <ele>235</ele>
        <time>2011-10-22T13:10:43Z</time>
      </trkpt>
      <trkpt lat="48.90018" lon="6.06611">
        <ele>237</ele>
        <time>2011-10-22T13:10:47Z</time>
      </trkpt>
      <trkpt lat="48.90047" lon="6.06578">
        <ele>235.1</ele>
        <time>2011-10-22T13:10:51Z</time>
      </trkpt>
      <trkpt lat="48.90066" lon="6.06546">
        <ele>234.9</ele>
        <time>2011-10-22T13:10:54Z</time>
      </trkpt>
      <trkpt lat="48.90099" lon="6.06495">
        <ele>233.8</ele>
        <time>2011-10-22T13:10:59Z</time>
      </trkpt>
      <trkpt lat="48.90124" lon="6.06456">
        <ele>233.3</ele>
        <time>2011-10-22T13:11:03Z</time>
      </trkpt>
      <trkpt lat="48.90146" lon="6.06429">
        <ele>232.9</ele>
        <time>2011-10-22T13:11:06Z</time>
      </trkpt>
      <trkpt lat="48.90179" lon="6.06382">
        <ele>233.9</ele>
        <time>2011-10-22T13:11:11Z</time>
      </trkpt>
      <trkpt lat="48.90204" lon="6.06337">
        <ele>234.4</ele>
        <time>2011-10-22T13:11:15Z</time>
      </trkpt>
      <trkpt lat="48.90233" lon="6.06308">
        <ele>234.8</ele>
        <time>2011-10-22T13:11:19Z</time>
      </trkpt>
      <trkpt lat="48.90265" lon="6.0629">
        <ele>235.3</ele>
        <time>2011-10-22T13:11:23Z</time>
      </trkpt>
      <trkpt lat="48.90289" lon="6.06269">
        <ele>237.2</ele>
        <time>2011-10-22T13:11:26Z</time>
      </trkpt>
      <trkpt lat="48.90328" lon="6.06232">
        <ele>236.4</ele>
        <time>2011-10-22T13:11:31Z</time>
      </trkpt>
      <trkpt lat="48.90362" lon="6.06213">
        <ele>236.3</ele>
        <time>2011-10-22T13:11:35Z</time>
      </trkpt>
      <trkpt lat="48.90397" lon="6.06207">
        <ele>237.4</ele>
        <time>2011-10-22T13:11:39Z</time>
      </trkpt>
      <trkpt lat="48.9043" lon="6.06194">
        <ele>237.2</ele>
        <time>2011-10-22T13:11:43Z</time>
      </trkpt>
      <trkpt lat="48.90465" lon="6.06191">
        <ele>238</ele>
        <time>2011-10-22T13:11:47Z</time>
      </trkpt>
      <trkpt lat="48.90499" lon="6.06177">
        <ele>238.4</ele>
        <time>2011-10-22T13:11:51Z</time>
      </trkpt>
      <trkpt lat="48.90532" lon="6.0616">
        <ele>238.4</ele>
        <time>2011-10-22T13:11:55Z</time>
      </trkpt>
      <trkpt lat="48.90554" lon="6.0615">
        <ele>238.9</ele>
        <time>2011-10-22T13:11:58Z</time>
      </trkpt>
      <trkpt lat="48.90586" lon="6.06137">
        <ele>237</ele>
        <time>2011-10-22T13:12:02Z</time>
      </trkpt>
      <trkpt lat="48.90599" lon="6.06135">
        <ele>236.6</ele>
        <time>2011-10-22T13:12:04Z</time>
      </trkpt>
      <trkpt lat="48.90617" lon="6.06123">
        <ele>237.6</ele>
        <time>2011-10-22T13:12:08Z</time>
      </trkpt>
      <trkpt lat="48.9063" lon="6.06124">
        <ele>237.3</ele>
        <time>2011-10-22T13:12:45Z</time>
      </trkpt>
      <trkpt lat="48.90645" lon="6.06118">
        <ele>235.5</ele>
        <time>2011-10-22T13:12:49Z</time>
      </trkpt>
      <trkpt lat="48.90678" lon="6.06118">
        <ele>235</ele>
        <time>2011-10-22T13:12:54Z</time>
      </trkpt>
      <trkpt lat="48.9071" lon="6.06116">
        <ele>234.5</ele>
        <time>2011-10-22T13:12:58Z</time>
      </trkpt>
      <trkpt lat="48.90741" lon="6.06122">
        <ele>232.5</ele>
        <time>2011-10-22T13:13:02Z</time>
      </trkpt>
      <trkpt lat="48.90771" lon="6.06122">
        <ele>231.7</ele>
        <time>2011-10-22T13:13:06Z</time>
      </trkpt>
      <trkpt lat="48.90808" lon="6.06124">
        <ele>232.2</ele>
        <time>2011-10-22T13:13:10Z</time>
      </trkpt>
      <trkpt lat="48.90841" lon="6.06126">
        <ele>226.5</ele>
        <time>2011-10-22T13:13:14Z</time>
      </trkpt>
      <trkpt lat="48.90866" lon="6.06127">
        <ele>230.4</ele>
        <time>2011-10-22T13:13:17Z</time>
      </trkpt>
      <trkpt lat="48.90909" lon="6.06136">
        <ele>231</ele>
        <time>2011-10-22T13:13:22Z</time>
      </trkpt>
      <trkpt lat="48.90944" lon="6.06137">
        <ele>231.2</ele>
        <time>2011-10-22T13:13:26Z</time>
      </trkpt>
      <trkpt lat="48.90979" lon="6.06141">
        <ele>232</ele>
        <time>2011-10-22T13:13:30Z</time>
      </trkpt>
      <trkpt lat="48.91014" lon="6.06144">
        <ele>233.5</ele>
        <time>2011-10-22T13:13:34Z</time>
      </trkpt>
      <trkpt lat="48.91049" lon="6.06147">
        <ele>234.2</ele>
        <time>2011-10-22T13:13:38Z</time>
      </trkpt>
      <trkpt lat="48.91083" lon="6.06151">
        <ele>235.2</ele>
        <time>2011-10-22T13:13:42Z</time>
      </trkpt>
      <trkpt lat="48.91119" lon="6.06158">
        <ele>238.1</ele>
        <time>2011-10-22T13:13:46Z</time>
      </trkpt>
      <trkpt lat="48.91159" lon="6.06162">
        <ele>238.6</ele>
        <time>2011-10-22T13:13:50Z</time>
      </trkpt>
      <trkpt lat="48.91194" lon="6.06167">
        <ele>239.3</ele>
        <time>2011-10-22T13:13:54Z</time>
      </trkpt>
      <trkpt lat="48.91232" lon="6.06167">
        <ele>239</ele>
        <time>2011-10-22T13:13:58Z</time>
      </trkpt>
      <trkpt lat="48.91267" lon="6.06168">
        <ele>236</ele>
        <time>2011-10-22T13:14:02Z</time>
      </trkpt>
      <trkpt lat="48.91295" lon="6.06172">
        <ele>236.1</ele>
        <time>2011-10-22T13:14:05Z</time>
      </trkpt>
      <trkpt lat="48.91342" lon="6.06178">
        <ele>237.4</ele>
        <time>2011-10-22T13:14:10Z</time>
      </trkpt>
      <trkpt lat="48.91375" lon="6.06186">
        <ele>233.3</ele>
        <time>2011-10-22T13:14:14Z</time>
      </trkpt>
      <trkpt lat="48.91411" lon="6.06192">
        <ele>233.4</ele>
        <time>2011-10-22T13:14:18Z</time>
      </trkpt>
      <trkpt lat="48.91446" lon="6.06202">
        <ele>233.3</ele>
        <time>2011-10-22T13:14:22Z</time>
      </trkpt>
      <trkpt lat="48.91482" lon="6.06213">
        <ele>233.1</ele>
        <time>2011-10-22T13:14:26Z</time>
      </trkpt>
      <trkpt lat="48.91518" lon="6.06223">
        <ele>232.3</ele>
        <time>2011-10-22T13:14:30Z</time>
      </trkpt>
      <trkpt lat="48.91554" lon="6.06235">
        <ele>232.1</ele>
        <time>2011-10-22T13:14:34Z</time>
      </trkpt>
      <trkpt lat="48.91588" lon="6.06247">
        <ele>228.7</ele>
        <time>2011-10-22T13:14:38Z</time>
      </trkpt>
      <trkpt lat="48.9161" lon="6.06266">
        <ele>230.5</ele>
        <time>2011-10-22T13:14:42Z</time>
      </trkpt>
      <trkpt lat="48.91628" lon="6.06281">
        <ele>232.9</ele>
        <time>2011-10-22T13:14:46Z</time>
      </trkpt>
      <trkpt lat="48.91634" lon="6.06285">
        <ele>233.9</ele>
        <time>2011-10-22T13:14:48Z</time>
      </trkpt>
      <trkpt lat="48.91641" lon="6.06291">
        <ele>235.5</ele>
        <time>2011-10-22T13:14:51Z</time>
      </trkpt>
      <trkpt lat="48.91656" lon="6.06305">
        <ele>238.3</ele>
        <time>2011-10-22T13:15:26Z</time>
      </trkpt>
      <trkpt lat="48.91677" lon="6.06319">
        <ele>239.3</ele>
        <time>2011-10-22T13:15:30Z</time>
      </trkpt>
      <trkpt lat="48.91697" lon="6.06329">
        <ele>239.2</ele>
        <time>2011-10-22T13:15:33Z</time>
      </trkpt>
      <trkpt lat="48.91731" lon="6.06334">
        <ele>238.3</ele>
        <time>2011-10-22T13:15:38Z</time>
      </trkpt>
      <trkpt lat="48.91761" lon="6.06336">
        <ele>233.9</ele>
        <time>2011-10-22T13:15:42Z</time>
      </trkpt>
      <trkpt lat="48.91792" lon="6.06342">
        <ele>234.2</ele>
        <time>2011-10-22T13:15:46Z</time>
      </trkpt>
      <trkpt lat="48.91817" lon="6.06346">
        <ele>234.1</ele>
        <time>2011-10-22T13:15:49Z</time>
      </trkpt>
      <trkpt lat="48.91854" lon="6.0635">
        <ele>238</ele>
        <time>2011-10-22T13:15:54Z</time>
      </trkpt>
      <trkpt lat="48.91885" lon="6.06353">
        <ele>237.5</ele>
        <time>2011-10-22T13:15:58Z</time>
      </trkpt>
      <trkpt lat="48.91917" lon="6.06358">
        <ele>237.5</ele>
        <time>2011-10-22T13:16:02Z</time>
      </trkpt>
      <trkpt lat="48.91949" lon="6.06373">
        <ele>234.9</ele>
        <time>2011-10-22T13:16:06Z</time>
      </trkpt>
      <trkpt lat="48.91979" lon="6.06397">
        <ele>238</ele>
        <time>2011-10-22T13:16:10Z</time>
      </trkpt>
      <trkpt lat="48.9201" lon="6.06423">
        <ele>237</ele>
        <time>2011-10-22T13:16:14Z</time>
      </trkpt>
      <trkpt lat="48.92043" lon="6.06449">
        <ele>237</ele>
        <time>2011-10-22T13:16:18Z</time>
      </trkpt>
      <trkpt lat="48.92071" lon="6.06469">
        <ele>236.9</ele>
        <time>2011-10-22T13:16:22Z</time>
      </trkpt>
      <trkpt lat="48.92101" lon="6.06487">
        <ele>237.9</ele>
        <time>2011-10-22T13:16:26Z</time>
      </trkpt>
      <trkpt lat="48.9212" lon="6.06501">
        <ele>238.3</ele>
        <time>2011-10-22T13:16:29Z</time>
      </trkpt>
      <trkpt lat="48.92151" lon="6.0652">
        <ele>240.9</ele>
        <time>2011-10-22T13:16:34Z</time>
      </trkpt>
      <trkpt lat="48.92176" lon="6.06537">
        <ele>241.7</ele>
        <time>2011-10-22T13:16:38Z</time>
      </trkpt>
      <trkpt lat="48.922" lon="6.06553">
        <ele>240.4</ele>
        <time>2011-10-22T13:16:42Z</time>
      </trkpt>
      <trkpt lat="48.92225" lon="6.06569">
        <ele>243.1</ele>
        <time>2011-10-22T13:16:46Z</time>
      </trkpt>
      <trkpt lat="48.92245" lon="6.06579">
        <ele>243.4</ele>
        <time>2011-10-22T13:16:49Z</time>
      </trkpt>
      <trkpt lat="48.92282" lon="6.06589">
        <ele>243.7</ele>
        <time>2011-10-22T13:16:54Z</time>
      </trkpt>
      <trkpt lat="48.9231" lon="6.06586">
        <ele>243.7</ele>
        <time>2011-10-22T13:16:58Z</time>
      </trkpt>
      <trkpt lat="48.92323" lon="6.06583">
        <ele>242.6</ele>
        <time>2011-10-22T13:17:00Z</time>
      </trkpt>
      <trkpt lat="48.92366" lon="6.06579">
        <ele>241.7</ele>
        <time>2011-10-22T13:17:06Z</time>
      </trkpt>
      <trkpt lat="48.92398" lon="6.06572">
        <ele>240.6</ele>
        <time>2011-10-22T13:17:10Z</time>
      </trkpt>
      <trkpt lat="48.92425" lon="6.06558">
        <ele>240</ele>
        <time>2011-10-22T13:17:14Z</time>
      </trkpt>
      <trkpt lat="48.92455" lon="6.0655">
        <ele>240.7</ele>
        <time>2011-10-22T13:17:18Z</time>
      </trkpt>
      <trkpt lat="48.92476" lon="6.06544">
        <ele>241.9</ele>
        <time>2011-10-22T13:17:21Z</time>
      </trkpt>
      <trkpt lat="48.92514" lon="6.06533">
        <ele>241.2</ele>
        <time>2011-10-22T13:17:26Z</time>
      </trkpt>
      <trkpt lat="48.92535" lon="6.06523">
        <ele>240.7</ele>
        <time>2011-10-22T13:17:28Z</time>
      </trkpt>
      <trkpt lat="48.92573" lon="6.06511">
        <ele>238.7</ele>
        <time>2011-10-22T13:17:33Z</time>
      </trkpt>
      <trkpt lat="48.926" lon="6.06505">
        <ele>239.3</ele>
        <time>2011-10-22T13:17:37Z</time>
      </trkpt>
      <trkpt lat="48.9263" lon="6.06496">
        <ele>239.1</ele>
        <time>2011-10-22T13:17:42Z</time>
      </trkpt>
      <trkpt lat="48.92664" lon="6.06488">
        <ele>235.8</ele>
        <time>2011-10-22T13:17:45Z</time>
      </trkpt>
      <trkpt lat="48.92701" lon="6.06483">
        <ele>233.5</ele>
        <time>2011-10-22T13:17:49Z</time>
      </trkpt>
      <trkpt lat="48.92737" lon="6.06478">
        <ele>236.7</ele>
        <time>2011-10-22T13:17:53Z</time>
      </trkpt>
      <trkpt lat="48.92772" lon="6.06471">
        <ele>237.6</ele>
        <time>2011-10-22T13:17:57Z</time>
      </trkpt>
      <trkpt lat="48.9281" lon="6.06465">
        <ele>233.4</ele>
        <time>2011-10-22T13:18:01Z</time>
      </trkpt>
      <trkpt lat="48.92837" lon="6.06463">
        <ele>233</ele>
        <time>2011-10-22T13:18:04Z</time>
      </trkpt>
      <trkpt lat="48.92879" lon="6.06456">
        <ele>232.7</ele>
        <time>2011-10-22T13:18:09Z</time>
      </trkpt>
      <trkpt lat="48.92905" lon="6.06453">
        <ele>230.5</ele>
        <time>2011-10-22T13:18:12Z</time>
      </trkpt>
      <trkpt lat="48.92948" lon="6.06442">
        <ele>227.5</ele>
        <time>2011-10-22T13:18:17Z</time>
      </trkpt>
      <trkpt lat="48.92983" lon="6.06432">
        <ele>227.2</ele>
        <time>2011-10-22T13:18:21Z</time>
      </trkpt>
      <trkpt lat="48.93018" lon="6.06422">
        <ele>227.9</ele>
        <time>2011-10-22T13:18:25Z</time>
      </trkpt>
      <trkpt lat="48.93055" lon="6.06412">
        <ele>229.7</ele>
        <time>2011-10-22T13:18:29Z</time>
      </trkpt>
      <trkpt lat="48.9309" lon="6.06403">
        <ele>231.6</ele>
        <time>2011-10-22T13:18:33Z</time>
      </trkpt>
      <trkpt lat="48.93125" lon="6.06391">
        <ele>232.8</ele>
        <time>2011-10-22T13:18:37Z</time>
      </trkpt>
      <trkpt lat="48.93161" lon="6.06381">
        <ele>232.8</ele>
        <time>2011-10-22T13:18:41Z</time>
      </trkpt>
      <trkpt lat="48.93189" lon="6.06373">
        <ele>230.8</ele>
        <time>2011-10-22T13:18:44Z</time>
      </trkpt>
      <trkpt lat="48.93234" lon="6.06358">
        <ele>230</ele>
        <time>2011-10-22T13:18:49Z</time>
      </trkpt>
      <trkpt lat="48.93267" lon="6.06349">
        <ele>229.8</ele>
        <time>2011-10-22T13:18:53Z</time>
      </trkpt>
      <trkpt lat="48.93303" lon="6.06343">
        <ele>228.8</ele>
        <time>2011-10-22T13:18:57Z</time>
      </trkpt>
      <trkpt lat="48.93341" lon="6.06341">
        <ele>228.1</ele>
        <time>2011-10-22T13:19:01Z</time>
      </trkpt>
      <trkpt lat="48.93378" lon="6.0634">
        <ele>228.1</ele>
        <time>2011-10-22T13:19:05Z</time>
      </trkpt>
      <trkpt lat="48.93414" lon="6.0634">
        <ele>227.7</ele>
        <time>2011-10-22T13:19:09Z</time>
      </trkpt>
      <trkpt lat="48.93441" lon="6.06343">
        <ele>228.4</ele>
        <time>2011-10-22T13:19:12Z</time>
      </trkpt>
      <trkpt lat="48.93479" lon="6.06342">
        <ele>228.6</ele>
        <time>2011-10-22T13:19:17Z</time>
      </trkpt>
      <trkpt lat="48.93507" lon="6.06342">
        <ele>228.6</ele>
        <time>2011-10-22T13:19:21Z</time>
      </trkpt>
      <trkpt lat="48.93529" lon="6.06342">
        <ele>228</ele>
        <time>2011-10-22T13:19:24Z</time>
      </trkpt>
      <trkpt lat="48.93541" lon="6.0634">
        <ele>228.3</ele>
        <time>2011-10-22T13:19:26Z</time>
      </trkpt>
      <trkpt lat="48.93581" lon="6.06341">
        <ele>228</ele>
        <time>2011-10-22T13:19:32Z</time>
      </trkpt>
      <trkpt lat="48.93615" lon="6.06336">
        <ele>228.7</ele>
        <time>2011-10-22T13:19:38Z</time>
      </trkpt>
      <trkpt lat="48.9364" lon="6.06339">
        <ele>231.2</ele>
        <time>2011-10-22T13:19:42Z</time>
      </trkpt>
      <trkpt lat="48.93662" lon="6.06338">
        <ele>229.6</ele>
        <time>2011-10-22T13:19:45Z</time>
      </trkpt>
      <trkpt lat="48.93699" lon="6.06336">
        <ele>228.9</ele>
        <time>2011-10-22T13:19:50Z</time>
      </trkpt>
      <trkpt lat="48.93715" lon="6.06331">
        <ele>226.6</ele>
        <time>2011-10-22T13:19:52Z</time>
      </trkpt>
      <trkpt lat="48.93752" lon="6.06323">
        <ele>230.7</ele>
        <time>2011-10-22T13:19:58Z</time>
      </trkpt>
      <trkpt lat="48.93779" lon="6.06316">
        <ele>229</ele>
        <time>2011-10-22T13:20:02Z</time>
      </trkpt>
      <trkpt lat="48.9381" lon="6.06311">
        <ele>226.6</ele>
        <time>2011-10-22T13:20:06Z</time>
      </trkpt>
      <trkpt lat="48.93842" lon="6.06308">
        <ele>227.5</ele>
        <time>2011-10-22T13:20:10Z</time>
      </trkpt>
      <trkpt lat="48.93877" lon="6.06307">
        <ele>227.3</ele>
        <time>2011-10-22T13:20:14Z</time>
      </trkpt>
      <trkpt lat="48.93913" lon="6.06314">
        <ele>226.2</ele>
        <time>2011-10-22T13:20:18Z</time>
      </trkpt>
      <trkpt lat="48.93947" lon="6.06321">
        <ele>225.1</ele>
        <time>2011-10-22T13:20:22Z</time>
      </trkpt>
      <trkpt lat="48.93972" lon="6.06326">
        <ele>226.2</ele>
        <time>2011-10-22T13:20:25Z</time>
      </trkpt>
      <trkpt lat="48.94014" lon="6.06331">
        <ele>227.4</ele>
        <time>2011-10-22T13:20:30Z</time>
      </trkpt>
      <trkpt lat="48.94039" lon="6.06332">
        <ele>227</ele>
        <time>2011-10-22T13:20:33Z</time>
      </trkpt>
      <trkpt lat="48.94081" lon="6.06333">
        <ele>227</ele>
        <time>2011-10-22T13:20:38Z</time>
      </trkpt>
      <trkpt lat="48.94115" lon="6.06334">
        <ele>228.7</ele>
        <time>2011-10-22T13:20:42Z</time>
      </trkpt>
      <trkpt lat="48.94149" lon="6.06335">
        <ele>227.4</ele>
        <time>2011-10-22T13:20:46Z</time>
      </trkpt>
      <trkpt lat="48.94175" lon="6.06336">
        <ele>227.1</ele>
        <time>2011-10-22T13:20:49Z</time>
      </trkpt>
      <trkpt lat="48.94218" lon="6.06335">
        <ele>226.1</ele>
        <time>2011-10-22T13:20:54Z</time>
      </trkpt>
      <trkpt lat="48.94252" lon="6.06333">
        <ele>225.2</ele>
        <time>2011-10-22T13:20:58Z</time>
      </trkpt>
      <trkpt lat="48.94286" lon="6.06337">
        <ele>225.7</ele>
        <time>2011-10-22T13:21:02Z</time>
      </trkpt>
      <trkpt lat="48.9432" lon="6.06341">
        <ele>227.4</ele>
        <time>2011-10-22T13:21:06Z</time>
      </trkpt>
      <trkpt lat="48.94353" lon="6.06353">
        <ele>227.8</ele>
        <time>2011-10-22T13:21:10Z</time>
      </trkpt>
      <trkpt lat="48.94386" lon="6.06366">
        <ele>228.4</ele>
        <time>2011-10-22T13:21:14Z</time>
      </trkpt>
      <trkpt lat="48.9442" lon="6.06383">
        <ele>228.4</ele>
        <time>2011-10-22T13:21:18Z</time>
      </trkpt>
      <trkpt lat="48.94453" lon="6.06399">
        <ele>228.6</ele>
        <time>2011-10-22T13:21:22Z</time>
      </trkpt>
      <trkpt lat="48.94488" lon="6.06415">
        <ele>228.7</ele>
        <time>2011-10-22T13:21:26Z</time>
      </trkpt>
      <trkpt lat="48.94524" lon="6.0643">
        <ele>227.6</ele>
        <time>2011-10-22T13:21:30Z</time>
      </trkpt>
      <trkpt lat="48.94557" lon="6.06443">
        <ele>230.4</ele>
        <time>2011-10-22T13:21:34Z</time>
      </trkpt>
      <trkpt lat="48.94591" lon="6.06448">
        <ele>228.5</ele>
        <time>2011-10-22T13:21:38Z</time>
      </trkpt>
      <trkpt lat="48.94627" lon="6.0645">
        <ele>230.5</ele>
        <time>2011-10-22T13:21:42Z</time>
      </trkpt>
      <trkpt lat="48.94664" lon="6.06453">
        <ele>230.6</ele>
        <time>2011-10-22T13:21:46Z</time>
      </trkpt>
      <trkpt lat="48.94698" lon="6.06456">
        <ele>230.7</ele>
        <time>2011-10-22T13:21:50Z</time>
      </trkpt>
      <trkpt lat="48.94732" lon="6.06451">
        <ele>231.8</ele>
        <time>2011-10-22T13:21:54Z</time>
      </trkpt>
      <trkpt lat="48.94768" lon="6.06443">
        <ele>233.4</ele>
        <time>2011-10-22T13:21:58Z</time>
      </trkpt>
      <trkpt lat="48.94801" lon="6.06432">
        <ele>234</ele>
        <time>2011-10-22T13:22:02Z</time>
      </trkpt>
      <trkpt lat="48.94835" lon="6.06424">
        <ele>235.2</ele>
        <time>2011-10-22T13:22:06Z</time>
      </trkpt>
      <trkpt lat="48.94867" lon="6.06413">
        <ele>237.6</ele>
        <time>2011-10-22T13:22:10Z</time>
      </trkpt>
      <trkpt lat="48.94902" lon="6.06402">
        <ele>241.6</ele>
        <time>2011-10-22T13:22:14Z</time>
      </trkpt>
      <trkpt lat="48.94938" lon="6.06388">
        <ele>237.6</ele>
        <time>2011-10-22T13:22:18Z</time>
      </trkpt>
      <trkpt lat="48.9497" lon="6.06368">
        <ele>238</ele>
        <time>2011-10-22T13:22:22Z</time>
      </trkpt>
      <trkpt lat="48.94985" lon="6.06356">
        <ele>238.7</ele>
        <time>2011-10-22T13:22:24Z</time>
      </trkpt>
      <trkpt lat="48.95021" lon="6.06315">
        <ele>238.4</ele>
        <time>2011-10-22T13:22:29Z</time>
      </trkpt>
      <trkpt lat="48.95056" lon="6.06277">
        <ele>240.1</ele>
        <time>2011-10-22T13:22:34Z</time>
      </trkpt>
      <trkpt lat="48.95087" lon="6.06246">
        <ele>243.2</ele>
        <time>2011-10-22T13:22:38Z</time>
      </trkpt>
      <trkpt lat="48.95118" lon="6.06213">
        <ele>244.8</ele>
        <time>2011-10-22T13:22:42Z</time>
      </trkpt>
      <trkpt lat="48.95158" lon="6.06174">
        <ele>241.6</ele>
        <time>2011-10-22T13:22:46Z</time>
      </trkpt>
      <trkpt lat="48.95199" lon="6.06131">
        <ele>241.6</ele>
        <time>2011-10-22T13:22:50Z</time>
      </trkpt>
      <trkpt lat="48.95239" lon="6.06092">
        <ele>241.4</ele>
        <time>2011-10-22T13:22:54Z</time>
      </trkpt>
      <trkpt lat="48.95278" lon="6.06056">
        <ele>239</ele>
        <time>2011-10-22T13:22:58Z</time>
      </trkpt>
      <trkpt lat="48.95315" lon="6.06027">
        <ele>240.4</ele>
        <time>2011-10-22T13:23:02Z</time>
      </trkpt>
      <trkpt lat="48.95352" lon="6.05997">
        <ele>239.3</ele>
        <time>2011-10-22T13:23:06Z</time>
      </trkpt>
      <trkpt lat="48.95385" lon="6.05973">
        <ele>237.5</ele>
        <time>2011-10-22T13:23:10Z</time>
      </trkpt>
      <trkpt lat="48.95415" lon="6.05955">
        <ele>238.4</ele>
        <time>2011-10-22T13:23:14Z</time>
      </trkpt>
      <trkpt lat="48.95446" lon="6.05934">
        <ele>237.3</ele>
        <time>2011-10-22T13:23:18Z</time>
      </trkpt>
      <trkpt lat="48.95476" lon="6.05914">
        <ele>233.8</ele>
        <time>2011-10-22T13:23:22Z</time>
      </trkpt>
      <trkpt lat="48.95492" lon="6.05905">
        <ele>233.4</ele>
        <time>2011-10-22T13:23:24Z</time>
      </trkpt>
      <trkpt lat="48.95534" lon="6.05877">
        <ele>232.7</ele>
        <time>2011-10-22T13:23:30Z</time>
      </trkpt>
      <trkpt lat="48.95562" lon="6.05864">
        <ele>234.3</ele>
        <time>2011-10-22T13:23:34Z</time>
      </trkpt>
      <trkpt lat="48.95575" lon="6.05857">
        <ele>234.4</ele>
        <time>2011-10-22T13:23:36Z</time>
      </trkpt>
      <trkpt lat="48.95607" lon="6.05847">
        <ele>234.2</ele>
        <time>2011-10-22T13:23:41Z</time>
      </trkpt>
      <trkpt lat="48.95634" lon="6.0585">
        <ele>233.8</ele>
        <time>2011-10-22T13:23:45Z</time>
      </trkpt>
      <trkpt lat="48.9566" lon="6.05855">
        <ele>234</ele>
        <time>2011-10-22T13:23:49Z</time>
      </trkpt>
      <trkpt lat="48.95691" lon="6.05857">
        <ele>233.5</ele>
        <time>2011-10-22T13:23:54Z</time>
      </trkpt>
      <trkpt lat="48.95713" lon="6.05858">
        <ele>233.2</ele>
        <time>2011-10-22T13:23:58Z</time>
      </trkpt>
      <trkpt lat="48.95729" lon="6.05851">
        <ele>234.5</ele>
        <time>2011-10-22T13:24:01Z</time>
      </trkpt>
      <trkpt lat="48.95745" lon="6.05849">
        <ele>240.5</ele>
        <time>2011-10-22T13:24:04Z</time>
      </trkpt>
      <trkpt lat="48.9577" lon="6.05835">
        <ele>241.7</ele>
        <time>2011-10-22T13:24:08Z</time>
      </trkpt>
      <trkpt lat="48.95807" lon="6.05818">
        <ele>244.4</ele>
        <time>2011-10-22T13:24:14Z</time>
      </trkpt>
      <trkpt lat="48.95819" lon="6.05809">
        <ele>243.2</ele>
        <time>2011-10-22T13:24:16Z</time>
      </trkpt>
      <trkpt lat="48.9585" lon="6.05785">
        <ele>242</ele>
        <time>2011-10-22T13:24:22Z</time>
      </trkpt>
      <trkpt lat="48.95872" lon="6.05771">
        <ele>241.2</ele>
        <time>2011-10-22T13:24:26Z</time>
      </trkpt>
      <trkpt lat="48.95893" lon="6.05758">
        <ele>241.9</ele>
        <time>2011-10-22T13:24:30Z</time>
      </trkpt>
      <trkpt lat="48.95905" lon="6.05754">
        <ele>241.7</ele>
        <time>2011-10-22T13:24:32Z</time>
      </trkpt>
      <trkpt lat="48.95937" lon="6.05733">
        <ele>239</ele>
        <time>2011-10-22T13:24:38Z</time>
      </trkpt>
      <trkpt lat="48.95961" lon="6.05715">
        <ele>239.5</ele>
        <time>2011-10-22T13:24:42Z</time>
      </trkpt>
      <trkpt lat="48.95985" lon="6.05699">
        <ele>239.5</ele>
        <time>2011-10-22T13:24:46Z</time>
      </trkpt>
      <trkpt lat="48.96007" lon="6.05684">
        <ele>238.3</ele>
        <time>2011-10-22T13:24:50Z</time>
      </trkpt>
      <trkpt lat="48.96017" lon="6.05676">
        <ele>236.3</ele>
        <time>2011-10-22T13:24:52Z</time>
      </trkpt>
      <trkpt lat="48.96041" lon="6.05661">
        <ele>235.5</ele>
        <time>2011-10-22T13:24:56Z</time>
      </trkpt>
      <trkpt lat="48.96075" lon="6.0564">
        <ele>235</ele>
        <time>2011-10-22T13:25:02Z</time>
      </trkpt>
      <trkpt lat="48.96101" lon="6.05621">
        <ele>232.6</ele>
        <time>2011-10-22T13:25:06Z</time>
      </trkpt>
      <trkpt lat="48.96126" lon="6.05603">
        <ele>232.3</ele>
        <time>2011-10-22T13:25:10Z</time>
      </trkpt>
      <trkpt lat="48.96153" lon="6.05587">
        <ele>230</ele>
        <time>2011-10-22T13:25:14Z</time>
      </trkpt>
      <trkpt lat="48.96173" lon="6.05574">
        <ele>230</ele>
        <time>2011-10-22T13:25:17Z</time>
      </trkpt>
      <trkpt lat="48.96206" lon="6.05553">
        <ele>230.1</ele>
        <time>2011-10-22T13:25:22Z</time>
      </trkpt>
      <trkpt lat="48.96234" lon="6.05537">
        <ele>228.6</ele>
        <time>2011-10-22T13:25:26Z</time>
      </trkpt>
      <trkpt lat="48.96254" lon="6.05524">
        <ele>228.8</ele>
        <time>2011-10-22T13:25:29Z</time>
      </trkpt>
      <trkpt lat="48.96274" lon="6.05509">
        <ele>227.6</ele>
        <time>2011-10-22T13:25:32Z</time>
      </trkpt>
      <trkpt lat="48.9631" lon="6.0548">
        <ele>225.9</ele>
        <time>2011-10-22T13:25:38Z</time>
      </trkpt>
      <trkpt lat="48.96333" lon="6.0546">
        <ele>226</ele>
        <time>2011-10-22T13:25:42Z</time>
      </trkpt>
      <trkpt lat="48.96362" lon="6.05442">
        <ele>226.7</ele>
        <time>2011-10-22T13:25:46Z</time>
      </trkpt>
      <trkpt lat="48.96383" lon="6.05421">
        <ele>226.4</ele>
        <time>2011-10-22T13:25:50Z</time>
      </trkpt>
      <trkpt lat="48.96401" lon="6.05403">
        <ele>226.6</ele>
        <time>2011-10-22T13:25:53Z</time>
      </trkpt>
      <trkpt lat="48.96426" lon="6.05385">
        <ele>225.4</ele>
        <time>2011-10-22T13:25:57Z</time>
      </trkpt>
      <trkpt lat="48.96447" lon="6.05362">
        <ele>224.6</ele>
        <time>2011-10-22T13:26:01Z</time>
      </trkpt>
      <trkpt lat="48.9648" lon="6.05331">
        <ele>224.1</ele>
        <time>2011-10-22T13:26:06Z</time>
      </trkpt>
      <trkpt lat="48.96504" lon="6.05311">
        <ele>224.7</ele>
        <time>2011-10-22T13:26:10Z</time>
      </trkpt>
      <trkpt lat="48.96514" lon="6.05303">
        <ele>224.5</ele>
        <time>2011-10-22T13:26:12Z</time>
      </trkpt>
      <trkpt lat="48.96542" lon="6.05279">
        <ele>224.3</ele>
        <time>2011-10-22T13:26:17Z</time>
      </trkpt>
      <trkpt lat="48.96573" lon="6.05251">
        <ele>223.7</ele>
        <time>2011-10-22T13:26:22Z</time>
      </trkpt>
      <trkpt lat="48.96598" lon="6.05233">
        <ele>222.8</ele>
        <time>2011-10-22T13:26:26Z</time>
      </trkpt>
      <trkpt lat="48.9661" lon="6.05223">
        <ele>223.6</ele>
        <time>2011-10-22T13:26:28Z</time>
      </trkpt>
      <trkpt lat="48.9664" lon="6.05196">
        <ele>226.7</ele>
        <time>2011-10-22T13:26:33Z</time>
      </trkpt>
      <trkpt lat="48.96668" lon="6.05171">
        <ele>230.4</ele>
        <time>2011-10-22T13:26:38Z</time>
      </trkpt>
      <trkpt lat="48.9669" lon="6.0515">
        <ele>230.9</ele>
        <time>2011-10-22T13:26:42Z</time>
      </trkpt>
      <trkpt lat="48.96715" lon="6.05135">
        <ele>230</ele>
        <time>2011-10-22T13:26:46Z</time>
      </trkpt>
      <trkpt lat="48.96742" lon="6.05122">
        <ele>229.9</ele>
        <time>2011-10-22T13:26:50Z</time>
      </trkpt>
      <trkpt lat="48.9677" lon="6.05116">
        <ele>229.9</ele>
        <time>2011-10-22T13:26:54Z</time>
      </trkpt>
      <trkpt lat="48.96796" lon="6.05111">
        <ele>232.1</ele>
        <time>2011-10-22T13:26:58Z</time>
      </trkpt>
      <trkpt lat="48.96816" lon="6.05107">
        <ele>233.3</ele>
        <time>2011-10-22T13:27:01Z</time>
      </trkpt>
      <trkpt lat="48.96844" lon="6.05099">
        <ele>237.1</ele>
        <time>2011-10-22T13:27:05Z</time>
      </trkpt>
      <trkpt lat="48.96872" lon="6.05091">
        <ele>235.8</ele>
        <time>2011-10-22T13:27:09Z</time>
      </trkpt>
      <trkpt lat="48.96901" lon="6.05084">
        <ele>237.5</ele>
        <time>2011-10-22T13:27:13Z</time>
      </trkpt>
      <trkpt lat="48.96931" lon="6.05077">
        <ele>239.2</ele>
        <time>2011-10-22T13:27:17Z</time>
      </trkpt>
      <trkpt lat="48.96961" lon="6.0507">
        <ele>237.9</ele>
        <time>2011-10-22T13:27:21Z</time>
      </trkpt>
      <trkpt lat="48.96993" lon="6.05062">
        <ele>240.3</ele>
        <time>2011-10-22T13:27:26Z</time>
      </trkpt>
      <trkpt lat="48.97014" lon="6.05055">
        <ele>241.8</ele>
        <time>2011-10-22T13:27:29Z</time>
      </trkpt>
      <trkpt lat="48.97052" lon="6.0505">
        <ele>246.3</ele>
        <time>2011-10-22T13:27:34Z</time>
      </trkpt>
      <trkpt lat="48.97067" lon="6.05048">
        <ele>246.1</ele>
        <time>2011-10-22T13:27:36Z</time>
      </trkpt>
      <trkpt lat="48.97102" lon="6.05036">
        <ele>245</ele>
        <time>2011-10-22T13:27:41Z</time>
      </trkpt>
      <trkpt lat="48.97132" lon="6.05026">
        <ele>245.1</ele>
        <time>2011-10-22T13:27:45Z</time>
      </trkpt>
      <trkpt lat="48.97168" lon="6.05018">
        <ele>245.6</ele>
        <time>2011-10-22T13:27:50Z</time>
      </trkpt>
      <trkpt lat="48.97186" lon="6.05013">
        <ele>246.5</ele>
        <time>2011-10-22T13:27:53Z</time>
      </trkpt>
      <trkpt lat="48.97223" lon="6.05003">
        <ele>245.5</ele>
        <time>2011-10-22T13:27:58Z</time>
      </trkpt>
      <trkpt lat="48.97252" lon="6.04995">
        <ele>246.4</ele>
        <time>2011-10-22T13:28:02Z</time>
      </trkpt>
      <trkpt lat="48.97283" lon="6.04988">
        <ele>244.1</ele>
        <time>2011-10-22T13:28:06Z</time>
      </trkpt>
      <trkpt lat="48.97313" lon="6.0498">
        <ele>240.7</ele>
        <time>2011-10-22T13:28:10Z</time>
      </trkpt>
      <trkpt lat="48.97343" lon="6.04973">
        <ele>242.4</ele>
        <time>2011-10-22T13:28:14Z</time>
      </trkpt>
      <trkpt lat="48.97367" lon="6.04968">
        <ele>241.8</ele>
        <time>2011-10-22T13:28:17Z</time>
      </trkpt>
      <trkpt lat="48.97398" lon="6.0496">
        <ele>241.2</ele>
        <time>2011-10-22T13:28:21Z</time>
      </trkpt>
      <trkpt lat="48.97438" lon="6.04945">
        <ele>235.5</ele>
        <time>2011-10-22T13:28:26Z</time>
      </trkpt>
      <trkpt lat="48.97472" lon="6.04938">
        <ele>233.9</ele>
        <time>2011-10-22T13:28:30Z</time>
      </trkpt>
      <trkpt lat="48.97497" lon="6.04931">
        <ele>235.2</ele>
        <time>2011-10-22T13:28:33Z</time>
      </trkpt>
      <trkpt lat="48.97526" lon="6.04925">
        <ele>234.1</ele>
        <time>2011-10-22T13:28:37Z</time>
      </trkpt>
      <trkpt lat="48.97564" lon="6.04915">
        <ele>234.8</ele>
        <time>2011-10-22T13:28:42Z</time>
      </trkpt>
      <trkpt lat="48.97596" lon="6.04906">
        <ele>235.1</ele>
        <time>2011-10-22T13:28:46Z</time>
      </trkpt>
      <trkpt lat="48.97623" lon="6.04894">
        <ele>234.5</ele>
        <time>2011-10-22T13:28:50Z</time>
      </trkpt>
      <trkpt lat="48.97639" lon="6.04887">
        <ele>234.3</ele>
        <time>2011-10-22T13:28:52Z</time>
      </trkpt>
      <trkpt lat="48.97681" lon="6.04882">
        <ele>234.8</ele>
        <time>2011-10-22T13:28:58Z</time>
      </trkpt>
      <trkpt lat="48.97704" lon="6.0487">
        <ele>237.4</ele>
        <time>2011-10-22T13:29:01Z</time>
      </trkpt>
      <trkpt lat="48.97731" lon="6.04863">
        <ele>237.5</ele>
        <time>2011-10-22T13:29:05Z</time>
      </trkpt>
      <trkpt lat="48.97765" lon="6.04853">
        <ele>237.1</ele>
        <time>2011-10-22T13:29:10Z</time>
      </trkpt>
      <trkpt lat="48.97795" lon="6.04846">
        <ele>237.8</ele>
        <time>2011-10-22T13:29:14Z</time>
      </trkpt>
      <trkpt lat="48.97823" lon="6.04837">
        <ele>235.2</ele>
        <time>2011-10-22T13:29:18Z</time>
      </trkpt>
      <trkpt lat="48.97851" lon="6.0483">
        <ele>234.9</ele>
        <time>2011-10-22T13:29:22Z</time>
      </trkpt>
      <trkpt lat="48.97879" lon="6.04821">
        <ele>234.3</ele>
        <time>2011-10-22T13:29:26Z</time>
      </trkpt>
      <trkpt lat="48.97902" lon="6.04817">
        <ele>234.4</ele>
        <time>2011-10-22T13:29:29Z</time>
      </trkpt>
      <trkpt lat="48.97936" lon="6.04804">
        <ele>233.6</ele>
        <time>2011-10-22T13:29:34Z</time>
      </trkpt>
      <trkpt lat="48.9795" lon="6.04802">
        <ele>232.6</ele>
        <time>2011-10-22T13:29:36Z</time>
      </trkpt>
      <trkpt lat="48.97992" lon="6.0479">
        <ele>233.8</ele>
        <time>2011-10-22T13:29:42Z</time>
      </trkpt>
      <trkpt lat="48.9802" lon="6.04779">
        <ele>232.1</ele>
        <time>2011-10-22T13:29:46Z</time>
      </trkpt>
      <trkpt lat="48.98034" lon="6.04776">
        <ele>232.1</ele>
        <time>2011-10-22T13:29:48Z</time>
      </trkpt>
      <trkpt lat="48.98076" lon="6.04766">
        <ele>231.8</ele>
        <time>2011-10-22T13:29:54Z</time>
      </trkpt>
      <trkpt lat="48.98104" lon="6.04759">
        <ele>234.9</ele>
        <time>2011-10-22T13:29:58Z</time>
      </trkpt>
      <trkpt lat="48.98127" lon="6.0475">
        <ele>234.4</ele>
        <time>2011-10-22T13:30:01Z</time>
      </trkpt>
      <trkpt lat="48.98161" lon="6.04743">
        <ele>235.2</ele>
        <time>2011-10-22T13:30:06Z</time>
      </trkpt>
      <trkpt lat="48.9819" lon="6.04735">
        <ele>235.6</ele>
        <time>2011-10-22T13:30:10Z</time>
      </trkpt>
      <trkpt lat="48.98212" lon="6.04727">
        <ele>234.6</ele>
        <time>2011-10-22T13:30:13Z</time>
      </trkpt>
      <trkpt lat="48.9824" lon="6.04716">
        <ele>234.1</ele>
        <time>2011-10-22T13:30:17Z</time>
      </trkpt>
      <trkpt lat="48.98266" lon="6.04708">
        <ele>235</ele>
        <time>2011-10-22T13:30:21Z</time>
      </trkpt>
      <trkpt lat="48.98295" lon="6.04706">
        <ele>235.1</ele>
        <time>2011-10-22T13:30:25Z</time>
      </trkpt>
      <trkpt lat="48.98331" lon="6.047">
        <ele>237.2</ele>
        <time>2011-10-22T13:30:30Z</time>
      </trkpt>
      <trkpt lat="48.98352" lon="6.04697">
        <ele>237.9</ele>
        <time>2011-10-22T13:30:33Z</time>
      </trkpt>
      <trkpt lat="48.98388" lon="6.04699">
        <ele>236.7</ele>
        <time>2011-10-22T13:30:38Z</time>
      </trkpt>
      <trkpt lat="48.98415" lon="6.04703">
        <ele>238</ele>
        <time>2011-10-22T13:30:42Z</time>
      </trkpt>
      <trkpt lat="48.98439" lon="6.04708">
        <ele>239.7</ele>
        <time>2011-10-22T13:30:46Z</time>
      </trkpt>
      <trkpt lat="48.98468" lon="6.04713">
        <ele>240.1</ele>
        <time>2011-10-22T13:30:51Z</time>
      </trkpt>
      <trkpt lat="48.98479" lon="6.04714">
        <ele>240.5</ele>
        <time>2011-10-22T13:30:53Z</time>
      </trkpt>
      <trkpt lat="48.985" lon="6.04719">
        <ele>239</ele>
        <time>2011-10-22T13:30:57Z</time>
      </trkpt>
      <trkpt lat="48.98529" lon="6.04723">
        <ele>242</ele>
        <time>2011-10-22T13:31:02Z</time>
      </trkpt>
      <trkpt lat="48.98553" lon="6.04727">
        <ele>244.1</ele>
        <time>2011-10-22T13:31:06Z</time>
      </trkpt>
      <trkpt lat="48.98587" lon="6.04731">
        <ele>244.2</ele>
        <time>2011-10-22T13:31:11Z</time>
      </trkpt>
      <trkpt lat="48.98614" lon="6.04733">
        <ele>243.6</ele>
        <time>2011-10-22T13:31:15Z</time>
      </trkpt>
      <trkpt lat="48.98628" lon="6.04735">
        <ele>244.5</ele>
        <time>2011-10-22T13:31:17Z</time>
      </trkpt>
      <trkpt lat="48.98667" lon="6.04741">
        <ele>245.4</ele>
        <time>2011-10-22T13:31:23Z</time>
      </trkpt>
      <trkpt lat="48.98695" lon="6.04744">
        <ele>244.2</ele>
        <time>2011-10-22T13:31:27Z</time>
      </trkpt>
      <trkpt lat="48.98719" lon="6.04748">
        <ele>245</ele>
        <time>2011-10-22T13:31:31Z</time>
      </trkpt>
      <trkpt lat="48.98731" lon="6.04748">
        <ele>244.3</ele>
        <time>2011-10-22T13:31:33Z</time>
      </trkpt>
      <trkpt lat="48.98759" lon="6.04752">
        <ele>246.2</ele>
        <time>2011-10-22T13:31:39Z</time>
      </trkpt>
      <trkpt lat="48.98781" lon="6.04754">
        <ele>245.4</ele>
        <time>2011-10-22T13:31:43Z</time>
      </trkpt>
      <trkpt lat="48.98802" lon="6.04758">
        <ele>247</ele>
        <time>2011-10-22T13:31:47Z</time>
      </trkpt>
      <trkpt lat="48.98812" lon="6.0476">
        <ele>246.9</ele>
        <time>2011-10-22T13:31:49Z</time>
      </trkpt>
      <trkpt lat="48.98833" lon="6.04764">
        <ele>246.5</ele>
        <time>2011-10-22T13:31:53Z</time>
      </trkpt>
      <trkpt lat="48.98851" lon="6.04766">
        <ele>246.1</ele>
        <time>2011-10-22T13:31:56Z</time>
      </trkpt>
      <trkpt lat="48.98892" lon="6.0477">
        <ele>245.5</ele>
        <time>2011-10-22T13:32:03Z</time>
      </trkpt>
      <trkpt lat="48.98898" lon="6.04768">
        <ele>245.4</ele>
        <time>2011-10-22T13:32:04Z</time>
      </trkpt>
      <trkpt lat="48.98915" lon="6.04764">
        <ele>247.3</ele>
        <time>2011-10-22T13:32:08Z</time>
      </trkpt>
      <trkpt lat="48.98908" lon="6.0476">
        <ele>243.9</ele>
        <time>2011-10-22T13:32:17Z</time>
      </trkpt>
      <trkpt lat="48.98901" lon="6.04764">
        <ele>244</ele>
        <time>2011-10-22T13:32:21Z</time>
      </trkpt>
      <trkpt lat="48.98934" lon="6.04772">
        <ele>244.3</ele>
        <time>2011-10-22T13:32:27Z</time>
      </trkpt>
      <trkpt lat="48.98965" lon="6.04775">
        <ele>243.9</ele>
        <time>2011-10-22T13:32:31Z</time>
      </trkpt>
      <trkpt lat="48.98997" lon="6.04779">
        <ele>242.3</ele>
        <time>2011-10-22T13:32:35Z</time>
      </trkpt>
      <trkpt lat="48.99029" lon="6.04787">
        <ele>243</ele>
        <time>2011-10-22T13:32:39Z</time>
      </trkpt>
      <trkpt lat="48.99057" lon="6.0479">
        <ele>242.7</ele>
        <time>2011-10-22T13:32:43Z</time>
      </trkpt>
      <trkpt lat="48.99084" lon="6.04796">
        <ele>242.3</ele>
        <time>2011-10-22T13:32:46Z</time>
      </trkpt>
      <trkpt lat="48.9913" lon="6.04803">
        <ele>242.1</ele>
        <time>2011-10-22T13:32:51Z</time>
      </trkpt>
      <trkpt lat="48.99162" lon="6.04803">
        <ele>243.5</ele>
        <time>2011-10-22T13:32:55Z</time>
      </trkpt>
      <trkpt lat="48.99188" lon="6.04807">
        <ele>241.6</ele>
        <time>2011-10-22T13:32:58Z</time>
      </trkpt>
      <trkpt lat="48.99228" lon="6.04814">
        <ele>241.8</ele>
        <time>2011-10-22T13:33:03Z</time>
      </trkpt>
      <trkpt lat="48.99254" lon="6.04819">
        <ele>240.7</ele>
        <time>2011-10-22T13:33:06Z</time>
      </trkpt>
      <trkpt lat="48.993" lon="6.04825">
        <ele>237.8</ele>
        <time>2011-10-22T13:33:11Z</time>
      </trkpt>
      <trkpt lat="48.99336" lon="6.0483">
        <ele>237.7</ele>
        <time>2011-10-22T13:33:15Z</time>
      </trkpt>
      <trkpt lat="48.99362" lon="6.04832">
        <ele>236.6</ele>
        <time>2011-10-22T13:33:18Z</time>
      </trkpt>
      <trkpt lat="48.99405" lon="6.04836">
        <ele>237.5</ele>
        <time>2011-10-22T13:33:23Z</time>
      </trkpt>
      <trkpt lat="48.9943" lon="6.04837">
        <ele>238.9</ele>
        <time>2011-10-22T13:33:26Z</time>
      </trkpt>
      <trkpt lat="48.99471" lon="6.04839">
        <ele>237.7</ele>
        <time>2011-10-22T13:33:31Z</time>
      </trkpt>
      <trkpt lat="48.99497" lon="6.0484">
        <ele>238.5</ele>
        <time>2011-10-22T13:33:34Z</time>
      </trkpt>
      <trkpt lat="48.99535" lon="6.04846">
        <ele>239.4</ele>
        <time>2011-10-22T13:33:39Z</time>
      </trkpt>
      <trkpt lat="48.99565" lon="6.04856">
        <ele>239.5</ele>
        <time>2011-10-22T13:33:43Z</time>
      </trkpt>
      <trkpt lat="48.9959" lon="6.04864">
        <ele>241.6</ele>
        <time>2011-10-22T13:33:46Z</time>
      </trkpt>
      <trkpt lat="48.99628" lon="6.04874">
        <ele>242.2</ele>
        <time>2011-10-22T13:33:51Z</time>
      </trkpt>
      <trkpt lat="48.99642" lon="6.04877">
        <ele>242.3</ele>
        <time>2011-10-22T13:33:53Z</time>
      </trkpt>
      <trkpt lat="48.99678" lon="6.04888">
        <ele>242.8</ele>
        <time>2011-10-22T13:33:58Z</time>
      </trkpt>
      <trkpt lat="48.99701" lon="6.04892">
        <ele>243.7</ele>
        <time>2011-10-22T13:34:01Z</time>
      </trkpt>
      <trkpt lat="48.9974" lon="6.04909">
        <ele>245.2</ele>
        <time>2011-10-22T13:34:07Z</time>
      </trkpt>
      <trkpt lat="48.99774" lon="6.04915">
        <ele>245.5</ele>
        <time>2011-10-22T13:34:10Z</time>
      </trkpt>
      <trkpt lat="48.99811" lon="6.04927">
        <ele>243.2</ele>
        <time>2011-10-22T13:34:14Z</time>
      </trkpt>
      <trkpt lat="48.99837" lon="6.04934">
        <ele>243.2</ele>
        <time>2011-10-22T13:34:18Z</time>
      </trkpt>
      <trkpt lat="48.99864" lon="6.04945">
        <ele>245.4</ele>
        <time>2011-10-22T13:34:22Z</time>
      </trkpt>
      <trkpt lat="48.99892" lon="6.04952">
        <ele>245.8</ele>
        <time>2011-10-22T13:34:26Z</time>
      </trkpt>
      <trkpt lat="48.99898" lon="6.04954">
        <ele>245.7</ele>
        <time>2011-10-22T13:34:27Z</time>
      </trkpt>
      <trkpt lat="48.99938" lon="6.04966">
        <ele>247.5</ele>
        <time>2011-10-22T13:34:33Z</time>
      </trkpt>
      <trkpt lat="48.99973" lon="6.04979">
        <ele>247</ele>
        <time>2011-10-22T13:34:38Z</time>
      </trkpt>
      <trkpt lat="49.00002" lon="6.04987">
        <ele>246.7</ele>
        <time>2011-10-22T13:34:42Z</time>
      </trkpt>
      <trkpt lat="49.00026" lon="6.04991">
        <ele>245.6</ele>
        <time>2011-10-22T13:34:45Z</time>
      </trkpt>
      <trkpt lat="49.00048" lon="6.04999">
        <ele>246.2</ele>
        <time>2011-10-22T13:34:48Z</time>
      </trkpt>
      <trkpt lat="49.00084" lon="6.05009">
        <ele>245.3</ele>
        <time>2011-10-22T13:34:53Z</time>
      </trkpt>
      <trkpt lat="49.00119" lon="6.05013">
        <ele>243.4</ele>
        <time>2011-10-22T13:34:59Z</time>
      </trkpt>
      <trkpt lat="49.00153" lon="6.05023">
        <ele>248</ele>
        <time>2011-10-22T13:35:02Z</time>
      </trkpt>
      <trkpt lat="49.00183" lon="6.05033">
        <ele>248.3</ele>
        <time>2011-10-22T13:35:06Z</time>
      </trkpt>
      <trkpt lat="49.00214" lon="6.05042">
        <ele>249.1</ele>
        <time>2011-10-22T13:35:10Z</time>
      </trkpt>
      <trkpt lat="49.00244" lon="6.05051">
        <ele>247.9</ele>
        <time>2011-10-22T13:35:14Z</time>
      </trkpt>
      <trkpt lat="49.00278" lon="6.05057">
        <ele>247.2</ele>
        <time>2011-10-22T13:35:18Z</time>
      </trkpt>
      <trkpt lat="49.0031" lon="6.05067">
        <ele>244.3</ele>
        <time>2011-10-22T13:35:22Z</time>
      </trkpt>
      <trkpt lat="49.00345" lon="6.05078">
        <ele>244.6</ele>
        <time>2011-10-22T13:35:26Z</time>
      </trkpt>
      <trkpt lat="49.00379" lon="6.05087">
        <ele>244.3</ele>
        <time>2011-10-22T13:35:30Z</time>
      </trkpt>
      <trkpt lat="49.00411" lon="6.05096">
        <ele>243.6</ele>
        <time>2011-10-22T13:35:34Z</time>
      </trkpt>
      <trkpt lat="49.00443" lon="6.05103">
        <ele>241.7</ele>
        <time>2011-10-22T13:35:38Z</time>
      </trkpt>
      <trkpt lat="49.00473" lon="6.05112">
        <ele>240</ele>
        <time>2011-10-22T13:35:42Z</time>
      </trkpt>
      <trkpt lat="49.00504" lon="6.05121">
        <ele>239.4</ele>
        <time>2011-10-22T13:35:46Z</time>
      </trkpt>
      <trkpt lat="49.00535" lon="6.05129">
        <ele>240</ele>
        <time>2011-10-22T13:35:50Z</time>
      </trkpt>
      <trkpt lat="49.00564" lon="6.0514">
        <ele>240.1</ele>
        <time>2011-10-22T13:35:54Z</time>
      </trkpt>
      <trkpt lat="49.00588" lon="6.05148">
        <ele>240</ele>
        <time>2011-10-22T13:35:57Z</time>
      </trkpt>
      <trkpt lat="49.00626" lon="6.0516">
        <ele>237.6</ele>
        <time>2011-10-22T13:36:02Z</time>
      </trkpt>
      <trkpt lat="49.00658" lon="6.05167">
        <ele>235.8</ele>
        <time>2011-10-22T13:36:06Z</time>
      </trkpt>
      <trkpt lat="49.00691" lon="6.05173">
        <ele>235.3</ele>
        <time>2011-10-22T13:36:10Z</time>
      </trkpt>
      <trkpt lat="49.00721" lon="6.05184">
        <ele>235.6</ele>
        <time>2011-10-22T13:36:14Z</time>
      </trkpt>
      <trkpt lat="49.00749" lon="6.05193">
        <ele>235.1</ele>
        <time>2011-10-22T13:36:18Z</time>
      </trkpt>
      <trkpt lat="49.00782" lon="6.05201">
        <ele>235.5</ele>
        <time>2011-10-22T13:36:22Z</time>
      </trkpt>
      <trkpt lat="49.00808" lon="6.0521">
        <ele>236</ele>
        <time>2011-10-22T13:36:26Z</time>
      </trkpt>
      <trkpt lat="49.00843" lon="6.05218">
        <ele>234.2</ele>
        <time>2011-10-22T13:36:30Z</time>
      </trkpt>
      <trkpt lat="49.0087" lon="6.05229">
        <ele>236</ele>
        <time>2011-10-22T13:36:34Z</time>
      </trkpt>
      <trkpt lat="49.00891" lon="6.05231">
        <ele>234.3</ele>
        <time>2011-10-22T13:36:37Z</time>
      </trkpt>
      <trkpt lat="49.0092" lon="6.05242">
        <ele>234</ele>
        <time>2011-10-22T13:36:41Z</time>
      </trkpt>
      <trkpt lat="49.00952" lon="6.05249">
        <ele>235.6</ele>
        <time>2011-10-22T13:36:45Z</time>
      </trkpt>
      <trkpt lat="49.00991" lon="6.05262">
        <ele>235</ele>
        <time>2011-10-22T13:36:50Z</time>
      </trkpt>
      <trkpt lat="49.01017" lon="6.05272">
        <ele>234.4</ele>
        <time>2011-10-22T13:36:54Z</time>
      </trkpt>
      <trkpt lat="49.0105" lon="6.05276">
        <ele>233</ele>
        <time>2011-10-22T13:36:58Z</time>
      </trkpt>
      <trkpt lat="49.01085" lon="6.05284">
        <ele>232.8</ele>
        <time>2011-10-22T13:37:02Z</time>
      </trkpt>
      <trkpt lat="49.01107" lon="6.05291">
        <ele>234.1</ele>
        <time>2011-10-22T13:37:05Z</time>
      </trkpt>
      <trkpt lat="49.01142" lon="6.05298">
        <ele>232.8</ele>
        <time>2011-10-22T13:37:09Z</time>
      </trkpt>
      <trkpt lat="49.01176" lon="6.05309">
        <ele>234.3</ele>
        <time>2011-10-22T13:37:14Z</time>
      </trkpt>
      <trkpt lat="49.01205" lon="6.05318">
        <ele>233.9</ele>
        <time>2011-10-22T13:37:18Z</time>
      </trkpt>
      <trkpt lat="49.01237" lon="6.05327">
        <ele>233.6</ele>
        <time>2011-10-22T13:37:22Z</time>
      </trkpt>
      <trkpt lat="49.01267" lon="6.05337">
        <ele>233.9</ele>
        <time>2011-10-22T13:37:26Z</time>
      </trkpt>
      <trkpt lat="49.0129" lon="6.05344">
        <ele>233.2</ele>
        <time>2011-10-22T13:37:29Z</time>
      </trkpt>
      <trkpt lat="49.01322" lon="6.05352">
        <ele>234.4</ele>
        <time>2011-10-22T13:37:33Z</time>
      </trkpt>
      <trkpt lat="49.01359" lon="6.05364">
        <ele>233.7</ele>
        <time>2011-10-22T13:37:38Z</time>
      </trkpt>
      <trkpt lat="49.01384" lon="6.05378">
        <ele>233.3</ele>
        <time>2011-10-22T13:37:41Z</time>
      </trkpt>
      <trkpt lat="49.01415" lon="6.05383">
        <ele>234.6</ele>
        <time>2011-10-22T13:37:45Z</time>
      </trkpt>
      <trkpt lat="49.01454" lon="6.05392">
        <ele>232</ele>
        <time>2011-10-22T13:37:50Z</time>
      </trkpt>
      <trkpt lat="49.01483" lon="6.054">
        <ele>231.4</ele>
        <time>2011-10-22T13:37:54Z</time>
      </trkpt>
      <trkpt lat="49.01513" lon="6.0541">
        <ele>231.1</ele>
        <time>2011-10-22T13:37:58Z</time>
      </trkpt>
      <trkpt lat="49.01543" lon="6.0542">
        <ele>232.3</ele>
        <time>2011-10-22T13:38:02Z</time>
      </trkpt>
      <trkpt lat="49.01565" lon="6.05425">
        <ele>232.8</ele>
        <time>2011-10-22T13:38:05Z</time>
      </trkpt>
      <trkpt lat="49.01604" lon="6.05433">
        <ele>230.5</ele>
        <time>2011-10-22T13:38:10Z</time>
      </trkpt>
      <trkpt lat="49.01635" lon="6.05445">
        <ele>229.6</ele>
        <time>2011-10-22T13:38:14Z</time>
      </trkpt>
      <trkpt lat="49.01653" lon="6.05458">
        <ele>229</ele>
        <time>2011-10-22T13:38:17Z</time>
      </trkpt>
      <trkpt lat="49.01688" lon="6.05485">
        <ele>229.5</ele>
        <time>2011-10-22T13:38:22Z</time>
      </trkpt>
      <trkpt lat="49.0171" lon="6.05501">
        <ele>229</ele>
        <time>2011-10-22T13:38:25Z</time>
      </trkpt>
      <trkpt lat="49.01747" lon="6.0553">
        <ele>229.3</ele>
        <time>2011-10-22T13:38:30Z</time>
      </trkpt>
      <trkpt lat="49.01773" lon="6.05551">
        <ele>229.4</ele>
        <time>2011-10-22T13:38:34Z</time>
      </trkpt>
      <trkpt lat="49.01795" lon="6.05563">
        <ele>230</ele>
        <time>2011-10-22T13:38:37Z</time>
      </trkpt>
      <trkpt lat="49.01826" lon="6.0559">
        <ele>229.3</ele>
        <time>2011-10-22T13:38:42Z</time>
      </trkpt>
      <trkpt lat="49.01852" lon="6.05609">
        <ele>229.1</ele>
        <time>2011-10-22T13:38:46Z</time>
      </trkpt>
      <trkpt lat="49.01866" lon="6.05618">
        <ele>227.8</ele>
        <time>2011-10-22T13:38:48Z</time>
      </trkpt>
      <trkpt lat="49.01889" lon="6.05634">
        <ele>227.8</ele>
        <time>2011-10-22T13:38:52Z</time>
      </trkpt>
      <trkpt lat="49.01927" lon="6.05659">
        <ele>229.9</ele>
        <time>2011-10-22T13:38:58Z</time>
      </trkpt>
      <trkpt lat="49.01946" lon="6.05668">
        <ele>229.3</ele>
        <time>2011-10-22T13:39:01Z</time>
      </trkpt>
      <trkpt lat="49.01987" lon="6.05682">
        <ele>231.4</ele>
        <time>2011-10-22T13:39:06Z</time>
      </trkpt>
      <trkpt lat="49.02008" lon="6.05685">
        <ele>230.2</ele>
        <time>2011-10-22T13:39:09Z</time>
      </trkpt>
      <trkpt lat="49.02037" lon="6.05692">
        <ele>227.3</ele>
        <time>2011-10-22T13:39:13Z</time>
      </trkpt>
      <trkpt lat="49.02074" lon="6.057">
        <ele>227.3</ele>
        <time>2011-10-22T13:39:18Z</time>
      </trkpt>
      <trkpt lat="49.02096" lon="6.057">
        <ele>228.7</ele>
        <time>2011-10-22T13:39:21Z</time>
      </trkpt>
      <trkpt lat="49.02133" lon="6.05699">
        <ele>227.7</ele>
        <time>2011-10-22T13:39:26Z</time>
      </trkpt>
      <trkpt lat="49.02164" lon="6.05688">
        <ele>225</ele>
        <time>2011-10-22T13:39:30Z</time>
      </trkpt>
      <trkpt lat="49.02194" lon="6.05677">
        <ele>225.1</ele>
        <time>2011-10-22T13:39:34Z</time>
      </trkpt>
      <trkpt lat="49.02215" lon="6.05668">
        <ele>224.8</ele>
        <time>2011-10-22T13:39:37Z</time>
      </trkpt>
      <trkpt lat="49.02251" lon="6.0565">
        <ele>226</ele>
        <time>2011-10-22T13:39:42Z</time>
      </trkpt>
      <trkpt lat="49.02279" lon="6.05637">
        <ele>226.2</ele>
        <time>2011-10-22T13:39:46Z</time>
      </trkpt>
      <trkpt lat="49.02309" lon="6.05623">
        <ele>225.3</ele>
        <time>2011-10-22T13:39:50Z</time>
      </trkpt>
      <trkpt lat="49.02328" lon="6.05615">
        <ele>225.6</ele>
        <time>2011-10-22T13:39:53Z</time>
      </trkpt>
      <trkpt lat="49.02363" lon="6.05605">
        <ele>225.6</ele>
        <time>2011-10-22T13:39:58Z</time>
      </trkpt>
      <trkpt lat="49.02389" lon="6.056">
        <ele>225.9</ele>
        <time>2011-10-22T13:40:01Z</time>
      </trkpt>
      <trkpt lat="49.02427" lon="6.05595">
        <ele>228.1</ele>
        <time>2011-10-22T13:40:06Z</time>
      </trkpt>
      <trkpt lat="49.02456" lon="6.05595">
        <ele>226.7</ele>
        <time>2011-10-22T13:40:10Z</time>
      </trkpt>
      <trkpt lat="49.02483" lon="6.05594">
        <ele>228.7</ele>
        <time>2011-10-22T13:40:14Z</time>
      </trkpt>
      <trkpt lat="49.02506" lon="6.05594">
        <ele>228.2</ele>
        <time>2011-10-22T13:40:17Z</time>
      </trkpt>
      <trkpt lat="49.02537" lon="6.056">
        <ele>231.1</ele>
        <time>2011-10-22T13:40:21Z</time>
      </trkpt>
      <trkpt lat="49.02575" lon="6.05599">
        <ele>232.8</ele>
        <time>2011-10-22T13:40:26Z</time>
      </trkpt>
      <trkpt lat="49.02604" lon="6.05602">
        <ele>231.9</ele>
        <time>2011-10-22T13:40:30Z</time>
      </trkpt>
      <trkpt lat="49.02627" lon="6.05598">
        <ele>232.2</ele>
        <time>2011-10-22T13:40:33Z</time>
      </trkpt>
      <trkpt lat="49.02657" lon="6.05601">
        <ele>231</ele>
        <time>2011-10-22T13:40:37Z</time>
      </trkpt>
      <trkpt lat="49.02689" lon="6.05597">
        <ele>230.1</ele>
        <time>2011-10-22T13:40:41Z</time>
      </trkpt>
      <trkpt lat="49.02729" lon="6.05595">
        <ele>228.1</ele>
        <time>2011-10-22T13:40:46Z</time>
      </trkpt>
      <trkpt lat="49.0276" lon="6.05589">
        <ele>226.8</ele>
        <time>2011-10-22T13:40:50Z</time>
      </trkpt>
      <trkpt lat="49.02792" lon="6.05586">
        <ele>226.4</ele>
        <time>2011-10-22T13:40:54Z</time>
      </trkpt>
      <trkpt lat="49.02825" lon="6.05582">
        <ele>228.8</ele>
        <time>2011-10-22T13:40:58Z</time>
      </trkpt>
      <trkpt lat="49.02858" lon="6.05577">
        <ele>228</ele>
        <time>2011-10-22T13:41:02Z</time>
      </trkpt>
      <trkpt lat="49.02888" lon="6.05572">
        <ele>228.1</ele>
        <time>2011-10-22T13:41:06Z</time>
      </trkpt>
      <trkpt lat="49.02917" lon="6.05571">
        <ele>228.2</ele>
        <time>2011-10-22T13:41:10Z</time>
      </trkpt>
      <trkpt lat="49.02938" lon="6.05568">
        <ele>227.5</ele>
        <time>2011-10-22T13:41:13Z</time>
      </trkpt>
      <trkpt lat="49.02976" lon="6.05566">
        <ele>229.6</ele>
        <time>2011-10-22T13:41:18Z</time>
      </trkpt>
      <trkpt lat="49.02999" lon="6.05568">
        <ele>228.4</ele>
        <time>2011-10-22T13:41:21Z</time>
      </trkpt>
      <trkpt lat="49.03036" lon="6.05582">
        <ele>229.1</ele>
        <time>2011-10-22T13:41:26Z</time>
      </trkpt>
      <trkpt lat="49.03065" lon="6.05602">
        <ele>228.1</ele>
        <time>2011-10-22T13:41:30Z</time>
      </trkpt>
      <trkpt lat="49.03092" lon="6.05621">
        <ele>226.2</ele>
        <time>2011-10-22T13:41:34Z</time>
      </trkpt>
      <trkpt lat="49.0311" lon="6.05635">
        <ele>226.4</ele>
        <time>2011-10-22T13:41:37Z</time>
      </trkpt>
      <trkpt lat="49.03141" lon="6.0566">
        <ele>224.6</ele>
        <time>2011-10-22T13:41:42Z</time>
      </trkpt>
      <trkpt lat="49.03167" lon="6.05682">
        <ele>225.1</ele>
        <time>2011-10-22T13:41:46Z</time>
      </trkpt>
      <trkpt lat="49.03193" lon="6.05702">
        <ele>225.3</ele>
        <time>2011-10-22T13:41:50Z</time>
      </trkpt>
      <trkpt lat="49.03213" lon="6.05719">
        <ele>226</ele>
        <time>2011-10-22T13:41:53Z</time>
      </trkpt>
      <trkpt lat="49.0324" lon="6.05739">
        <ele>227.4</ele>
        <time>2011-10-22T13:41:57Z</time>
      </trkpt>
      <trkpt lat="49.03268" lon="6.05765">
        <ele>226.4</ele>
        <time>2011-10-22T13:42:02Z</time>
      </trkpt>
      <trkpt lat="49.03293" lon="6.05788">
        <ele>225.5</ele>
        <time>2011-10-22T13:42:06Z</time>
      </trkpt>
      <trkpt lat="49.03323" lon="6.05816">
        <ele>226.7</ele>
        <time>2011-10-22T13:42:11Z</time>
      </trkpt>
      <trkpt lat="49.03346" lon="6.05839">
        <ele>227.7</ele>
        <time>2011-10-22T13:42:15Z</time>
      </trkpt>
      <trkpt lat="49.03369" lon="6.05859">
        <ele>226.4</ele>
        <time>2011-10-22T13:42:19Z</time>
      </trkpt>
      <trkpt lat="49.03393" lon="6.05882">
        <ele>226.7</ele>
        <time>2011-10-22T13:42:23Z</time>
      </trkpt>
      <trkpt lat="49.0342" lon="6.05911">
        <ele>226.8</ele>
        <time>2011-10-22T13:42:27Z</time>
      </trkpt>
      <trkpt lat="49.03441" lon="6.05933">
        <ele>227.5</ele>
        <time>2011-10-22T13:42:30Z</time>
      </trkpt>
      <trkpt lat="49.03475" lon="6.05967">
        <ele>228</ele>
        <time>2011-10-22T13:42:35Z</time>
      </trkpt>
      <trkpt lat="49.035" lon="6.05997">
        <ele>226.6</ele>
        <time>2011-10-22T13:42:39Z</time>
      </trkpt>
      <trkpt lat="49.03518" lon="6.06021">
        <ele>227.5</ele>
        <time>2011-10-22T13:42:42Z</time>
      </trkpt>
      <trkpt lat="49.03551" lon="6.06057">
        <ele>230.3</ele>
        <time>2011-10-22T13:42:47Z</time>
      </trkpt>
      <trkpt lat="49.0357" lon="6.06078">
        <ele>230.3</ele>
        <time>2011-10-22T13:42:50Z</time>
      </trkpt>
      <trkpt lat="49.03601" lon="6.06106">
        <ele>230.1</ele>
        <time>2011-10-22T13:42:55Z</time>
      </trkpt>
      <trkpt lat="49.03621" lon="6.0612">
        <ele>231.2</ele>
        <time>2011-10-22T13:42:58Z</time>
      </trkpt>
      <trkpt lat="49.0364" lon="6.06136">
        <ele>233.8</ele>
        <time>2011-10-22T13:43:02Z</time>
      </trkpt>
      <trkpt lat="49.03649" lon="6.06143">
        <ele>233.9</ele>
        <time>2011-10-22T13:43:04Z</time>
      </trkpt>
      <trkpt lat="49.03658" lon="6.06169">
        <ele>228.7</ele>
        <time>2011-10-22T13:43:11Z</time>
      </trkpt>
      <trkpt lat="49.03662" lon="6.06178">
        <ele>225</ele>
        <time>2011-10-22T13:44:54Z</time>
      </trkpt>
      <trkpt lat="49.0367" lon="6.06177">
        <ele>222.4</ele>
        <time>2011-10-22T13:44:59Z</time>
      </trkpt>
      <trkpt lat="49.03691" lon="6.06172">
        <ele>219.1</ele>
        <time>2011-10-22T13:45:03Z</time>
      </trkpt>
      <trkpt lat="49.0372" lon="6.06187">
        <ele>219.4</ele>
        <time>2011-10-22T13:45:07Z</time>
      </trkpt>
      <trkpt lat="49.0375" lon="6.06206">
        <ele>218.5</ele>
        <time>2011-10-22T13:45:11Z</time>
      </trkpt>
      <trkpt lat="49.03774" lon="6.0622">
        <ele>221.3</ele>
        <time>2011-10-22T13:45:14Z</time>
      </trkpt>
      <trkpt lat="49.03812" lon="6.06244">
        <ele>218.7</ele>
        <time>2011-10-22T13:45:19Z</time>
      </trkpt>
      <trkpt lat="49.03845" lon="6.06265">
        <ele>219.8</ele>
        <time>2011-10-22T13:45:23Z</time>
      </trkpt>
      <trkpt lat="49.03876" lon="6.06285">
        <ele>219.9</ele>
        <time>2011-10-22T13:45:27Z</time>
      </trkpt>
      <trkpt lat="49.03906" lon="6.06307">
        <ele>221.6</ele>
        <time>2011-10-22T13:45:31Z</time>
      </trkpt>
      <trkpt lat="49.03937" lon="6.06326">
        <ele>221.1</ele>
        <time>2011-10-22T13:45:35Z</time>
      </trkpt>
      <trkpt lat="49.03967" lon="6.06343">
        <ele>220.7</ele>
        <time>2011-10-22T13:45:39Z</time>
      </trkpt>
      <trkpt lat="49.03989" lon="6.06357">
        <ele>221.9</ele>
        <time>2011-10-22T13:45:42Z</time>
      </trkpt>
      <trkpt lat="49.04027" lon="6.06382">
        <ele>221.1</ele>
        <time>2011-10-22T13:45:47Z</time>
      </trkpt>
      <trkpt lat="49.04057" lon="6.06401">
        <ele>220.8</ele>
        <time>2011-10-22T13:45:51Z</time>
      </trkpt>
      <trkpt lat="49.04088" lon="6.06423">
        <ele>221</ele>
        <time>2011-10-22T13:45:55Z</time>
      </trkpt>
      <trkpt lat="49.04119" lon="6.06443">
        <ele>222.6</ele>
        <time>2011-10-22T13:45:59Z</time>
      </trkpt>
      <trkpt lat="49.04143" lon="6.06459">
        <ele>223.1</ele>
        <time>2011-10-22T13:46:02Z</time>
      </trkpt>
      <trkpt lat="49.04185" lon="6.06481">
        <ele>221.7</ele>
        <time>2011-10-22T13:46:07Z</time>
      </trkpt>
      <trkpt lat="49.04218" lon="6.06502">
        <ele>218.8</ele>
        <time>2011-10-22T13:46:11Z</time>
      </trkpt>
      <trkpt lat="49.04252" lon="6.06524">
        <ele>218.1</ele>
        <time>2011-10-22T13:46:15Z</time>
      </trkpt>
      <trkpt lat="49.04287" lon="6.06547">
        <ele>217.5</ele>
        <time>2011-10-22T13:46:19Z</time>
      </trkpt>
      <trkpt lat="49.04322" lon="6.06569">
        <ele>219.6</ele>
        <time>2011-10-22T13:46:23Z</time>
      </trkpt>
      <trkpt lat="49.04347" lon="6.06585">
        <ele>219.5</ele>
        <time>2011-10-22T13:46:26Z</time>
      </trkpt>
      <trkpt lat="49.04391" lon="6.06613">
        <ele>218.6</ele>
        <time>2011-10-22T13:46:31Z</time>
      </trkpt>
      <trkpt lat="49.04425" lon="6.06635">
        <ele>219.8</ele>
        <time>2011-10-22T13:46:35Z</time>
      </trkpt>
      <trkpt lat="49.0446" lon="6.06657">
        <ele>220.5</ele>
        <time>2011-10-22T13:46:39Z</time>
      </trkpt>
      <trkpt lat="49.04493" lon="6.06678">
        <ele>219.5</ele>
        <time>2011-10-22T13:46:43Z</time>
      </trkpt>
      <trkpt lat="49.04528" lon="6.067">
        <ele>220.7</ele>
        <time>2011-10-22T13:46:47Z</time>
      </trkpt>
      <trkpt lat="49.04562" lon="6.06722">
        <ele>219.4</ele>
        <time>2011-10-22T13:46:51Z</time>
      </trkpt>
      <trkpt lat="49.04596" lon="6.06743">
        <ele>219.7</ele>
        <time>2011-10-22T13:46:55Z</time>
      </trkpt>
      <trkpt lat="49.04621" lon="6.06759">
        <ele>219.8</ele>
        <time>2011-10-22T13:46:58Z</time>
      </trkpt>
      <trkpt lat="49.04664" lon="6.06786">
        <ele>219.5</ele>
        <time>2011-10-22T13:47:03Z</time>
      </trkpt>
      <trkpt lat="49.04699" lon="6.06809">
        <ele>219.7</ele>
        <time>2011-10-22T13:47:07Z</time>
      </trkpt>
      <trkpt lat="49.04758" lon="6.06846">
        <ele>220.4</ele>
        <time>2011-10-22T13:47:14Z</time>
      </trkpt>
      <trkpt lat="49.04784" lon="6.06864">
        <ele>219.5</ele>
        <time>2011-10-22T13:47:17Z</time>
      </trkpt>
      <trkpt lat="49.04826" lon="6.06891">
        <ele>220.3</ele>
        <time>2011-10-22T13:47:22Z</time>
      </trkpt>
      <trkpt lat="49.04861" lon="6.06914">
        <ele>221.2</ele>
        <time>2011-10-22T13:47:26Z</time>
      </trkpt>
      <trkpt lat="49.04894" lon="6.06936">
        <ele>220.9</ele>
        <time>2011-10-22T13:47:30Z</time>
      </trkpt>
      <trkpt lat="49.04929" lon="6.06957">
        <ele>222.1</ele>
        <time>2011-10-22T13:47:34Z</time>
      </trkpt>
      <trkpt lat="49.04964" lon="6.06979">
        <ele>221.9</ele>
        <time>2011-10-22T13:47:38Z</time>
      </trkpt>
      <trkpt lat="49.04997" lon="6.07">
        <ele>222.1</ele>
        <time>2011-10-22T13:47:42Z</time>
      </trkpt>
      <trkpt lat="49.05028" lon="6.07021">
        <ele>222.7</ele>
        <time>2011-10-22T13:47:46Z</time>
      </trkpt>
      <trkpt lat="49.0506" lon="6.07043">
        <ele>222.2</ele>
        <time>2011-10-22T13:47:50Z</time>
      </trkpt>
      <trkpt lat="49.05085" lon="6.07058">
        <ele>222.7</ele>
        <time>2011-10-22T13:47:53Z</time>
      </trkpt>
      <trkpt lat="49.05127" lon="6.07083">
        <ele>220.8</ele>
        <time>2011-10-22T13:47:58Z</time>
      </trkpt>
      <trkpt lat="49.0516" lon="6.07107">
        <ele>220.8</ele>
        <time>2011-10-22T13:48:02Z</time>
      </trkpt>
      <trkpt lat="49.05195" lon="6.07125">
        <ele>220.9</ele>
        <time>2011-10-22T13:48:06Z</time>
      </trkpt>
      <trkpt lat="49.05228" lon="6.07147">
        <ele>221.8</ele>
        <time>2011-10-22T13:48:10Z</time>
      </trkpt>
      <trkpt lat="49.05264" lon="6.0717">
        <ele>221.3</ele>
        <time>2011-10-22T13:48:14Z</time>
      </trkpt>
      <trkpt lat="49.05299" lon="6.07193">
        <ele>221.2</ele>
        <time>2011-10-22T13:48:18Z</time>
      </trkpt>
      <trkpt lat="49.05334" lon="6.07217">
        <ele>222.4</ele>
        <time>2011-10-22T13:48:22Z</time>
      </trkpt>
      <trkpt lat="49.05368" lon="6.07239">
        <ele>222.8</ele>
        <time>2011-10-22T13:48:26Z</time>
      </trkpt>
      <trkpt lat="49.05406" lon="6.07259">
        <ele>221.6</ele>
        <time>2011-10-22T13:48:30Z</time>
      </trkpt>
      <trkpt lat="49.05444" lon="6.07285">
        <ele>221.4</ele>
        <time>2011-10-22T13:48:34Z</time>
      </trkpt>
      <trkpt lat="49.05478" lon="6.07307">
        <ele>222</ele>
        <time>2011-10-22T13:48:38Z</time>
      </trkpt>
      <trkpt lat="49.05503" lon="6.07325">
        <ele>223.5</ele>
        <time>2011-10-22T13:48:41Z</time>
      </trkpt>
      <trkpt lat="49.05545" lon="6.07352">
        <ele>221</ele>
        <time>2011-10-22T13:48:46Z</time>
      </trkpt>
      <trkpt lat="49.05579" lon="6.07377">
        <ele>221.2</ele>
        <time>2011-10-22T13:48:50Z</time>
      </trkpt>
      <trkpt lat="49.05614" lon="6.07404">
        <ele>222.2</ele>
        <time>2011-10-22T13:48:54Z</time>
      </trkpt>
      <trkpt lat="49.0564" lon="6.07421">
        <ele>222.7</ele>
        <time>2011-10-22T13:48:57Z</time>
      </trkpt>
      <trkpt lat="49.05675" lon="6.07441">
        <ele>223.4</ele>
        <time>2011-10-22T13:49:01Z</time>
      </trkpt>
      <trkpt lat="49.05719" lon="6.07466">
        <ele>221.7</ele>
        <time>2011-10-22T13:49:06Z</time>
      </trkpt>
      <trkpt lat="49.05742" lon="6.07482">
        <ele>222.6</ele>
        <time>2011-10-22T13:49:10Z</time>
      </trkpt>
      <trkpt lat="49.05765" lon="6.07494">
        <ele>224.8</ele>
        <time>2011-10-22T13:49:13Z</time>
      </trkpt>
      <trkpt lat="49.05804" lon="6.07518">
        <ele>225.5</ele>
        <time>2011-10-22T13:49:18Z</time>
      </trkpt>
      <trkpt lat="49.05828" lon="6.07528">
        <ele>226.6</ele>
        <time>2011-10-22T13:49:21Z</time>
      </trkpt>
      <trkpt lat="49.05868" lon="6.07548">
        <ele>226.6</ele>
        <time>2011-10-22T13:49:26Z</time>
      </trkpt>
      <trkpt lat="49.05899" lon="6.07567">
        <ele>226.8</ele>
        <time>2011-10-22T13:49:30Z</time>
      </trkpt>
      <trkpt lat="49.05922" lon="6.07586">
        <ele>226.6</ele>
        <time>2011-10-22T13:49:33Z</time>
      </trkpt>
      <trkpt lat="49.05956" lon="6.07622">
        <ele>227.6</ele>
        <time>2011-10-22T13:49:38Z</time>
      </trkpt>
      <trkpt lat="49.05987" lon="6.07651">
        <ele>227.7</ele>
        <time>2011-10-22T13:49:42Z</time>
      </trkpt>
      <trkpt lat="49.06021" lon="6.07676">
        <ele>226.4</ele>
        <time>2011-10-22T13:49:46Z</time>
      </trkpt>
      <trkpt lat="49.06051" lon="6.07702">
        <ele>228.6</ele>
        <time>2011-10-22T13:49:50Z</time>
      </trkpt>
      <trkpt lat="49.0608" lon="6.07732">
        <ele>228.2</ele>
        <time>2011-10-22T13:49:54Z</time>
      </trkpt>
      <trkpt lat="49.06086" lon="6.07743">
        <ele>229.9</ele>
        <time>2011-10-22T13:49:55Z</time>
      </trkpt>
      <trkpt lat="49.06139" lon="6.07781">
        <ele>231.3</ele>
        <time>2011-10-22T13:50:02Z</time>
      </trkpt>
      <trkpt lat="49.06162" lon="6.07796">
        <ele>232.5</ele>
        <time>2011-10-22T13:50:05Z</time>
      </trkpt>
      <trkpt lat="49.062" lon="6.07838">
        <ele>233.2</ele>
        <time>2011-10-22T13:50:10Z</time>
      </trkpt>
      <trkpt lat="49.06226" lon="6.07868">
        <ele>229.9</ele>
        <time>2011-10-22T13:50:14Z</time>
      </trkpt>
      <trkpt lat="49.06254" lon="6.07893">
        <ele>231.2</ele>
        <time>2011-10-22T13:50:18Z</time>
      </trkpt>
      <trkpt lat="49.06287" lon="6.07928">
        <ele>230.5</ele>
        <time>2011-10-22T13:50:22Z</time>
      </trkpt>
      <trkpt lat="49.06307" lon="6.07946">
        <ele>230.3</ele>
        <time>2011-10-22T13:50:25Z</time>
      </trkpt>
      <trkpt lat="49.06341" lon="6.07972">
        <ele>229.2</ele>
        <time>2011-10-22T13:50:29Z</time>
      </trkpt>
      <trkpt lat="49.06376" lon="6.07982">
        <ele>230.4</ele>
        <time>2011-10-22T13:50:34Z</time>
      </trkpt>
      <trkpt lat="49.06414" lon="6.07984">
        <ele>230.2</ele>
        <time>2011-10-22T13:50:37Z</time>
      </trkpt>
      <trkpt lat="49.0645" lon="6.07992">
        <ele>229.5</ele>
        <time>2011-10-22T13:50:41Z</time>
      </trkpt>
      <trkpt lat="49.0649" lon="6.08002">
        <ele>227.1</ele>
        <time>2011-10-22T13:50:45Z</time>
      </trkpt>
      <trkpt lat="49.06528" lon="6.08018">
        <ele>226.7</ele>
        <time>2011-10-22T13:50:49Z</time>
      </trkpt>
      <trkpt lat="49.06568" lon="6.08033">
        <ele>226.2</ele>
        <time>2011-10-22T13:50:53Z</time>
      </trkpt>
      <trkpt lat="49.06605" lon="6.0805">
        <ele>224.5</ele>
        <time>2011-10-22T13:50:57Z</time>
      </trkpt>
      <trkpt lat="49.06645" lon="6.08074">
        <ele>225.8</ele>
        <time>2011-10-22T13:51:01Z</time>
      </trkpt>
      <trkpt lat="49.06675" lon="6.08088">
        <ele>226.1</ele>
        <time>2011-10-22T13:51:04Z</time>
      </trkpt>
      <trkpt lat="49.06719" lon="6.0813">
        <ele>227.3</ele>
        <time>2011-10-22T13:51:09Z</time>
      </trkpt>
      <trkpt lat="49.06753" lon="6.08168">
        <ele>227.8</ele>
        <time>2011-10-22T13:51:13Z</time>
      </trkpt>
      <trkpt lat="49.06775" lon="6.08199">
        <ele>229.3</ele>
        <time>2011-10-22T13:51:16Z</time>
      </trkpt>
      <trkpt lat="49.06808" lon="6.08253">
        <ele>226.9</ele>
        <time>2011-10-22T13:51:21Z</time>
      </trkpt>
      <trkpt lat="49.06829" lon="6.08278">
        <ele>225.2</ele>
        <time>2011-10-22T13:51:24Z</time>
      </trkpt>
      <trkpt lat="49.06854" lon="6.08308">
        <ele>228.7</ele>
        <time>2011-10-22T13:51:28Z</time>
      </trkpt>
      <trkpt lat="49.06869" lon="6.08328">
        <ele>229.1</ele>
        <time>2011-10-22T13:51:32Z</time>
      </trkpt>
      <trkpt lat="49.06879" lon="6.08346">
        <ele>226.3</ele>
        <time>2011-10-22T13:51:36Z</time>
      </trkpt>
      <trkpt lat="49.06882" lon="6.08356">
        <ele>224.8</ele>
        <time>2011-10-22T13:51:39Z</time>
      </trkpt>
      <trkpt lat="49.0689" lon="6.08364">
        <ele>217.5</ele>
        <time>2011-10-22T13:57:01Z</time>
      </trkpt>
      <trkpt lat="49.06899" lon="6.08388">
        <ele>218.3</ele>
        <time>2011-10-22T13:57:05Z</time>
      </trkpt>
      <trkpt lat="49.06911" lon="6.08411">
        <ele>218.4</ele>
        <time>2011-10-22T13:57:09Z</time>
      </trkpt>
      <trkpt lat="49.06929" lon="6.08452">
        <ele>217.5</ele>
        <time>2011-10-22T13:57:14Z</time>
      </trkpt>
      <trkpt lat="49.06949" lon="6.08496">
        <ele>218.1</ele>
        <time>2011-10-22T13:57:18Z</time>
      </trkpt>
      <trkpt lat="49.06973" lon="6.08542">
        <ele>218</ele>
        <time>2011-10-22T13:57:22Z</time>
      </trkpt>
      <trkpt lat="49.06991" lon="6.08576">
        <ele>217</ele>
        <time>2011-10-22T13:57:25Z</time>
      </trkpt>
      <trkpt lat="49.07019" lon="6.0864">
        <ele>216.3</ele>
        <time>2011-10-22T13:57:30Z</time>
      </trkpt>
      <trkpt lat="49.07037" lon="6.08688">
        <ele>216.8</ele>
        <time>2011-10-22T13:57:34Z</time>
      </trkpt>
      <trkpt lat="49.07055" lon="6.08734">
        <ele>217.1</ele>
        <time>2011-10-22T13:57:38Z</time>
      </trkpt>
      <trkpt lat="49.07073" lon="6.08779">
        <ele>218.1</ele>
        <time>2011-10-22T13:57:42Z</time>
      </trkpt>
      <trkpt lat="49.07089" lon="6.08819">
        <ele>215.8</ele>
        <time>2011-10-22T13:57:45Z</time>
      </trkpt>
      <trkpt lat="49.07108" lon="6.08876">
        <ele>219.1</ele>
        <time>2011-10-22T13:57:50Z</time>
      </trkpt>
      <trkpt lat="49.07121" lon="6.08911">
        <ele>215.9</ele>
        <time>2011-10-22T13:57:53Z</time>
      </trkpt>
      <trkpt lat="49.07145" lon="6.08973">
        <ele>215.2</ele>
        <time>2011-10-22T13:57:58Z</time>
      </trkpt>
      <trkpt lat="49.07164" lon="6.09004">
        <ele>214.3</ele>
        <time>2011-10-22T13:58:01Z</time>
      </trkpt>
      <trkpt lat="49.07189" lon="6.09067">
        <ele>212.4</ele>
        <time>2011-10-22T13:58:06Z</time>
      </trkpt>
      <trkpt lat="49.07203" lon="6.09103">
        <ele>212.3</ele>
        <time>2011-10-22T13:58:09Z</time>
      </trkpt>
      <trkpt lat="49.07228" lon="6.09163">
        <ele>210.1</ele>
        <time>2011-10-22T13:58:14Z</time>
      </trkpt>
      <trkpt lat="49.07248" lon="6.09211">
        <ele>209.6</ele>
        <time>2011-10-22T13:58:18Z</time>
      </trkpt>
      <trkpt lat="49.07267" lon="6.09259">
        <ele>208.1</ele>
        <time>2011-10-22T13:58:22Z</time>
      </trkpt>
      <trkpt lat="49.07286" lon="6.09307">
        <ele>209.2</ele>
        <time>2011-10-22T13:58:26Z</time>
      </trkpt>
      <trkpt lat="49.07304" lon="6.09351">
        <ele>208.8</ele>
        <time>2011-10-22T13:58:30Z</time>
      </trkpt>
      <trkpt lat="49.07324" lon="6.09391">
        <ele>210.1</ele>
        <time>2011-10-22T13:58:34Z</time>
      </trkpt>
      <trkpt lat="49.07348" lon="6.09432">
        <ele>211.4</ele>
        <time>2011-10-22T13:58:38Z</time>
      </trkpt>
      <trkpt lat="49.07373" lon="6.09474">
        <ele>213</ele>
        <time>2011-10-22T13:58:42Z</time>
      </trkpt>
      <trkpt lat="49.0739" lon="6.09504">
        <ele>213.4</ele>
        <time>2011-10-22T13:58:45Z</time>
      </trkpt>
      <trkpt lat="49.07421" lon="6.09553">
        <ele>216.9</ele>
        <time>2011-10-22T13:58:50Z</time>
      </trkpt>
      <trkpt lat="49.0743" lon="6.0957">
        <ele>218.8</ele>
        <time>2011-10-22T13:58:52Z</time>
      </trkpt>
      <trkpt lat="49.07454" lon="6.09617">
        <ele>219.2</ele>
        <time>2011-10-22T13:58:58Z</time>
      </trkpt>
      <trkpt lat="49.07479" lon="6.09647">
        <ele>220.5</ele>
        <time>2011-10-22T13:59:02Z</time>
      </trkpt>
      <trkpt lat="49.07501" lon="6.09688">
        <ele>221.2</ele>
        <time>2011-10-22T13:59:06Z</time>
      </trkpt>
      <trkpt lat="49.07518" lon="6.0972">
        <ele>219.4</ele>
        <time>2011-10-22T13:59:09Z</time>
      </trkpt>
      <trkpt lat="49.07552" lon="6.09774">
        <ele>218.5</ele>
        <time>2011-10-22T13:59:14Z</time>
      </trkpt>
      <trkpt lat="49.07577" lon="6.09814">
        <ele>219.2</ele>
        <time>2011-10-22T13:59:18Z</time>
      </trkpt>
      <trkpt lat="49.07601" lon="6.09855">
        <ele>219.4</ele>
        <time>2011-10-22T13:59:22Z</time>
      </trkpt>
      <trkpt lat="49.07619" lon="6.09886">
        <ele>218.2</ele>
        <time>2011-10-22T13:59:25Z</time>
      </trkpt>
      <trkpt lat="49.07648" lon="6.09937">
        <ele>217.3</ele>
        <time>2011-10-22T13:59:30Z</time>
      </trkpt>
      <trkpt lat="49.07667" lon="6.0997">
        <ele>217.5</ele>
        <time>2011-10-22T13:59:33Z</time>
      </trkpt>
      <trkpt lat="49.07689" lon="6.10015">
        <ele>218.4</ele>
        <time>2011-10-22T13:59:37Z</time>
      </trkpt>
      <trkpt lat="49.07706" lon="6.10041">
        <ele>219.1</ele>
        <time>2011-10-22T13:59:41Z</time>
      </trkpt>
      <trkpt lat="49.07721" lon="6.10076">
        <ele>218</ele>
        <time>2011-10-22T13:59:46Z</time>
      </trkpt>
      <trkpt lat="49.07725" lon="6.10086">
        <ele>217.3</ele>
        <time>2011-10-22T13:59:48Z</time>
      </trkpt>
      <trkpt lat="49.07726" lon="6.10128">
        <ele>215</ele>
        <time>2011-10-22T13:59:54Z</time>
      </trkpt>
      <trkpt lat="49.07735" lon="6.10168">
        <ele>214.1</ele>
        <time>2011-10-22T13:59:57Z</time>
      </trkpt>
      <trkpt lat="49.0775" lon="6.10189">
        <ele>214.3</ele>
        <time>2011-10-22T14:00:01Z</time>
      </trkpt>
      <trkpt lat="49.0777" lon="6.10197">
        <ele>216</ele>
        <time>2011-10-22T14:00:05Z</time>
      </trkpt>
      <trkpt lat="49.07791" lon="6.10199">
        <ele>215.2</ele>
        <time>2011-10-22T14:00:09Z</time>
      </trkpt>
      <trkpt lat="49.07819" lon="6.10215">
        <ele>216</ele>
        <time>2011-10-22T14:00:14Z</time>
      </trkpt>
      <trkpt lat="49.07836" lon="6.10243">
        <ele>216.2</ele>
        <time>2011-10-22T14:00:18Z</time>
      </trkpt>
      <trkpt lat="49.07848" lon="6.10263">
        <ele>216.8</ele>
        <time>2011-10-22T14:00:21Z</time>
      </trkpt>
      <trkpt lat="49.07858" lon="6.10279">
        <ele>218</ele>
        <time>2011-10-22T14:00:25Z</time>
      </trkpt>
      <trkpt lat="49.07874" lon="6.10303">
        <ele>217.7</ele>
        <time>2011-10-22T14:00:30Z</time>
      </trkpt>
      <trkpt lat="49.07888" lon="6.10328">
        <ele>217.6</ele>
        <time>2011-10-22T14:00:33Z</time>
      </trkpt>
      <trkpt lat="49.07916" lon="6.10374">
        <ele>219.5</ele>
        <time>2011-10-22T14:00:38Z</time>
      </trkpt>
      <trkpt lat="49.07936" lon="6.10415">
        <ele>218.3</ele>
        <time>2011-10-22T14:00:42Z</time>
      </trkpt>
      <trkpt lat="49.07952" lon="6.10452">
        <ele>217.8</ele>
        <time>2011-10-22T14:00:46Z</time>
      </trkpt>
      <trkpt lat="49.07966" lon="6.10486">
        <ele>216.2</ele>
        <time>2011-10-22T14:00:49Z</time>
      </trkpt>
      <trkpt lat="49.07993" lon="6.1053">
        <ele>217.5</ele>
        <time>2011-10-22T14:00:54Z</time>
      </trkpt>
      <trkpt lat="49.08015" lon="6.10572">
        <ele>215.8</ele>
        <time>2011-10-22T14:00:58Z</time>
      </trkpt>
      <trkpt lat="49.08035" lon="6.10614">
        <ele>216.4</ele>
        <time>2011-10-22T14:01:02Z</time>
      </trkpt>
      <trkpt lat="49.08054" lon="6.10655">
        <ele>217.4</ele>
        <time>2011-10-22T14:01:06Z</time>
      </trkpt>
      <trkpt lat="49.08069" lon="6.10689">
        <ele>217.6</ele>
        <time>2011-10-22T14:01:09Z</time>
      </trkpt>
      <trkpt lat="49.08093" lon="6.10737">
        <ele>218.1</ele>
        <time>2011-10-22T14:01:14Z</time>
      </trkpt>
      <trkpt lat="49.08112" lon="6.10764">
        <ele>219.7</ele>
        <time>2011-10-22T14:01:18Z</time>
      </trkpt>
      <trkpt lat="49.08111" lon="6.10799">
        <ele>219.5</ele>
        <time>2011-10-22T14:01:22Z</time>
      </trkpt>
      <trkpt lat="49.08108" lon="6.10837">
        <ele>220.9</ele>
        <time>2011-10-22T14:01:26Z</time>
      </trkpt>
      <trkpt lat="49.08117" lon="6.10869">
        <ele>219.6</ele>
        <time>2011-10-22T14:01:29Z</time>
      </trkpt>
      <trkpt lat="49.08153" lon="6.10889">
        <ele>218.9</ele>
        <time>2011-10-22T14:01:34Z</time>
      </trkpt>
      <trkpt lat="49.08171" lon="6.10889">
        <ele>218.2</ele>
        <time>2011-10-22T14:01:37Z</time>
      </trkpt>
      <trkpt lat="49.08184" lon="6.10899">
        <ele>217.3</ele>
        <time>2011-10-22T14:01:42Z</time>
      </trkpt>
      <trkpt lat="49.082" lon="6.10928">
        <ele>215.7</ele>
        <time>2011-10-22T14:01:46Z</time>
      </trkpt>
      <trkpt lat="49.08218" lon="6.1096">
        <ele>214.9</ele>
        <time>2011-10-22T14:01:50Z</time>
      </trkpt>
      <trkpt lat="49.08239" lon="6.10993">
        <ele>215.8</ele>
        <time>2011-10-22T14:01:54Z</time>
      </trkpt>
      <trkpt lat="49.08261" lon="6.11027">
        <ele>219</ele>
        <time>2011-10-22T14:01:58Z</time>
      </trkpt>
      <trkpt lat="49.08285" lon="6.11063">
        <ele>220.3</ele>
        <time>2011-10-22T14:02:02Z</time>
      </trkpt>
      <trkpt lat="49.08309" lon="6.11099">
        <ele>219</ele>
        <time>2011-10-22T14:02:06Z</time>
      </trkpt>
      <trkpt lat="49.08332" lon="6.11133">
        <ele>219.2</ele>
        <time>2011-10-22T14:02:10Z</time>
      </trkpt>
      <trkpt lat="49.08354" lon="6.11164">
        <ele>218.8</ele>
        <time>2011-10-22T14:02:14Z</time>
      </trkpt>
      <trkpt lat="49.08375" lon="6.11194">
        <ele>218</ele>
        <time>2011-10-22T14:02:18Z</time>
      </trkpt>
      <trkpt lat="49.08388" lon="6.11214">
        <ele>217.5</ele>
        <time>2011-10-22T14:02:21Z</time>
      </trkpt>
      <trkpt lat="49.08404" lon="6.11235">
        <ele>218</ele>
        <time>2011-10-22T14:02:25Z</time>
      </trkpt>
      <trkpt lat="49.08427" lon="6.11268">
        <ele>220.1</ele>
        <time>2011-10-22T14:02:30Z</time>
      </trkpt>
      <trkpt lat="49.08451" lon="6.11304">
        <ele>220.1</ele>
        <time>2011-10-22T14:02:34Z</time>
      </trkpt>
      <trkpt lat="49.08475" lon="6.11341">
        <ele>219.2</ele>
        <time>2011-10-22T14:02:38Z</time>
      </trkpt>
      <trkpt lat="49.08498" lon="6.11382">
        <ele>218.5</ele>
        <time>2011-10-22T14:02:42Z</time>
      </trkpt>
      <trkpt lat="49.08525" lon="6.11424">
        <ele>218.8</ele>
        <time>2011-10-22T14:02:46Z</time>
      </trkpt>
      <trkpt lat="49.08546" lon="6.11455">
        <ele>219.9</ele>
        <time>2011-10-22T14:02:49Z</time>
      </trkpt>
      <trkpt lat="49.08583" lon="6.11506">
        <ele>219.1</ele>
        <time>2011-10-22T14:02:54Z</time>
      </trkpt>
      <trkpt lat="49.08608" lon="6.11544">
        <ele>219</ele>
        <time>2011-10-22T14:02:58Z</time>
      </trkpt>
      <trkpt lat="49.08633" lon="6.11585">
        <ele>218.2</ele>
        <time>2011-10-22T14:03:02Z</time>
      </trkpt>
      <trkpt lat="49.08658" lon="6.11627">
        <ele>218.7</ele>
        <time>2011-10-22T14:03:06Z</time>
      </trkpt>
      <trkpt lat="49.08676" lon="6.11658">
        <ele>221.1</ele>
        <time>2011-10-22T14:03:09Z</time>
      </trkpt>
      <trkpt lat="49.08704" lon="6.11701">
        <ele>223.3</ele>
        <time>2011-10-22T14:03:14Z</time>
      </trkpt>
      <trkpt lat="49.08718" lon="6.11726">
        <ele>223.8</ele>
        <time>2011-10-22T14:03:17Z</time>
      </trkpt>
      <trkpt lat="49.08736" lon="6.11764">
        <ele>223.7</ele>
        <time>2011-10-22T14:03:21Z</time>
      </trkpt>
      <trkpt lat="49.08764" lon="6.11797">
        <ele>221.4</ele>
        <time>2011-10-22T14:03:25Z</time>
      </trkpt>
      <trkpt lat="49.08786" lon="6.11836">
        <ele>219.5</ele>
        <time>2011-10-22T14:03:29Z</time>
      </trkpt>
      <trkpt lat="49.08812" lon="6.11891">
        <ele>220.4</ele>
        <time>2011-10-22T14:03:34Z</time>
      </trkpt>
      <trkpt lat="49.08832" lon="6.11941">
        <ele>221.1</ele>
        <time>2011-10-22T14:03:38Z</time>
      </trkpt>
      <trkpt lat="49.08849" lon="6.11995">
        <ele>219.6</ele>
        <time>2011-10-22T14:03:42Z</time>
      </trkpt>
      <trkpt lat="49.0886" lon="6.12037">
        <ele>220.5</ele>
        <time>2011-10-22T14:03:45Z</time>
      </trkpt>
      <trkpt lat="49.08873" lon="6.12109">
        <ele>220.6</ele>
        <time>2011-10-22T14:03:50Z</time>
      </trkpt>
      <trkpt lat="49.08883" lon="6.12163">
        <ele>218.9</ele>
        <time>2011-10-22T14:03:54Z</time>
      </trkpt>
      <trkpt lat="49.08894" lon="6.12215">
        <ele>216.8</ele>
        <time>2011-10-22T14:03:58Z</time>
      </trkpt>
      <trkpt lat="49.08906" lon="6.12265">
        <ele>215.9</ele>
        <time>2011-10-22T14:04:02Z</time>
      </trkpt>
      <trkpt lat="49.08924" lon="6.12325">
        <ele>213.5</ele>
        <time>2011-10-22T14:04:07Z</time>
      </trkpt>
      <trkpt lat="49.08941" lon="6.12373">
        <ele>214.2</ele>
        <time>2011-10-22T14:04:11Z</time>
      </trkpt>
      <trkpt lat="49.08958" lon="6.12419">
        <ele>215.4</ele>
        <time>2011-10-22T14:04:15Z</time>
      </trkpt>
      <trkpt lat="49.08976" lon="6.12466">
        <ele>215.7</ele>
        <time>2011-10-22T14:04:19Z</time>
      </trkpt>
      <trkpt lat="49.08994" lon="6.12514">
        <ele>216.2</ele>
        <time>2011-10-22T14:04:23Z</time>
      </trkpt>
      <trkpt lat="49.09007" lon="6.12551">
        <ele>216.4</ele>
        <time>2011-10-22T14:04:26Z</time>
      </trkpt>
      <trkpt lat="49.09022" lon="6.126">
        <ele>216.7</ele>
        <time>2011-10-22T14:04:30Z</time>
      </trkpt>
      <trkpt lat="49.09038" lon="6.12662">
        <ele>217</ele>
        <time>2011-10-22T14:04:35Z</time>
      </trkpt>
      <trkpt lat="49.0905" lon="6.12716">
        <ele>218.3</ele>
        <time>2011-10-22T14:04:39Z</time>
      </trkpt>
      <trkpt lat="49.0906" lon="6.12766">
        <ele>215.8</ele>
        <time>2011-10-22T14:04:43Z</time>
      </trkpt>
      <trkpt lat="49.09069" lon="6.12807">
        <ele>213.8</ele>
        <time>2011-10-22T14:04:46Z</time>
      </trkpt>
      <trkpt lat="49.09078" lon="6.12846">
        <ele>214.8</ele>
        <time>2011-10-22T14:04:49Z</time>
      </trkpt>
      <trkpt lat="49.09091" lon="6.12915">
        <ele>216.1</ele>
        <time>2011-10-22T14:04:55Z</time>
      </trkpt>
      <trkpt lat="49.09103" lon="6.12964">
        <ele>217.5</ele>
        <time>2011-10-22T14:04:59Z</time>
      </trkpt>
      <trkpt lat="49.09124" lon="6.13003">
        <ele>216.3</ele>
        <time>2011-10-22T14:05:03Z</time>
      </trkpt>
      <trkpt lat="49.09146" lon="6.13027">
        <ele>215.2</ele>
        <time>2011-10-22T14:05:06Z</time>
      </trkpt>
      <trkpt lat="49.09173" lon="6.13048">
        <ele>214.8</ele>
        <time>2011-10-22T14:05:10Z</time>
      </trkpt>
      <trkpt lat="49.09203" lon="6.1307">
        <ele>215.2</ele>
        <time>2011-10-22T14:05:14Z</time>
      </trkpt>
      <trkpt lat="49.09238" lon="6.13093">
        <ele>216</ele>
        <time>2011-10-22T14:05:19Z</time>
      </trkpt>
      <trkpt lat="49.0927" lon="6.13117">
        <ele>216.5</ele>
        <time>2011-10-22T14:05:23Z</time>
      </trkpt>
      <trkpt lat="49.09296" lon="6.13133">
        <ele>216.2</ele>
        <time>2011-10-22T14:05:26Z</time>
      </trkpt>
      <trkpt lat="49.09326" lon="6.13171">
        <ele>214.9</ele>
        <time>2011-10-22T14:05:31Z</time>
      </trkpt>
      <trkpt lat="49.09341" lon="6.13205">
        <ele>214.4</ele>
        <time>2011-10-22T14:05:35Z</time>
      </trkpt>
      <trkpt lat="49.09363" lon="6.13212">
        <ele>218.5</ele>
        <time>2011-10-22T14:05:39Z</time>
      </trkpt>
      <trkpt lat="49.09381" lon="6.13204">
        <ele>218.5</ele>
        <time>2011-10-22T14:05:42Z</time>
      </trkpt>
      <trkpt lat="49.09417" lon="6.13173">
        <ele>216.3</ele>
        <time>2011-10-22T14:05:47Z</time>
      </trkpt>
      <trkpt lat="49.09438" lon="6.13155">
        <ele>217.9</ele>
        <time>2011-10-22T14:05:50Z</time>
      </trkpt>
      <trkpt lat="49.09465" lon="6.13133">
        <ele>219.3</ele>
        <time>2011-10-22T14:05:54Z</time>
      </trkpt>
      <trkpt lat="49.09493" lon="6.13108">
        <ele>220.6</ele>
        <time>2011-10-22T14:05:59Z</time>
      </trkpt>
      <trkpt lat="49.09513" lon="6.13114">
        <ele>220</ele>
        <time>2011-10-22T14:06:03Z</time>
      </trkpt>
      <trkpt lat="49.09529" lon="6.13149">
        <ele>222.8</ele>
        <time>2011-10-22T14:06:07Z</time>
      </trkpt>
      <trkpt lat="49.09551" lon="6.13181">
        <ele>221.2</ele>
        <time>2011-10-22T14:06:11Z</time>
      </trkpt>
      <trkpt lat="49.09568" lon="6.13218">
        <ele>220.9</ele>
        <time>2011-10-22T14:06:15Z</time>
      </trkpt>
      <trkpt lat="49.09587" lon="6.13259">
        <ele>222</ele>
        <time>2011-10-22T14:06:19Z</time>
      </trkpt>
      <trkpt lat="49.09606" lon="6.13298">
        <ele>222.3</ele>
        <time>2011-10-22T14:06:23Z</time>
      </trkpt>
      <trkpt lat="49.0962" lon="6.13324">
        <ele>222.4</ele>
        <time>2011-10-22T14:06:26Z</time>
      </trkpt>
      <trkpt lat="49.0964" lon="6.13369">
        <ele>220.9</ele>
        <time>2011-10-22T14:06:31Z</time>
      </trkpt>
      <trkpt lat="49.09657" lon="6.13402">
        <ele>219.5</ele>
        <time>2011-10-22T14:06:35Z</time>
      </trkpt>
      <trkpt lat="49.09673" lon="6.13433">
        <ele>219.9</ele>
        <time>2011-10-22T14:06:39Z</time>
      </trkpt>
      <trkpt lat="49.09684" lon="6.13456">
        <ele>218.9</ele>
        <time>2011-10-22T14:06:42Z</time>
      </trkpt>
      <trkpt lat="49.09696" lon="6.13467">
        <ele>218.2</ele>
        <time>2011-10-22T14:06:46Z</time>
      </trkpt>
      <trkpt lat="49.09704" lon="6.13468">
        <ele>217.1</ele>
        <time>2011-10-22T14:06:49Z</time>
      </trkpt>
    </trkseg>
  </trk>
</gpx>